<?xml version="1.0" encoding="UTF-8" standalone="no" ?>
<gpx xmlns="http://www.topografix.com/GPX/1/1" xmlns:xsi="http://www.w3.org/2001/XMLSchema-instance" xsi:schemaLocation="http://www.topografix.com/GPX/1/1 http://www.topografix.com/GPX/1/1/gpx.xsd" version="1.1" creator="VisuGPX - https://www.visugpx.com">
  <metadata>
    <name>Rando pédestre en Ardèche:Pranles la Chirouse</name>
    <desc><![CDATA[Rando pédestre en Ardèche au nord de Privas à proximité d\'un ancien volcan.]]></desc>
  </metadata>
  <trk>
    <name><![CDATA[PRANLE CHIROUZE]]></name>
    <trkseg>
      <trkpt lat="44.77096" lon="4.57227">
        <ele>599.52</ele>
        <time>2011-04-07T07:04:05Z</time>
      </trkpt>
      <trkpt lat="44.77091" lon="4.57226">
        <ele>601.44</ele>
        <time>2011-04-07T07:04:23Z</time>
      </trkpt>
      <trkpt lat="44.77089" lon="4.57226">
        <ele>601.44</ele>
        <time>2011-04-07T07:04:37Z</time>
      </trkpt>
      <trkpt lat="44.7709" lon="4.5723">
        <ele>601.44</ele>
        <time>2011-04-07T07:04:48Z</time>
      </trkpt>
      <trkpt lat="44.77091" lon="4.5723">
        <ele>601.44</ele>
        <time>2011-04-07T07:04:54Z</time>
      </trkpt>
      <trkpt lat="44.77091" lon="4.57233">
        <ele>601.44</ele>
        <time>2011-04-07T07:05:01Z</time>
      </trkpt>
      <trkpt lat="44.77087" lon="4.57228">
        <ele>600.48</ele>
        <time>2011-04-07T07:05:21Z</time>
      </trkpt>
      <trkpt lat="44.7709" lon="4.57226">
        <ele>601.44</ele>
        <time>2011-04-07T07:05:35Z</time>
      </trkpt>
      <trkpt lat="44.77091" lon="4.57228">
        <ele>600.96</ele>
        <time>2011-04-07T07:07:13Z</time>
      </trkpt>
      <trkpt lat="44.77086" lon="4.5723">
        <ele>601.44</ele>
        <time>2011-04-07T07:07:29Z</time>
      </trkpt>
      <trkpt lat="44.77086" lon="4.5723">
        <ele>589.91</ele>
        <time>2011-04-07T07:08:05Z</time>
      </trkpt>
      <trkpt lat="44.77086" lon="4.5723">
        <ele>589.91</ele>
        <time>2011-04-07T07:08:06Z</time>
      </trkpt>
      <trkpt lat="44.77088" lon="4.57231">
        <ele>590.87</ele>
        <time>2011-04-07T07:09:28Z</time>
      </trkpt>
      <trkpt lat="44.7709" lon="4.57226">
        <ele>590.87</ele>
        <time>2011-04-07T07:09:50Z</time>
      </trkpt>
      <trkpt lat="44.7709" lon="4.57221">
        <ele>590.87</ele>
        <time>2011-04-07T07:09:58Z</time>
      </trkpt>
      <trkpt lat="44.77085" lon="4.57213">
        <ele>591.35</ele>
        <time>2011-04-07T07:10:17Z</time>
      </trkpt>
      <trkpt lat="44.7708" lon="4.57209">
        <ele>591.83</ele>
        <time>2011-04-07T07:10:26Z</time>
      </trkpt>
      <trkpt lat="44.77079" lon="4.57209">
        <ele>591.35</ele>
        <time>2011-04-07T07:10:29Z</time>
      </trkpt>
      <trkpt lat="44.77073" lon="4.5721">
        <ele>591.35</ele>
        <time>2011-04-07T07:10:35Z</time>
      </trkpt>
      <trkpt lat="44.77065" lon="4.57202">
        <ele>591.83</ele>
        <time>2011-04-07T07:10:44Z</time>
      </trkpt>
      <trkpt lat="44.77057" lon="4.57198">
        <ele>591.35</ele>
        <time>2011-04-07T07:10:51Z</time>
      </trkpt>
      <trkpt lat="44.77049" lon="4.57194">
        <ele>592.31</ele>
        <time>2011-04-07T07:10:58Z</time>
      </trkpt>
      <trkpt lat="44.77044" lon="4.57191">
        <ele>592.31</ele>
        <time>2011-04-07T07:11:06Z</time>
      </trkpt>
      <trkpt lat="44.77038" lon="4.57186">
        <ele>592.79</ele>
        <time>2011-04-07T07:11:13Z</time>
      </trkpt>
      <trkpt lat="44.77027" lon="4.57182">
        <ele>593.27</ele>
        <time>2011-04-07T07:11:22Z</time>
      </trkpt>
      <trkpt lat="44.7702" lon="4.57178">
        <ele>593.75</ele>
        <time>2011-04-07T07:11:29Z</time>
      </trkpt>
      <trkpt lat="44.77018" lon="4.57176">
        <ele>593.27</ele>
        <time>2011-04-07T07:11:31Z</time>
      </trkpt>
      <trkpt lat="44.77012" lon="4.57169">
        <ele>594.23</ele>
        <time>2011-04-07T07:11:40Z</time>
      </trkpt>
      <trkpt lat="44.77006" lon="4.57153">
        <ele>594.71</ele>
        <time>2011-04-07T07:11:49Z</time>
      </trkpt>
      <trkpt lat="44.77003" lon="4.57139">
        <ele>594.23</ele>
        <time>2011-04-07T07:11:59Z</time>
      </trkpt>
      <trkpt lat="44.77002" lon="4.57125">
        <ele>594.23</ele>
        <time>2011-04-07T07:12:08Z</time>
      </trkpt>
      <trkpt lat="44.77002" lon="4.57108">
        <ele>594.23</ele>
        <time>2011-04-07T07:12:18Z</time>
      </trkpt>
      <trkpt lat="44.77005" lon="4.57098">
        <ele>594.23</ele>
        <time>2011-04-07T07:12:26Z</time>
      </trkpt>
      <trkpt lat="44.77004" lon="4.57085">
        <ele>593.75</ele>
        <time>2011-04-07T07:12:34Z</time>
      </trkpt>
      <trkpt lat="44.77008" lon="4.5707">
        <ele>593.27</ele>
        <time>2011-04-07T07:12:43Z</time>
      </trkpt>
      <trkpt lat="44.77007" lon="4.57058">
        <ele>593.75</ele>
        <time>2011-04-07T07:12:51Z</time>
      </trkpt>
      <trkpt lat="44.77007" lon="4.57037">
        <ele>593.27</ele>
        <time>2011-04-07T07:13:01Z</time>
      </trkpt>
      <trkpt lat="44.77009" lon="4.57031">
        <ele>592.79</ele>
        <time>2011-04-07T07:13:07Z</time>
      </trkpt>
      <trkpt lat="44.77008" lon="4.57027">
        <ele>592.79</ele>
        <time>2011-04-07T07:13:12Z</time>
      </trkpt>
      <trkpt lat="44.77007" lon="4.57012">
        <ele>592.79</ele>
        <time>2011-04-07T07:13:21Z</time>
      </trkpt>
      <trkpt lat="44.77006" lon="4.56997">
        <ele>592.79</ele>
        <time>2011-04-07T07:13:29Z</time>
      </trkpt>
      <trkpt lat="44.77007" lon="4.56984">
        <ele>592.31</ele>
        <time>2011-04-07T07:13:38Z</time>
      </trkpt>
      <trkpt lat="44.77005" lon="4.56963">
        <ele>591.83</ele>
        <time>2011-04-07T07:13:49Z</time>
      </trkpt>
      <trkpt lat="44.77005" lon="4.56948">
        <ele>591.83</ele>
        <time>2011-04-07T07:13:59Z</time>
      </trkpt>
      <trkpt lat="44.77003" lon="4.56928">
        <ele>591.35</ele>
        <time>2011-04-07T07:14:11Z</time>
      </trkpt>
      <trkpt lat="44.77003" lon="4.56913">
        <ele>591.83</ele>
        <time>2011-04-07T07:14:20Z</time>
      </trkpt>
      <trkpt lat="44.77001" lon="4.56899">
        <ele>592.31</ele>
        <time>2011-04-07T07:14:29Z</time>
      </trkpt>
      <trkpt lat="44.77001" lon="4.56884">
        <ele>592.31</ele>
        <time>2011-04-07T07:14:38Z</time>
      </trkpt>
      <trkpt lat="44.77" lon="4.56872">
        <ele>592.31</ele>
        <time>2011-04-07T07:14:47Z</time>
      </trkpt>
      <trkpt lat="44.76998" lon="4.56856">
        <ele>592.31</ele>
        <time>2011-04-07T07:14:56Z</time>
      </trkpt>
      <trkpt lat="44.76997" lon="4.56835">
        <ele>592.79</ele>
        <time>2011-04-07T07:15:08Z</time>
      </trkpt>
      <trkpt lat="44.76996" lon="4.56816">
        <ele>592.31</ele>
        <time>2011-04-07T07:15:19Z</time>
      </trkpt>
      <trkpt lat="44.76996" lon="4.56797">
        <ele>592.31</ele>
        <time>2011-04-07T07:15:30Z</time>
      </trkpt>
      <trkpt lat="44.76993" lon="4.5678">
        <ele>592.79</ele>
        <time>2011-04-07T07:15:39Z</time>
      </trkpt>
      <trkpt lat="44.76992" lon="4.56762">
        <ele>592.31</ele>
        <time>2011-04-07T07:15:50Z</time>
      </trkpt>
      <trkpt lat="44.76993" lon="4.56747">
        <ele>592.79</ele>
        <time>2011-04-07T07:15:59Z</time>
      </trkpt>
      <trkpt lat="44.76996" lon="4.56744">
        <ele>592.79</ele>
        <time>2011-04-07T07:16:02Z</time>
      </trkpt>
      <trkpt lat="44.77005" lon="4.56738">
        <ele>594.23</ele>
        <time>2011-04-07T07:16:12Z</time>
      </trkpt>
      <trkpt lat="44.77011" lon="4.5674">
        <ele>594.71</ele>
        <time>2011-04-07T07:16:18Z</time>
      </trkpt>
      <trkpt lat="44.77019" lon="4.56741">
        <ele>595.67</ele>
        <time>2011-04-07T07:16:26Z</time>
      </trkpt>
      <trkpt lat="44.7703" lon="4.56738">
        <ele>596.64</ele>
        <time>2011-04-07T07:16:35Z</time>
      </trkpt>
      <trkpt lat="44.77035" lon="4.56738">
        <ele>598.08</ele>
        <time>2011-04-07T07:16:44Z</time>
      </trkpt>
      <trkpt lat="44.77049" lon="4.56739">
        <ele>599.04</ele>
        <time>2011-04-07T07:16:54Z</time>
      </trkpt>
      <trkpt lat="44.77058" lon="4.56739">
        <ele>600.48</ele>
        <time>2011-04-07T07:17:04Z</time>
      </trkpt>
      <trkpt lat="44.77068" lon="4.5674">
        <ele>600.96</ele>
        <time>2011-04-07T07:17:11Z</time>
      </trkpt>
      <trkpt lat="44.77076" lon="4.5674">
        <ele>602.4</ele>
        <time>2011-04-07T07:17:20Z</time>
      </trkpt>
      <trkpt lat="44.77087" lon="4.56741">
        <ele>603.36</ele>
        <time>2011-04-07T07:17:29Z</time>
      </trkpt>
      <trkpt lat="44.77097" lon="4.56743">
        <ele>603.85</ele>
        <time>2011-04-07T07:17:37Z</time>
      </trkpt>
      <trkpt lat="44.77104" lon="4.56743">
        <ele>605.29</ele>
        <time>2011-04-07T07:17:45Z</time>
      </trkpt>
      <trkpt lat="44.77114" lon="4.56745">
        <ele>605.77</ele>
        <time>2011-04-07T07:17:52Z</time>
      </trkpt>
      <trkpt lat="44.77122" lon="4.56744">
        <ele>606.25</ele>
        <time>2011-04-07T07:18:01Z</time>
      </trkpt>
      <trkpt lat="44.77123" lon="4.56744">
        <ele>606.25</ele>
        <time>2011-04-07T07:18:02Z</time>
      </trkpt>
      <trkpt lat="44.77134" lon="4.56748">
        <ele>607.69</ele>
        <time>2011-04-07T07:18:12Z</time>
      </trkpt>
      <trkpt lat="44.77141" lon="4.56743">
        <ele>608.65</ele>
        <time>2011-04-07T07:18:19Z</time>
      </trkpt>
      <trkpt lat="44.7715" lon="4.5674">
        <ele>609.13</ele>
        <time>2011-04-07T07:18:27Z</time>
      </trkpt>
      <trkpt lat="44.77153" lon="4.56738">
        <ele>609.61</ele>
        <time>2011-04-07T07:18:30Z</time>
      </trkpt>
      <trkpt lat="44.77156" lon="4.56739">
        <ele>610.09</ele>
        <time>2011-04-07T07:18:32Z</time>
      </trkpt>
      <trkpt lat="44.77162" lon="4.56736">
        <ele>610.57</ele>
        <time>2011-04-07T07:18:37Z</time>
      </trkpt>
      <trkpt lat="44.77163" lon="4.56734">
        <ele>610.57</ele>
        <time>2011-04-07T07:18:39Z</time>
      </trkpt>
      <trkpt lat="44.77169" lon="4.56732">
        <ele>611.54</ele>
        <time>2011-04-07T07:18:47Z</time>
      </trkpt>
      <trkpt lat="44.77176" lon="4.56732">
        <ele>612.5</ele>
        <time>2011-04-07T07:18:53Z</time>
      </trkpt>
      <trkpt lat="44.77186" lon="4.56727">
        <ele>613.46</ele>
        <time>2011-04-07T07:19:02Z</time>
      </trkpt>
      <trkpt lat="44.77194" lon="4.56723">
        <ele>614.9</ele>
        <time>2011-04-07T07:19:10Z</time>
      </trkpt>
      <trkpt lat="44.77198" lon="4.56717">
        <ele>616.34</ele>
        <time>2011-04-07T07:19:15Z</time>
      </trkpt>
      <trkpt lat="44.77202" lon="4.56717">
        <ele>615.86</ele>
        <time>2011-04-07T07:19:17Z</time>
      </trkpt>
      <trkpt lat="44.77206" lon="4.56712">
        <ele>617.3</ele>
        <time>2011-04-07T07:19:21Z</time>
      </trkpt>
      <trkpt lat="44.77208" lon="4.56707">
        <ele>617.78</ele>
        <time>2011-04-07T07:19:26Z</time>
      </trkpt>
      <trkpt lat="44.77215" lon="4.567">
        <ele>618.75</ele>
        <time>2011-04-07T07:19:34Z</time>
      </trkpt>
      <trkpt lat="44.77216" lon="4.56699">
        <ele>618.75</ele>
        <time>2011-04-07T07:19:37Z</time>
      </trkpt>
      <trkpt lat="44.77222" lon="4.56697">
        <ele>619.23</ele>
        <time>2011-04-07T07:19:40Z</time>
      </trkpt>
      <trkpt lat="44.77227" lon="4.56693">
        <ele>620.67</ele>
        <time>2011-04-07T07:19:48Z</time>
      </trkpt>
      <trkpt lat="44.77234" lon="4.56689">
        <ele>620.67</ele>
        <time>2011-04-07T07:19:53Z</time>
      </trkpt>
      <trkpt lat="44.77238" lon="4.56685">
        <ele>620.67</ele>
        <time>2011-04-07T07:19:59Z</time>
      </trkpt>
      <trkpt lat="44.77239" lon="4.56683">
        <ele>621.15</ele>
        <time>2011-04-07T07:20:07Z</time>
      </trkpt>
      <trkpt lat="44.77239" lon="4.56682">
        <ele>621.63</ele>
        <time>2011-04-07T07:20:13Z</time>
      </trkpt>
      <trkpt lat="44.77245" lon="4.56679">
        <ele>621.15</ele>
        <time>2011-04-07T07:20:20Z</time>
      </trkpt>
      <trkpt lat="44.77245" lon="4.56675">
        <ele>621.63</ele>
        <time>2011-04-07T07:20:21Z</time>
      </trkpt>
      <trkpt lat="44.7725" lon="4.56665">
        <ele>622.11</ele>
        <time>2011-04-07T07:20:26Z</time>
      </trkpt>
      <trkpt lat="44.77257" lon="4.56661">
        <ele>622.59</ele>
        <time>2011-04-07T07:20:33Z</time>
      </trkpt>
      <trkpt lat="44.7726" lon="4.56656">
        <ele>622.59</ele>
        <time>2011-04-07T07:20:37Z</time>
      </trkpt>
      <trkpt lat="44.77266" lon="4.56654">
        <ele>623.07</ele>
        <time>2011-04-07T07:20:40Z</time>
      </trkpt>
      <trkpt lat="44.7727" lon="4.56644">
        <ele>623.55</ele>
        <time>2011-04-07T07:20:47Z</time>
      </trkpt>
      <trkpt lat="44.77275" lon="4.56634">
        <ele>624.51</ele>
        <time>2011-04-07T07:20:56Z</time>
      </trkpt>
      <trkpt lat="44.77276" lon="4.56622">
        <ele>625.47</ele>
        <time>2011-04-07T07:21:03Z</time>
      </trkpt>
      <trkpt lat="44.77275" lon="4.56623">
        <ele>624.99</ele>
        <time>2011-04-07T07:21:08Z</time>
      </trkpt>
      <trkpt lat="44.77289" lon="4.56614">
        <ele>626.44</ele>
        <time>2011-04-07T07:21:17Z</time>
      </trkpt>
      <trkpt lat="44.77296" lon="4.56606">
        <ele>627.4</ele>
        <time>2011-04-07T07:21:24Z</time>
      </trkpt>
      <trkpt lat="44.77298" lon="4.56601">
        <ele>627.88</ele>
        <time>2011-04-07T07:21:29Z</time>
      </trkpt>
      <trkpt lat="44.77302" lon="4.56594">
        <ele>628.84</ele>
        <time>2011-04-07T07:21:36Z</time>
      </trkpt>
      <trkpt lat="44.77302" lon="4.56592">
        <ele>628.36</ele>
        <time>2011-04-07T07:21:37Z</time>
      </trkpt>
      <trkpt lat="44.7731" lon="4.56582">
        <ele>629.32</ele>
        <time>2011-04-07T07:21:45Z</time>
      </trkpt>
      <trkpt lat="44.77309" lon="4.56581">
        <ele>629.8</ele>
        <time>2011-04-07T07:21:46Z</time>
      </trkpt>
      <trkpt lat="44.77317" lon="4.56574">
        <ele>629.8</ele>
        <time>2011-04-07T07:21:52Z</time>
      </trkpt>
      <trkpt lat="44.77318" lon="4.56565">
        <ele>629.8</ele>
        <time>2011-04-07T07:21:58Z</time>
      </trkpt>
      <trkpt lat="44.77324" lon="4.56558">
        <ele>630.28</ele>
        <time>2011-04-07T07:22:04Z</time>
      </trkpt>
      <trkpt lat="44.7733" lon="4.5655">
        <ele>631.24</ele>
        <time>2011-04-07T07:22:12Z</time>
      </trkpt>
      <trkpt lat="44.77337" lon="4.56543">
        <ele>632.2</ele>
        <time>2011-04-07T07:22:19Z</time>
      </trkpt>
      <trkpt lat="44.77346" lon="4.56535">
        <ele>632.2</ele>
        <time>2011-04-07T07:22:27Z</time>
      </trkpt>
      <trkpt lat="44.77352" lon="4.56528">
        <ele>632.68</ele>
        <time>2011-04-07T07:22:34Z</time>
      </trkpt>
      <trkpt lat="44.77354" lon="4.56523">
        <ele>632.68</ele>
        <time>2011-04-07T07:22:40Z</time>
      </trkpt>
      <trkpt lat="44.77355" lon="4.5652">
        <ele>633.17</ele>
        <time>2011-04-07T07:22:43Z</time>
      </trkpt>
      <trkpt lat="44.77359" lon="4.56518">
        <ele>633.17</ele>
        <time>2011-04-07T07:22:47Z</time>
      </trkpt>
      <trkpt lat="44.77364" lon="4.56514">
        <ele>633.17</ele>
        <time>2011-04-07T07:22:50Z</time>
      </trkpt>
      <trkpt lat="44.77369" lon="4.56502">
        <ele>633.17</ele>
        <time>2011-04-07T07:22:57Z</time>
      </trkpt>
      <trkpt lat="44.77376" lon="4.56498">
        <ele>633.17</ele>
        <time>2011-04-07T07:23:04Z</time>
      </trkpt>
      <trkpt lat="44.77387" lon="4.56491">
        <ele>634.13</ele>
        <time>2011-04-07T07:23:12Z</time>
      </trkpt>
      <trkpt lat="44.77389" lon="4.56487">
        <ele>634.13</ele>
        <time>2011-04-07T07:23:20Z</time>
      </trkpt>
      <trkpt lat="44.77395" lon="4.56476">
        <ele>634.61</ele>
        <time>2011-04-07T07:23:26Z</time>
      </trkpt>
      <trkpt lat="44.77395" lon="4.56473">
        <ele>634.61</ele>
        <time>2011-04-07T07:23:27Z</time>
      </trkpt>
      <trkpt lat="44.77409" lon="4.5647">
        <ele>635.57</ele>
        <time>2011-04-07T07:23:35Z</time>
      </trkpt>
      <trkpt lat="44.77409" lon="4.56469">
        <ele>635.09</ele>
        <time>2011-04-07T07:23:36Z</time>
      </trkpt>
      <trkpt lat="44.77415" lon="4.5646">
        <ele>635.57</ele>
        <time>2011-04-07T07:23:44Z</time>
      </trkpt>
      <trkpt lat="44.77418" lon="4.56455">
        <ele>635.57</ele>
        <time>2011-04-07T07:23:50Z</time>
      </trkpt>
      <trkpt lat="44.77428" lon="4.56442">
        <ele>636.05</ele>
        <time>2011-04-07T07:23:59Z</time>
      </trkpt>
      <trkpt lat="44.77428" lon="4.56441">
        <ele>636.05</ele>
        <time>2011-04-07T07:24:00Z</time>
      </trkpt>
      <trkpt lat="44.77431" lon="4.56441">
        <ele>636.05</ele>
        <time>2011-04-07T07:24:03Z</time>
      </trkpt>
      <trkpt lat="44.77438" lon="4.56436">
        <ele>637.01</ele>
        <time>2011-04-07T07:24:08Z</time>
      </trkpt>
      <trkpt lat="44.77443" lon="4.56429">
        <ele>637.01</ele>
        <time>2011-04-07T07:24:12Z</time>
      </trkpt>
      <trkpt lat="44.77445" lon="4.56431">
        <ele>637.49</ele>
        <time>2011-04-07T07:24:16Z</time>
      </trkpt>
      <trkpt lat="44.77456" lon="4.56433">
        <ele>638.45</ele>
        <time>2011-04-07T07:24:24Z</time>
      </trkpt>
      <trkpt lat="44.77461" lon="4.56432">
        <ele>639.41</ele>
        <time>2011-04-07T07:24:30Z</time>
      </trkpt>
      <trkpt lat="44.77467" lon="4.56426">
        <ele>640.86</ele>
        <time>2011-04-07T07:24:38Z</time>
      </trkpt>
      <trkpt lat="44.77471" lon="4.56419">
        <ele>641.34</ele>
        <time>2011-04-07T07:24:43Z</time>
      </trkpt>
      <trkpt lat="44.77475" lon="4.56415">
        <ele>641.82</ele>
        <time>2011-04-07T07:24:50Z</time>
      </trkpt>
      <trkpt lat="44.77483" lon="4.56413">
        <ele>641.82</ele>
        <time>2011-04-07T07:24:57Z</time>
      </trkpt>
      <trkpt lat="44.77486" lon="4.56412">
        <ele>642.3</ele>
        <time>2011-04-07T07:25:04Z</time>
      </trkpt>
      <trkpt lat="44.77497" lon="4.56402">
        <ele>643.26</ele>
        <time>2011-04-07T07:25:12Z</time>
      </trkpt>
      <trkpt lat="44.77498" lon="4.56405">
        <ele>643.26</ele>
        <time>2011-04-07T07:25:14Z</time>
      </trkpt>
      <trkpt lat="44.77504" lon="4.56398">
        <ele>643.74</ele>
        <time>2011-04-07T07:25:21Z</time>
      </trkpt>
      <trkpt lat="44.77515" lon="4.56391">
        <ele>643.74</ele>
        <time>2011-04-07T07:25:29Z</time>
      </trkpt>
      <trkpt lat="44.77521" lon="4.56392">
        <ele>644.7</ele>
        <time>2011-04-07T07:25:35Z</time>
      </trkpt>
      <trkpt lat="44.77521" lon="4.56387">
        <ele>644.7</ele>
        <time>2011-04-07T07:25:42Z</time>
      </trkpt>
      <trkpt lat="44.77525" lon="4.56387">
        <ele>644.7</ele>
        <time>2011-04-07T07:25:44Z</time>
      </trkpt>
      <trkpt lat="44.77535" lon="4.56383">
        <ele>645.18</ele>
        <time>2011-04-07T07:25:52Z</time>
      </trkpt>
      <trkpt lat="44.77543" lon="4.56369">
        <ele>644.7</ele>
        <time>2011-04-07T07:25:59Z</time>
      </trkpt>
      <trkpt lat="44.77544" lon="4.5636">
        <ele>645.18</ele>
        <time>2011-04-07T07:26:04Z</time>
      </trkpt>
      <trkpt lat="44.77551" lon="4.56357">
        <ele>645.66</ele>
        <time>2011-04-07T07:26:11Z</time>
      </trkpt>
      <trkpt lat="44.77555" lon="4.56347">
        <ele>646.62</ele>
        <time>2011-04-07T07:26:19Z</time>
      </trkpt>
      <trkpt lat="44.77561" lon="4.56345">
        <ele>647.1</ele>
        <time>2011-04-07T07:26:25Z</time>
      </trkpt>
      <trkpt lat="44.77565" lon="4.56339">
        <ele>647.59</ele>
        <time>2011-04-07T07:26:30Z</time>
      </trkpt>
      <trkpt lat="44.77569" lon="4.56331">
        <ele>648.07</ele>
        <time>2011-04-07T07:26:36Z</time>
      </trkpt>
      <trkpt lat="44.77571" lon="4.56329">
        <ele>649.03</ele>
        <time>2011-04-07T07:26:42Z</time>
      </trkpt>
      <trkpt lat="44.77578" lon="4.56314">
        <ele>649.99</ele>
        <time>2011-04-07T07:26:49Z</time>
      </trkpt>
      <trkpt lat="44.77576" lon="4.56311">
        <ele>650.47</ele>
        <time>2011-04-07T07:26:53Z</time>
      </trkpt>
      <trkpt lat="44.77586" lon="4.56305">
        <ele>651.43</ele>
        <time>2011-04-07T07:27:01Z</time>
      </trkpt>
      <trkpt lat="44.77586" lon="4.56299">
        <ele>652.39</ele>
        <time>2011-04-07T07:27:10Z</time>
      </trkpt>
      <trkpt lat="44.77587" lon="4.56291">
        <ele>652.87</ele>
        <time>2011-04-07T07:27:16Z</time>
      </trkpt>
      <trkpt lat="44.77595" lon="4.5628">
        <ele>653.83</ele>
        <time>2011-04-07T07:27:23Z</time>
      </trkpt>
      <trkpt lat="44.77594" lon="4.56271">
        <ele>654.31</ele>
        <time>2011-04-07T07:27:30Z</time>
      </trkpt>
      <trkpt lat="44.77599" lon="4.56275">
        <ele>655.28</ele>
        <time>2011-04-07T07:27:35Z</time>
      </trkpt>
      <trkpt lat="44.77603" lon="4.56265">
        <ele>656.24</ele>
        <time>2011-04-07T07:27:41Z</time>
      </trkpt>
      <trkpt lat="44.77605" lon="4.56262">
        <ele>657.2</ele>
        <time>2011-04-07T07:27:47Z</time>
      </trkpt>
      <trkpt lat="44.7761" lon="4.56257">
        <ele>657.68</ele>
        <time>2011-04-07T07:27:54Z</time>
      </trkpt>
      <trkpt lat="44.77611" lon="4.56254">
        <ele>658.16</ele>
        <time>2011-04-07T07:28:08Z</time>
      </trkpt>
      <trkpt lat="44.77609" lon="4.56252">
        <ele>658.16</ele>
        <time>2011-04-07T07:28:13Z</time>
      </trkpt>
      <trkpt lat="44.77612" lon="4.56253">
        <ele>658.64</ele>
        <time>2011-04-07T07:28:20Z</time>
      </trkpt>
      <trkpt lat="44.77614" lon="4.56253">
        <ele>658.64</ele>
        <time>2011-04-07T07:28:24Z</time>
      </trkpt>
      <trkpt lat="44.77623" lon="4.56255">
        <ele>659.6</ele>
        <time>2011-04-07T07:28:29Z</time>
      </trkpt>
      <trkpt lat="44.77619" lon="4.56249">
        <ele>660.08</ele>
        <time>2011-04-07T07:28:32Z</time>
      </trkpt>
      <trkpt lat="44.77627" lon="4.56248">
        <ele>661.04</ele>
        <time>2011-04-07T07:28:40Z</time>
      </trkpt>
      <trkpt lat="44.77627" lon="4.56244">
        <ele>661.04</ele>
        <time>2011-04-07T07:28:44Z</time>
      </trkpt>
      <trkpt lat="44.77632" lon="4.56244">
        <ele>662.01</ele>
        <time>2011-04-07T07:28:48Z</time>
      </trkpt>
      <trkpt lat="44.77637" lon="4.5624">
        <ele>662.97</ele>
        <time>2011-04-07T07:28:54Z</time>
      </trkpt>
      <trkpt lat="44.77639" lon="4.56238">
        <ele>663.45</ele>
        <time>2011-04-07T07:28:59Z</time>
      </trkpt>
      <trkpt lat="44.77647" lon="4.56235">
        <ele>664.89</ele>
        <time>2011-04-07T07:29:07Z</time>
      </trkpt>
      <trkpt lat="44.77652" lon="4.56238">
        <ele>665.37</ele>
        <time>2011-04-07T07:29:12Z</time>
      </trkpt>
      <trkpt lat="44.77658" lon="4.56233">
        <ele>665.85</ele>
        <time>2011-04-07T07:29:19Z</time>
      </trkpt>
      <trkpt lat="44.7766" lon="4.56231">
        <ele>666.81</ele>
        <time>2011-04-07T07:29:22Z</time>
      </trkpt>
      <trkpt lat="44.77666" lon="4.56228">
        <ele>666.81</ele>
        <time>2011-04-07T07:29:27Z</time>
      </trkpt>
      <trkpt lat="44.77671" lon="4.56227">
        <ele>668.25</ele>
        <time>2011-04-07T07:29:34Z</time>
      </trkpt>
      <trkpt lat="44.77671" lon="4.56226">
        <ele>668.25</ele>
        <time>2011-04-07T07:29:36Z</time>
      </trkpt>
      <trkpt lat="44.77676" lon="4.56222">
        <ele>669.22</ele>
        <time>2011-04-07T07:29:44Z</time>
      </trkpt>
      <trkpt lat="44.77682" lon="4.56222">
        <ele>669.7</ele>
        <time>2011-04-07T07:29:50Z</time>
      </trkpt>
      <trkpt lat="44.77684" lon="4.56219">
        <ele>670.66</ele>
        <time>2011-04-07T07:29:56Z</time>
      </trkpt>
      <trkpt lat="44.77689" lon="4.56212">
        <ele>671.62</ele>
        <time>2011-04-07T07:30:02Z</time>
      </trkpt>
      <trkpt lat="44.77691" lon="4.56212">
        <ele>672.1</ele>
        <time>2011-04-07T07:30:08Z</time>
      </trkpt>
      <trkpt lat="44.77693" lon="4.56211">
        <ele>672.58</ele>
        <time>2011-04-07T07:30:09Z</time>
      </trkpt>
      <trkpt lat="44.77695" lon="4.56212">
        <ele>672.58</ele>
        <time>2011-04-07T07:30:11Z</time>
      </trkpt>
      <trkpt lat="44.77703" lon="4.56217">
        <ele>674.02</ele>
        <time>2011-04-07T07:30:19Z</time>
      </trkpt>
      <trkpt lat="44.77706" lon="4.56219">
        <ele>674.02</ele>
        <time>2011-04-07T07:30:22Z</time>
      </trkpt>
      <trkpt lat="44.77713" lon="4.56217">
        <ele>674.98</ele>
        <time>2011-04-07T07:30:31Z</time>
      </trkpt>
      <trkpt lat="44.77714" lon="4.56217">
        <ele>674.5</ele>
        <time>2011-04-07T07:30:32Z</time>
      </trkpt>
      <trkpt lat="44.77719" lon="4.5621">
        <ele>675.94</ele>
        <time>2011-04-07T07:30:38Z</time>
      </trkpt>
      <trkpt lat="44.77719" lon="4.56209">
        <ele>675.94</ele>
        <time>2011-04-07T07:30:41Z</time>
      </trkpt>
      <trkpt lat="44.77722" lon="4.562">
        <ele>676.42</ele>
        <time>2011-04-07T07:30:48Z</time>
      </trkpt>
      <trkpt lat="44.77721" lon="4.56196">
        <ele>677.39</ele>
        <time>2011-04-07T07:30:53Z</time>
      </trkpt>
      <trkpt lat="44.7772" lon="4.56196">
        <ele>676.91</ele>
        <time>2011-04-07T07:31:01Z</time>
      </trkpt>
      <trkpt lat="44.77722" lon="4.56194">
        <ele>676.91</ele>
        <time>2011-04-07T07:31:36Z</time>
      </trkpt>
      <trkpt lat="44.77724" lon="4.56194">
        <ele>676.91</ele>
        <time>2011-04-07T07:31:38Z</time>
      </trkpt>
      <trkpt lat="44.77731" lon="4.56192">
        <ele>678.35</ele>
        <time>2011-04-07T07:31:43Z</time>
      </trkpt>
      <trkpt lat="44.77732" lon="4.56188">
        <ele>678.83</ele>
        <time>2011-04-07T07:31:49Z</time>
      </trkpt>
      <trkpt lat="44.77738" lon="4.56185">
        <ele>679.31</ele>
        <time>2011-04-07T07:31:55Z</time>
      </trkpt>
      <trkpt lat="44.77746" lon="4.56181">
        <ele>680.27</ele>
        <time>2011-04-07T07:32:02Z</time>
      </trkpt>
      <trkpt lat="44.77748" lon="4.56183">
        <ele>680.27</ele>
        <time>2011-04-07T07:32:03Z</time>
      </trkpt>
      <trkpt lat="44.77755" lon="4.56178">
        <ele>680.75</ele>
        <time>2011-04-07T07:32:10Z</time>
      </trkpt>
      <trkpt lat="44.77757" lon="4.56173">
        <ele>682.67</ele>
        <time>2011-04-07T07:32:18Z</time>
      </trkpt>
      <trkpt lat="44.77765" lon="4.56169">
        <ele>683.15</ele>
        <time>2011-04-07T07:32:25Z</time>
      </trkpt>
      <trkpt lat="44.77765" lon="4.56168">
        <ele>683.15</ele>
        <time>2011-04-07T07:32:27Z</time>
      </trkpt>
      <trkpt lat="44.77771" lon="4.56161">
        <ele>684.6</ele>
        <time>2011-04-07T07:32:35Z</time>
      </trkpt>
      <trkpt lat="44.77775" lon="4.56157">
        <ele>684.6</ele>
        <time>2011-04-07T07:32:40Z</time>
      </trkpt>
      <trkpt lat="44.77782" lon="4.56157">
        <ele>686.04</ele>
        <time>2011-04-07T07:32:46Z</time>
      </trkpt>
      <trkpt lat="44.77783" lon="4.56151">
        <ele>687</ele>
        <time>2011-04-07T07:32:53Z</time>
      </trkpt>
      <trkpt lat="44.77792" lon="4.56149">
        <ele>687.96</ele>
        <time>2011-04-07T07:33:00Z</time>
      </trkpt>
      <trkpt lat="44.77798" lon="4.56148">
        <ele>688.44</ele>
        <time>2011-04-07T07:33:06Z</time>
      </trkpt>
      <trkpt lat="44.77801" lon="4.5615">
        <ele>688.92</ele>
        <time>2011-04-07T07:33:08Z</time>
      </trkpt>
      <trkpt lat="44.77807" lon="4.56151">
        <ele>690.36</ele>
        <time>2011-04-07T07:33:16Z</time>
      </trkpt>
      <trkpt lat="44.77811" lon="4.56153">
        <ele>691.33</ele>
        <time>2011-04-07T07:33:23Z</time>
      </trkpt>
      <trkpt lat="44.77816" lon="4.56149">
        <ele>692.29</ele>
        <time>2011-04-07T07:33:29Z</time>
      </trkpt>
      <trkpt lat="44.7782" lon="4.56151">
        <ele>692.77</ele>
        <time>2011-04-07T07:33:33Z</time>
      </trkpt>
      <trkpt lat="44.77828" lon="4.56147">
        <ele>694.21</ele>
        <time>2011-04-07T07:33:42Z</time>
      </trkpt>
      <trkpt lat="44.7783" lon="4.56141">
        <ele>695.65</ele>
        <time>2011-04-07T07:33:49Z</time>
      </trkpt>
      <trkpt lat="44.77835" lon="4.56134">
        <ele>696.13</ele>
        <time>2011-04-07T07:33:54Z</time>
      </trkpt>
      <trkpt lat="44.77837" lon="4.56133">
        <ele>697.09</ele>
        <time>2011-04-07T07:33:58Z</time>
      </trkpt>
      <trkpt lat="44.7784" lon="4.56127">
        <ele>698.05</ele>
        <time>2011-04-07T07:34:06Z</time>
      </trkpt>
      <trkpt lat="44.77846" lon="4.5612">
        <ele>699.02</ele>
        <time>2011-04-07T07:34:13Z</time>
      </trkpt>
      <trkpt lat="44.77845" lon="4.56119">
        <ele>698.53</ele>
        <time>2011-04-07T07:34:15Z</time>
      </trkpt>
      <trkpt lat="44.77847" lon="4.56111">
        <ele>699.5</ele>
        <time>2011-04-07T07:34:22Z</time>
      </trkpt>
      <trkpt lat="44.77848" lon="4.56108">
        <ele>699.98</ele>
        <time>2011-04-07T07:34:25Z</time>
      </trkpt>
      <trkpt lat="44.77854" lon="4.561">
        <ele>701.42</ele>
        <time>2011-04-07T07:34:32Z</time>
      </trkpt>
      <trkpt lat="44.77852" lon="4.56097">
        <ele>701.9</ele>
        <time>2011-04-07T07:34:36Z</time>
      </trkpt>
      <trkpt lat="44.7786" lon="4.56089">
        <ele>701.9</ele>
        <time>2011-04-07T07:34:41Z</time>
      </trkpt>
      <trkpt lat="44.77862" lon="4.56074">
        <ele>702.38</ele>
        <time>2011-04-07T07:34:50Z</time>
      </trkpt>
      <trkpt lat="44.77862" lon="4.56063">
        <ele>702.86</ele>
        <time>2011-04-07T07:34:55Z</time>
      </trkpt>
      <trkpt lat="44.77865" lon="4.56061">
        <ele>702.86</ele>
        <time>2011-04-07T07:35:02Z</time>
      </trkpt>
      <trkpt lat="44.77868" lon="4.56051">
        <ele>704.3</ele>
        <time>2011-04-07T07:35:09Z</time>
      </trkpt>
      <trkpt lat="44.77871" lon="4.5604">
        <ele>704.3</ele>
        <time>2011-04-07T07:35:17Z</time>
      </trkpt>
      <trkpt lat="44.77873" lon="4.56021">
        <ele>704.78</ele>
        <time>2011-04-07T07:35:27Z</time>
      </trkpt>
      <trkpt lat="44.77872" lon="4.56013">
        <ele>705.26</ele>
        <time>2011-04-07T07:35:34Z</time>
      </trkpt>
      <trkpt lat="44.77875" lon="4.55998">
        <ele>705.75</ele>
        <time>2011-04-07T07:35:44Z</time>
      </trkpt>
      <trkpt lat="44.77876" lon="4.55993">
        <ele>705.26</ele>
        <time>2011-04-07T07:35:47Z</time>
      </trkpt>
      <trkpt lat="44.77877" lon="4.55982">
        <ele>705.75</ele>
        <time>2011-04-07T07:35:55Z</time>
      </trkpt>
      <trkpt lat="44.77877" lon="4.55967">
        <ele>705.75</ele>
        <time>2011-04-07T07:36:02Z</time>
      </trkpt>
      <trkpt lat="44.77876" lon="4.55957">
        <ele>706.23</ele>
        <time>2011-04-07T07:36:11Z</time>
      </trkpt>
      <trkpt lat="44.7788" lon="4.55948">
        <ele>707.19</ele>
        <time>2011-04-07T07:36:18Z</time>
      </trkpt>
      <trkpt lat="44.77879" lon="4.55935">
        <ele>708.15</ele>
        <time>2011-04-07T07:36:24Z</time>
      </trkpt>
      <trkpt lat="44.77881" lon="4.55934">
        <ele>708.63</ele>
        <time>2011-04-07T07:36:26Z</time>
      </trkpt>
      <trkpt lat="44.77883" lon="4.5592">
        <ele>709.11</ele>
        <time>2011-04-07T07:36:36Z</time>
      </trkpt>
      <trkpt lat="44.77883" lon="4.55908">
        <ele>709.59</ele>
        <time>2011-04-07T07:36:44Z</time>
      </trkpt>
      <trkpt lat="44.77883" lon="4.55906">
        <ele>709.59</ele>
        <time>2011-04-07T07:36:47Z</time>
      </trkpt>
      <trkpt lat="44.77884" lon="4.55889">
        <ele>710.55</ele>
        <time>2011-04-07T07:36:57Z</time>
      </trkpt>
      <trkpt lat="44.77886" lon="4.55888">
        <ele>711.03</ele>
        <time>2011-04-07T07:36:58Z</time>
      </trkpt>
      <trkpt lat="44.77886" lon="4.55876">
        <ele>711.51</ele>
        <time>2011-04-07T07:37:06Z</time>
      </trkpt>
      <trkpt lat="44.7789" lon="4.55871">
        <ele>711.03</ele>
        <time>2011-04-07T07:37:09Z</time>
      </trkpt>
      <trkpt lat="44.77891" lon="4.55864">
        <ele>711.99</ele>
        <time>2011-04-07T07:37:14Z</time>
      </trkpt>
      <trkpt lat="44.7789" lon="4.55858">
        <ele>712.47</ele>
        <time>2011-04-07T07:37:18Z</time>
      </trkpt>
      <trkpt lat="44.7789" lon="4.55857">
        <ele>712.95</ele>
        <time>2011-04-07T07:37:20Z</time>
      </trkpt>
      <trkpt lat="44.77893" lon="4.55852">
        <ele>712.95</ele>
        <time>2011-04-07T07:37:23Z</time>
      </trkpt>
      <trkpt lat="44.77893" lon="4.55849">
        <ele>712.95</ele>
        <time>2011-04-07T07:37:26Z</time>
      </trkpt>
      <trkpt lat="44.77894" lon="4.55839">
        <ele>713.44</ele>
        <time>2011-04-07T07:37:33Z</time>
      </trkpt>
      <trkpt lat="44.77893" lon="4.55836">
        <ele>713.44</ele>
        <time>2011-04-07T07:37:35Z</time>
      </trkpt>
      <trkpt lat="44.77895" lon="4.55832">
        <ele>713.44</ele>
        <time>2011-04-07T07:37:37Z</time>
      </trkpt>
      <trkpt lat="44.77901" lon="4.55825">
        <ele>714.4</ele>
        <time>2011-04-07T07:37:44Z</time>
      </trkpt>
      <trkpt lat="44.77902" lon="4.55815">
        <ele>714.4</ele>
        <time>2011-04-07T07:37:51Z</time>
      </trkpt>
      <trkpt lat="44.77909" lon="4.55805">
        <ele>714.88</ele>
        <time>2011-04-07T07:37:58Z</time>
      </trkpt>
      <trkpt lat="44.77909" lon="4.558">
        <ele>715.36</ele>
        <time>2011-04-07T07:38:00Z</time>
      </trkpt>
      <trkpt lat="44.77909" lon="4.5579">
        <ele>715.84</ele>
        <time>2011-04-07T07:38:07Z</time>
      </trkpt>
      <trkpt lat="44.77907" lon="4.55778">
        <ele>716.8</ele>
        <time>2011-04-07T07:38:14Z</time>
      </trkpt>
      <trkpt lat="44.77907" lon="4.55773">
        <ele>717.28</ele>
        <time>2011-04-07T07:38:17Z</time>
      </trkpt>
      <trkpt lat="44.77907" lon="4.55769">
        <ele>717.76</ele>
        <time>2011-04-07T07:38:22Z</time>
      </trkpt>
      <trkpt lat="44.77905" lon="4.5576">
        <ele>718.72</ele>
        <time>2011-04-07T07:38:30Z</time>
      </trkpt>
      <trkpt lat="44.77904" lon="4.55753">
        <ele>720.16</ele>
        <time>2011-04-07T07:38:36Z</time>
      </trkpt>
      <trkpt lat="44.77902" lon="4.55739">
        <ele>720.65</ele>
        <time>2011-04-07T07:38:44Z</time>
      </trkpt>
      <trkpt lat="44.77902" lon="4.55731">
        <ele>722.09</ele>
        <time>2011-04-07T07:38:51Z</time>
      </trkpt>
      <trkpt lat="44.77899" lon="4.55725">
        <ele>722.09</ele>
        <time>2011-04-07T07:38:57Z</time>
      </trkpt>
      <trkpt lat="44.77897" lon="4.55719">
        <ele>723.53</ele>
        <time>2011-04-07T07:39:04Z</time>
      </trkpt>
      <trkpt lat="44.779" lon="4.5571">
        <ele>724.97</ele>
        <time>2011-04-07T07:39:11Z</time>
      </trkpt>
      <trkpt lat="44.77902" lon="4.55709">
        <ele>725.45</ele>
        <time>2011-04-07T07:39:17Z</time>
      </trkpt>
      <trkpt lat="44.779" lon="4.55699">
        <ele>725.93</ele>
        <time>2011-04-07T07:39:24Z</time>
      </trkpt>
      <trkpt lat="44.77896" lon="4.55687">
        <ele>726.41</ele>
        <time>2011-04-07T07:39:34Z</time>
      </trkpt>
      <trkpt lat="44.77895" lon="4.55677">
        <ele>727.37</ele>
        <time>2011-04-07T07:39:41Z</time>
      </trkpt>
      <trkpt lat="44.77897" lon="4.55672">
        <ele>727.86</ele>
        <time>2011-04-07T07:39:46Z</time>
      </trkpt>
      <trkpt lat="44.77899" lon="4.55662">
        <ele>728.82</ele>
        <time>2011-04-07T07:39:54Z</time>
      </trkpt>
      <trkpt lat="44.779" lon="4.55655">
        <ele>730.26</ele>
        <time>2011-04-07T07:40:00Z</time>
      </trkpt>
      <trkpt lat="44.77905" lon="4.55649">
        <ele>731.22</ele>
        <time>2011-04-07T07:40:05Z</time>
      </trkpt>
      <trkpt lat="44.77908" lon="4.55641">
        <ele>732.18</ele>
        <time>2011-04-07T07:40:12Z</time>
      </trkpt>
      <trkpt lat="44.77913" lon="4.55633">
        <ele>732.66</ele>
        <time>2011-04-07T07:40:19Z</time>
      </trkpt>
      <trkpt lat="44.77912" lon="4.55633">
        <ele>732.66</ele>
        <time>2011-04-07T07:40:21Z</time>
      </trkpt>
      <trkpt lat="44.7792" lon="4.55624">
        <ele>732.66</ele>
        <time>2011-04-07T07:40:31Z</time>
      </trkpt>
      <trkpt lat="44.77927" lon="4.55616">
        <ele>733.14</ele>
        <time>2011-04-07T07:40:39Z</time>
      </trkpt>
      <trkpt lat="44.7793" lon="4.55618">
        <ele>733.14</ele>
        <time>2011-04-07T07:40:41Z</time>
      </trkpt>
      <trkpt lat="44.77935" lon="4.55612">
        <ele>732.18</ele>
        <time>2011-04-07T07:40:50Z</time>
      </trkpt>
      <trkpt lat="44.77938" lon="4.5561">
        <ele>732.66</ele>
        <time>2011-04-07T07:40:59Z</time>
      </trkpt>
      <trkpt lat="44.77939" lon="4.55609">
        <ele>733.14</ele>
        <time>2011-04-07T07:41:06Z</time>
      </trkpt>
      <trkpt lat="44.77941" lon="4.5561">
        <ele>733.62</ele>
        <time>2011-04-07T07:44:41Z</time>
      </trkpt>
      <trkpt lat="44.77944" lon="4.55607">
        <ele>734.1</ele>
        <time>2011-04-07T07:47:15Z</time>
      </trkpt>
      <trkpt lat="44.77945" lon="4.55599">
        <ele>734.1</ele>
        <time>2011-04-07T07:49:32Z</time>
      </trkpt>
      <trkpt lat="44.77946" lon="4.55593">
        <ele>733.14</ele>
        <time>2011-04-07T07:49:40Z</time>
      </trkpt>
      <trkpt lat="44.77946" lon="4.55587">
        <ele>733.14</ele>
        <time>2011-04-07T07:49:44Z</time>
      </trkpt>
      <trkpt lat="44.77951" lon="4.55571">
        <ele>731.7</ele>
        <time>2011-04-07T07:49:55Z</time>
      </trkpt>
      <trkpt lat="44.77953" lon="4.55565">
        <ele>731.22</ele>
        <time>2011-04-07T07:50:01Z</time>
      </trkpt>
      <trkpt lat="44.77952" lon="4.5556">
        <ele>731.22</ele>
        <time>2011-04-07T07:50:04Z</time>
      </trkpt>
      <trkpt lat="44.77952" lon="4.55542">
        <ele>730.74</ele>
        <time>2011-04-07T07:50:16Z</time>
      </trkpt>
      <trkpt lat="44.77951" lon="4.55527">
        <ele>729.78</ele>
        <time>2011-04-07T07:50:27Z</time>
      </trkpt>
      <trkpt lat="44.77951" lon="4.55516">
        <ele>728.34</ele>
        <time>2011-04-07T07:50:36Z</time>
      </trkpt>
      <trkpt lat="44.77951" lon="4.55504">
        <ele>727.37</ele>
        <time>2011-04-07T07:50:45Z</time>
      </trkpt>
      <trkpt lat="44.77948" lon="4.55498">
        <ele>726.41</ele>
        <time>2011-04-07T07:50:48Z</time>
      </trkpt>
      <trkpt lat="44.77949" lon="4.55488">
        <ele>725.45</ele>
        <time>2011-04-07T07:50:56Z</time>
      </trkpt>
      <trkpt lat="44.7795" lon="4.55485">
        <ele>724.97</ele>
        <time>2011-04-07T07:50:59Z</time>
      </trkpt>
      <trkpt lat="44.77949" lon="4.55471">
        <ele>723.53</ele>
        <time>2011-04-07T07:51:09Z</time>
      </trkpt>
      <trkpt lat="44.7795" lon="4.55464">
        <ele>722.57</ele>
        <time>2011-04-07T07:51:14Z</time>
      </trkpt>
      <trkpt lat="44.77952" lon="4.55456">
        <ele>721.13</ele>
        <time>2011-04-07T07:51:21Z</time>
      </trkpt>
      <trkpt lat="44.77953" lon="4.55447">
        <ele>720.16</ele>
        <time>2011-04-07T07:51:30Z</time>
      </trkpt>
      <trkpt lat="44.77956" lon="4.55436">
        <ele>720.16</ele>
        <time>2011-04-07T07:51:36Z</time>
      </trkpt>
      <trkpt lat="44.77957" lon="4.55428">
        <ele>718.72</ele>
        <time>2011-04-07T07:51:44Z</time>
      </trkpt>
      <trkpt lat="44.77958" lon="4.55417">
        <ele>717.76</ele>
        <time>2011-04-07T07:51:51Z</time>
      </trkpt>
      <trkpt lat="44.77959" lon="4.55412">
        <ele>717.76</ele>
        <time>2011-04-07T07:51:55Z</time>
      </trkpt>
      <trkpt lat="44.77962" lon="4.55399">
        <ele>715.84</ele>
        <time>2011-04-07T07:52:03Z</time>
      </trkpt>
      <trkpt lat="44.77964" lon="4.55398">
        <ele>715.84</ele>
        <time>2011-04-07T07:52:05Z</time>
      </trkpt>
      <trkpt lat="44.77969" lon="4.55383">
        <ele>714.4</ele>
        <time>2011-04-07T07:52:15Z</time>
      </trkpt>
      <trkpt lat="44.77974" lon="4.55368">
        <ele>712.95</ele>
        <time>2011-04-07T07:52:25Z</time>
      </trkpt>
      <trkpt lat="44.77981" lon="4.55352">
        <ele>711.03</ele>
        <time>2011-04-07T07:52:36Z</time>
      </trkpt>
      <trkpt lat="44.77981" lon="4.55338">
        <ele>710.07</ele>
        <time>2011-04-07T07:52:44Z</time>
      </trkpt>
      <trkpt lat="44.77981" lon="4.55332">
        <ele>710.07</ele>
        <time>2011-04-07T07:52:47Z</time>
      </trkpt>
      <trkpt lat="44.77982" lon="4.55318">
        <ele>708.63</ele>
        <time>2011-04-07T07:52:56Z</time>
      </trkpt>
      <trkpt lat="44.77984" lon="4.553">
        <ele>707.19</ele>
        <time>2011-04-07T07:53:08Z</time>
      </trkpt>
      <trkpt lat="44.77986" lon="4.55287">
        <ele>706.23</ele>
        <time>2011-04-07T07:53:18Z</time>
      </trkpt>
      <trkpt lat="44.77987" lon="4.55283">
        <ele>705.75</ele>
        <time>2011-04-07T07:53:26Z</time>
      </trkpt>
      <trkpt lat="44.77986" lon="4.55279">
        <ele>705.26</ele>
        <time>2011-04-07T07:53:34Z</time>
      </trkpt>
      <trkpt lat="44.77986" lon="4.55276">
        <ele>705.26</ele>
        <time>2011-04-07T07:53:42Z</time>
      </trkpt>
      <trkpt lat="44.77988" lon="4.55272">
        <ele>704.3</ele>
        <time>2011-04-07T07:53:48Z</time>
      </trkpt>
      <trkpt lat="44.77987" lon="4.55258">
        <ele>702.86</ele>
        <time>2011-04-07T07:53:58Z</time>
      </trkpt>
      <trkpt lat="44.77989" lon="4.55241">
        <ele>700.94</ele>
        <time>2011-04-07T07:54:07Z</time>
      </trkpt>
      <trkpt lat="44.7799" lon="4.55229">
        <ele>700.46</ele>
        <time>2011-04-07T07:54:16Z</time>
      </trkpt>
      <trkpt lat="44.77989" lon="4.55216">
        <ele>699.5</ele>
        <time>2011-04-07T07:54:25Z</time>
      </trkpt>
      <trkpt lat="44.77992" lon="4.55209">
        <ele>698.53</ele>
        <time>2011-04-07T07:54:31Z</time>
      </trkpt>
      <trkpt lat="44.7799" lon="4.55204">
        <ele>698.05</ele>
        <time>2011-04-07T07:54:35Z</time>
      </trkpt>
      <trkpt lat="44.77991" lon="4.552">
        <ele>697.57</ele>
        <time>2011-04-07T07:54:37Z</time>
      </trkpt>
      <trkpt lat="44.77992" lon="4.55183">
        <ele>696.61</ele>
        <time>2011-04-07T07:54:46Z</time>
      </trkpt>
      <trkpt lat="44.77994" lon="4.55165">
        <ele>695.65</ele>
        <time>2011-04-07T07:54:56Z</time>
      </trkpt>
      <trkpt lat="44.77998" lon="4.55154">
        <ele>695.17</ele>
        <time>2011-04-07T07:55:03Z</time>
      </trkpt>
      <trkpt lat="44.77999" lon="4.55138">
        <ele>693.73</ele>
        <time>2011-04-07T07:55:10Z</time>
      </trkpt>
      <trkpt lat="44.77999" lon="4.55123">
        <ele>693.25</ele>
        <time>2011-04-07T07:55:19Z</time>
      </trkpt>
      <trkpt lat="44.78002" lon="4.55111">
        <ele>692.29</ele>
        <time>2011-04-07T07:55:27Z</time>
      </trkpt>
      <trkpt lat="44.77997" lon="4.55096">
        <ele>691.33</ele>
        <time>2011-04-07T07:55:37Z</time>
      </trkpt>
      <trkpt lat="44.77992" lon="4.55093">
        <ele>690.84</ele>
        <time>2011-04-07T07:55:41Z</time>
      </trkpt>
      <trkpt lat="44.77985" lon="4.55088">
        <ele>690.36</ele>
        <time>2011-04-07T07:55:46Z</time>
      </trkpt>
      <trkpt lat="44.77977" lon="4.55083">
        <ele>689.4</ele>
        <time>2011-04-07T07:55:55Z</time>
      </trkpt>
      <trkpt lat="44.7797" lon="4.55076">
        <ele>688.92</ele>
        <time>2011-04-07T07:56:02Z</time>
      </trkpt>
      <trkpt lat="44.77961" lon="4.55072">
        <ele>688.44</ele>
        <time>2011-04-07T07:56:09Z</time>
      </trkpt>
      <trkpt lat="44.7795" lon="4.55066">
        <ele>688.44</ele>
        <time>2011-04-07T07:56:18Z</time>
      </trkpt>
      <trkpt lat="44.77944" lon="4.55064">
        <ele>687.48</ele>
        <time>2011-04-07T07:56:26Z</time>
      </trkpt>
      <trkpt lat="44.77937" lon="4.55059">
        <ele>687</ele>
        <time>2011-04-07T07:56:33Z</time>
      </trkpt>
      <trkpt lat="44.77934" lon="4.55062">
        <ele>685.56</ele>
        <time>2011-04-07T07:56:39Z</time>
      </trkpt>
      <trkpt lat="44.77927" lon="4.55057">
        <ele>685.08</ele>
        <time>2011-04-07T07:56:45Z</time>
      </trkpt>
      <trkpt lat="44.77924" lon="4.55057">
        <ele>685.08</ele>
        <time>2011-04-07T07:56:46Z</time>
      </trkpt>
      <trkpt lat="44.77917" lon="4.55056">
        <ele>683.63</ele>
        <time>2011-04-07T07:56:54Z</time>
      </trkpt>
      <trkpt lat="44.7791" lon="4.55052">
        <ele>683.15</ele>
        <time>2011-04-07T07:57:03Z</time>
      </trkpt>
      <trkpt lat="44.77902" lon="4.55048">
        <ele>682.67</ele>
        <time>2011-04-07T07:57:09Z</time>
      </trkpt>
      <trkpt lat="44.77901" lon="4.55045">
        <ele>682.67</ele>
        <time>2011-04-07T07:57:11Z</time>
      </trkpt>
      <trkpt lat="44.77891" lon="4.5504">
        <ele>683.15</ele>
        <time>2011-04-07T07:57:14Z</time>
      </trkpt>
      <trkpt lat="44.77891" lon="4.5504">
        <ele>682.67</ele>
        <time>2011-04-07T07:57:17Z</time>
      </trkpt>
      <trkpt lat="44.77886" lon="4.55034">
        <ele>681.71</ele>
        <time>2011-04-07T07:57:23Z</time>
      </trkpt>
      <trkpt lat="44.7788" lon="4.55023">
        <ele>681.71</ele>
        <time>2011-04-07T07:57:30Z</time>
      </trkpt>
      <trkpt lat="44.77876" lon="4.55012">
        <ele>681.71</ele>
        <time>2011-04-07T07:57:35Z</time>
      </trkpt>
      <trkpt lat="44.77874" lon="4.55002">
        <ele>681.71</ele>
        <time>2011-04-07T07:57:42Z</time>
      </trkpt>
      <trkpt lat="44.77871" lon="4.54992">
        <ele>680.75</ele>
        <time>2011-04-07T07:57:50Z</time>
      </trkpt>
      <trkpt lat="44.77865" lon="4.54982">
        <ele>679.79</ele>
        <time>2011-04-07T07:57:58Z</time>
      </trkpt>
      <trkpt lat="44.77865" lon="4.54968">
        <ele>678.83</ele>
        <time>2011-04-07T07:58:05Z</time>
      </trkpt>
      <trkpt lat="44.77861" lon="4.54956">
        <ele>677.87</ele>
        <time>2011-04-07T07:58:13Z</time>
      </trkpt>
      <trkpt lat="44.77865" lon="4.54951">
        <ele>676.91</ele>
        <time>2011-04-07T07:58:20Z</time>
      </trkpt>
      <trkpt lat="44.77865" lon="4.54949">
        <ele>676.91</ele>
        <time>2011-04-07T07:58:21Z</time>
      </trkpt>
      <trkpt lat="44.7786" lon="4.54937">
        <ele>675.94</ele>
        <time>2011-04-07T07:58:28Z</time>
      </trkpt>
      <trkpt lat="44.77854" lon="4.54933">
        <ele>675.46</ele>
        <time>2011-04-07T07:58:32Z</time>
      </trkpt>
      <trkpt lat="44.77862" lon="4.54927">
        <ele>674.98</ele>
        <time>2011-04-07T07:58:37Z</time>
      </trkpt>
      <trkpt lat="44.7786" lon="4.54916">
        <ele>674.02</ele>
        <time>2011-04-07T07:58:43Z</time>
      </trkpt>
      <trkpt lat="44.77861" lon="4.54913">
        <ele>673.54</ele>
        <time>2011-04-07T07:58:47Z</time>
      </trkpt>
      <trkpt lat="44.77861" lon="4.54901">
        <ele>673.06</ele>
        <time>2011-04-07T07:58:54Z</time>
      </trkpt>
      <trkpt lat="44.77856" lon="4.54894">
        <ele>673.06</ele>
        <time>2011-04-07T07:58:58Z</time>
      </trkpt>
      <trkpt lat="44.77852" lon="4.5488">
        <ele>671.14</ele>
        <time>2011-04-07T07:59:08Z</time>
      </trkpt>
      <trkpt lat="44.7785" lon="4.54878">
        <ele>671.14</ele>
        <time>2011-04-07T07:59:10Z</time>
      </trkpt>
      <trkpt lat="44.77842" lon="4.54874">
        <ele>670.18</ele>
        <time>2011-04-07T07:59:17Z</time>
      </trkpt>
      <trkpt lat="44.77838" lon="4.54873">
        <ele>670.18</ele>
        <time>2011-04-07T07:59:21Z</time>
      </trkpt>
      <trkpt lat="44.77829" lon="4.54866">
        <ele>669.7</ele>
        <time>2011-04-07T07:59:29Z</time>
      </trkpt>
      <trkpt lat="44.7782" lon="4.54862">
        <ele>669.22</ele>
        <time>2011-04-07T07:59:38Z</time>
      </trkpt>
      <trkpt lat="44.77816" lon="4.54856">
        <ele>668.25</ele>
        <time>2011-04-07T07:59:46Z</time>
      </trkpt>
      <trkpt lat="44.77816" lon="4.54852">
        <ele>667.77</ele>
        <time>2011-04-07T07:59:57Z</time>
      </trkpt>
      <trkpt lat="44.77823" lon="4.5486">
        <ele>666.33</ele>
        <time>2011-04-07T08:00:05Z</time>
      </trkpt>
      <trkpt lat="44.77834" lon="4.54857">
        <ele>665.37</ele>
        <time>2011-04-07T08:00:14Z</time>
      </trkpt>
      <trkpt lat="44.77836" lon="4.5486">
        <ele>664.89</ele>
        <time>2011-04-07T08:00:18Z</time>
      </trkpt>
      <trkpt lat="44.77848" lon="4.54864">
        <ele>662.97</ele>
        <time>2011-04-07T08:00:27Z</time>
      </trkpt>
      <trkpt lat="44.77855" lon="4.54866">
        <ele>662.01</ele>
        <time>2011-04-07T08:00:34Z</time>
      </trkpt>
      <trkpt lat="44.77856" lon="4.54867">
        <ele>661.04</ele>
        <time>2011-04-07T08:00:39Z</time>
      </trkpt>
      <trkpt lat="44.7786" lon="4.5487">
        <ele>660.56</ele>
        <time>2011-04-07T08:00:43Z</time>
      </trkpt>
      <trkpt lat="44.77866" lon="4.54873">
        <ele>660.08</ele>
        <time>2011-04-07T08:00:49Z</time>
      </trkpt>
      <trkpt lat="44.7787" lon="4.54884">
        <ele>659.12</ele>
        <time>2011-04-07T08:00:56Z</time>
      </trkpt>
      <trkpt lat="44.77873" lon="4.54893">
        <ele>658.16</ele>
        <time>2011-04-07T08:01:02Z</time>
      </trkpt>
      <trkpt lat="44.77879" lon="4.54902">
        <ele>657.2</ele>
        <time>2011-04-07T08:01:09Z</time>
      </trkpt>
      <trkpt lat="44.77881" lon="4.54912">
        <ele>657.2</ele>
        <time>2011-04-07T08:01:14Z</time>
      </trkpt>
      <trkpt lat="44.77883" lon="4.54913">
        <ele>656.24</ele>
        <time>2011-04-07T08:01:21Z</time>
      </trkpt>
      <trkpt lat="44.77888" lon="4.54924">
        <ele>655.28</ele>
        <time>2011-04-07T08:01:28Z</time>
      </trkpt>
      <trkpt lat="44.77887" lon="4.54929">
        <ele>654.8</ele>
        <time>2011-04-07T08:01:32Z</time>
      </trkpt>
      <trkpt lat="44.77896" lon="4.54942">
        <ele>653.35</ele>
        <time>2011-04-07T08:01:40Z</time>
      </trkpt>
      <trkpt lat="44.779" lon="4.54945">
        <ele>652.87</ele>
        <time>2011-04-07T08:01:45Z</time>
      </trkpt>
      <trkpt lat="44.77903" lon="4.54947">
        <ele>652.87</ele>
        <time>2011-04-07T08:01:46Z</time>
      </trkpt>
      <trkpt lat="44.77904" lon="4.54959">
        <ele>651.43</ele>
        <time>2011-04-07T08:01:55Z</time>
      </trkpt>
      <trkpt lat="44.77915" lon="4.5497">
        <ele>650.47</ele>
        <time>2011-04-07T08:02:03Z</time>
      </trkpt>
      <trkpt lat="44.77923" lon="4.5497">
        <ele>649.03</ele>
        <time>2011-04-07T08:02:12Z</time>
      </trkpt>
      <trkpt lat="44.7793" lon="4.54972">
        <ele>648.55</ele>
        <time>2011-04-07T08:02:18Z</time>
      </trkpt>
      <trkpt lat="44.77937" lon="4.54976">
        <ele>646.62</ele>
        <time>2011-04-07T08:02:27Z</time>
      </trkpt>
      <trkpt lat="44.77944" lon="4.54977">
        <ele>646.62</ele>
        <time>2011-04-07T08:02:32Z</time>
      </trkpt>
      <trkpt lat="44.77951" lon="4.54979">
        <ele>645.18</ele>
        <time>2011-04-07T08:02:39Z</time>
      </trkpt>
      <trkpt lat="44.77957" lon="4.54982">
        <ele>644.22</ele>
        <time>2011-04-07T08:02:46Z</time>
      </trkpt>
      <trkpt lat="44.77958" lon="4.54982">
        <ele>643.26</ele>
        <time>2011-04-07T08:02:48Z</time>
      </trkpt>
      <trkpt lat="44.77965" lon="4.54982">
        <ele>643.26</ele>
        <time>2011-04-07T08:02:53Z</time>
      </trkpt>
      <trkpt lat="44.77972" lon="4.54981">
        <ele>642.78</ele>
        <time>2011-04-07T08:03:01Z</time>
      </trkpt>
      <trkpt lat="44.77981" lon="4.54981">
        <ele>640.86</ele>
        <time>2011-04-07T08:03:09Z</time>
      </trkpt>
      <trkpt lat="44.77982" lon="4.54979">
        <ele>641.34</ele>
        <time>2011-04-07T08:03:11Z</time>
      </trkpt>
      <trkpt lat="44.77988" lon="4.54981">
        <ele>640.38</ele>
        <time>2011-04-07T08:03:18Z</time>
      </trkpt>
      <trkpt lat="44.77997" lon="4.54985">
        <ele>639.41</ele>
        <time>2011-04-07T08:03:27Z</time>
      </trkpt>
      <trkpt lat="44.78005" lon="4.54986">
        <ele>638.45</ele>
        <time>2011-04-07T08:03:34Z</time>
      </trkpt>
      <trkpt lat="44.78012" lon="4.54987">
        <ele>637.01</ele>
        <time>2011-04-07T08:03:42Z</time>
      </trkpt>
      <trkpt lat="44.78018" lon="4.5499">
        <ele>636.05</ele>
        <time>2011-04-07T08:03:48Z</time>
      </trkpt>
      <trkpt lat="44.78022" lon="4.54992">
        <ele>635.57</ele>
        <time>2011-04-07T08:03:53Z</time>
      </trkpt>
      <trkpt lat="44.78029" lon="4.54989">
        <ele>634.61</ele>
        <time>2011-04-07T08:04:03Z</time>
      </trkpt>
      <trkpt lat="44.78039" lon="4.54987">
        <ele>633.17</ele>
        <time>2011-04-07T08:04:11Z</time>
      </trkpt>
      <trkpt lat="44.7804" lon="4.54982">
        <ele>632.68</ele>
        <time>2011-04-07T08:04:17Z</time>
      </trkpt>
      <trkpt lat="44.78043" lon="4.54982">
        <ele>632.2</ele>
        <time>2011-04-07T08:04:18Z</time>
      </trkpt>
      <trkpt lat="44.7805" lon="4.54977">
        <ele>631.72</ele>
        <time>2011-04-07T08:04:26Z</time>
      </trkpt>
      <trkpt lat="44.78055" lon="4.5497">
        <ele>630.76</ele>
        <time>2011-04-07T08:04:33Z</time>
      </trkpt>
      <trkpt lat="44.78059" lon="4.54962">
        <ele>629.8</ele>
        <time>2011-04-07T08:04:41Z</time>
      </trkpt>
      <trkpt lat="44.78063" lon="4.54956">
        <ele>629.8</ele>
        <time>2011-04-07T08:04:47Z</time>
      </trkpt>
      <trkpt lat="44.78067" lon="4.54949">
        <ele>628.36</ele>
        <time>2011-04-07T08:04:54Z</time>
      </trkpt>
      <trkpt lat="44.78066" lon="4.54942">
        <ele>628.36</ele>
        <time>2011-04-07T08:05:01Z</time>
      </trkpt>
      <trkpt lat="44.78076" lon="4.54936">
        <ele>627.88</ele>
        <time>2011-04-07T08:05:07Z</time>
      </trkpt>
      <trkpt lat="44.78076" lon="4.54934">
        <ele>627.88</ele>
        <time>2011-04-07T08:05:10Z</time>
      </trkpt>
      <trkpt lat="44.78083" lon="4.54932">
        <ele>626.92</ele>
        <time>2011-04-07T08:05:18Z</time>
      </trkpt>
      <trkpt lat="44.78085" lon="4.54931">
        <ele>626.44</ele>
        <time>2011-04-07T08:05:38Z</time>
      </trkpt>
      <trkpt lat="44.78084" lon="4.54929">
        <ele>626.92</ele>
        <time>2011-04-07T08:05:43Z</time>
      </trkpt>
      <trkpt lat="44.78086" lon="4.54925">
        <ele>625.96</ele>
        <time>2011-04-07T08:05:48Z</time>
      </trkpt>
      <trkpt lat="44.78094" lon="4.54915">
        <ele>624.99</ele>
        <time>2011-04-07T08:05:58Z</time>
      </trkpt>
      <trkpt lat="44.78097" lon="4.54899">
        <ele>624.03</ele>
        <time>2011-04-07T08:06:06Z</time>
      </trkpt>
      <trkpt lat="44.78099" lon="4.54902">
        <ele>624.03</ele>
        <time>2011-04-07T08:06:09Z</time>
      </trkpt>
      <trkpt lat="44.78103" lon="4.54892">
        <ele>623.07</ele>
        <time>2011-04-07T08:06:16Z</time>
      </trkpt>
      <trkpt lat="44.78108" lon="4.54887">
        <ele>623.07</ele>
        <time>2011-04-07T08:06:22Z</time>
      </trkpt>
      <trkpt lat="44.78111" lon="4.54881">
        <ele>622.11</ele>
        <time>2011-04-07T08:06:29Z</time>
      </trkpt>
      <trkpt lat="44.78115" lon="4.54885">
        <ele>622.11</ele>
        <time>2011-04-07T08:06:37Z</time>
      </trkpt>
      <trkpt lat="44.78117" lon="4.5488">
        <ele>621.15</ele>
        <time>2011-04-07T08:06:56Z</time>
      </trkpt>
      <trkpt lat="44.78127" lon="4.54881">
        <ele>620.19</ele>
        <time>2011-04-07T08:07:03Z</time>
      </trkpt>
      <trkpt lat="44.78128" lon="4.54881">
        <ele>619.23</ele>
        <time>2011-04-07T08:07:05Z</time>
      </trkpt>
      <trkpt lat="44.78139" lon="4.54877">
        <ele>618.26</ele>
        <time>2011-04-07T08:07:14Z</time>
      </trkpt>
      <trkpt lat="44.78143" lon="4.54873">
        <ele>617.78</ele>
        <time>2011-04-07T08:07:22Z</time>
      </trkpt>
      <trkpt lat="44.78146" lon="4.5487">
        <ele>617.3</ele>
        <time>2011-04-07T08:07:31Z</time>
      </trkpt>
      <trkpt lat="44.78143" lon="4.54865">
        <ele>617.3</ele>
        <time>2011-04-07T08:07:45Z</time>
      </trkpt>
      <trkpt lat="44.78144" lon="4.54867">
        <ele>616.82</ele>
        <time>2011-04-07T08:07:47Z</time>
      </trkpt>
      <trkpt lat="44.78143" lon="4.54872">
        <ele>616.82</ele>
        <time>2011-04-07T08:07:52Z</time>
      </trkpt>
      <trkpt lat="44.78141" lon="4.54872">
        <ele>616.82</ele>
        <time>2011-04-07T08:07:57Z</time>
      </trkpt>
      <trkpt lat="44.7814" lon="4.54874">
        <ele>617.3</ele>
        <time>2011-04-07T08:08:04Z</time>
      </trkpt>
      <trkpt lat="44.78135" lon="4.54868">
        <ele>616.82</ele>
        <time>2011-04-07T08:08:09Z</time>
      </trkpt>
      <trkpt lat="44.78131" lon="4.54874">
        <ele>617.3</ele>
        <time>2011-04-07T08:08:16Z</time>
      </trkpt>
      <trkpt lat="44.7813" lon="4.54875">
        <ele>616.82</ele>
        <time>2011-04-07T08:08:20Z</time>
      </trkpt>
      <trkpt lat="44.78121" lon="4.54872">
        <ele>617.78</ele>
        <time>2011-04-07T08:08:27Z</time>
      </trkpt>
      <trkpt lat="44.78112" lon="4.54878">
        <ele>617.78</ele>
        <time>2011-04-07T08:08:36Z</time>
      </trkpt>
      <trkpt lat="44.78105" lon="4.54879">
        <ele>617.78</ele>
        <time>2011-04-07T08:08:43Z</time>
      </trkpt>
      <trkpt lat="44.78098" lon="4.54878">
        <ele>617.3</ele>
        <time>2011-04-07T08:08:48Z</time>
      </trkpt>
      <trkpt lat="44.78088" lon="4.54885">
        <ele>616.82</ele>
        <time>2011-04-07T08:08:57Z</time>
      </trkpt>
      <trkpt lat="44.78083" lon="4.54887">
        <ele>616.82</ele>
        <time>2011-04-07T08:09:00Z</time>
      </trkpt>
      <trkpt lat="44.78083" lon="4.54893">
        <ele>616.82</ele>
        <time>2011-04-07T08:09:03Z</time>
      </trkpt>
      <trkpt lat="44.78081" lon="4.54896">
        <ele>616.82</ele>
        <time>2011-04-07T08:09:07Z</time>
      </trkpt>
      <trkpt lat="44.78072" lon="4.54904">
        <ele>616.34</ele>
        <time>2011-04-07T08:09:17Z</time>
      </trkpt>
      <trkpt lat="44.78062" lon="4.54909">
        <ele>615.86</ele>
        <time>2011-04-07T08:09:25Z</time>
      </trkpt>
      <trkpt lat="44.78056" lon="4.54909">
        <ele>615.86</ele>
        <time>2011-04-07T08:09:29Z</time>
      </trkpt>
      <trkpt lat="44.78048" lon="4.5492">
        <ele>614.9</ele>
        <time>2011-04-07T08:09:38Z</time>
      </trkpt>
      <trkpt lat="44.78041" lon="4.54928">
        <ele>613.94</ele>
        <time>2011-04-07T08:09:47Z</time>
      </trkpt>
      <trkpt lat="44.78033" lon="4.54928">
        <ele>612.98</ele>
        <time>2011-04-07T08:09:54Z</time>
      </trkpt>
      <trkpt lat="44.78027" lon="4.54929">
        <ele>612.5</ele>
        <time>2011-04-07T08:09:58Z</time>
      </trkpt>
      <trkpt lat="44.78025" lon="4.54932">
        <ele>612.5</ele>
        <time>2011-04-07T08:10:05Z</time>
      </trkpt>
      <trkpt lat="44.78024" lon="4.5493">
        <ele>612.5</ele>
        <time>2011-04-07T08:10:13Z</time>
      </trkpt>
      <trkpt lat="44.78013" lon="4.54928">
        <ele>611.54</ele>
        <time>2011-04-07T08:10:21Z</time>
      </trkpt>
      <trkpt lat="44.78009" lon="4.54923">
        <ele>611.54</ele>
        <time>2011-04-07T08:10:23Z</time>
      </trkpt>
      <trkpt lat="44.78" lon="4.54919">
        <ele>611.54</ele>
        <time>2011-04-07T08:10:31Z</time>
      </trkpt>
      <trkpt lat="44.77993" lon="4.54919">
        <ele>610.57</ele>
        <time>2011-04-07T08:10:38Z</time>
      </trkpt>
      <trkpt lat="44.77985" lon="4.54913">
        <ele>611.06</ele>
        <time>2011-04-07T08:10:45Z</time>
      </trkpt>
      <trkpt lat="44.77982" lon="4.5491">
        <ele>611.06</ele>
        <time>2011-04-07T08:10:46Z</time>
      </trkpt>
      <trkpt lat="44.77975" lon="4.54908">
        <ele>611.06</ele>
        <time>2011-04-07T08:10:54Z</time>
      </trkpt>
      <trkpt lat="44.77972" lon="4.54905">
        <ele>611.06</ele>
        <time>2011-04-07T08:10:56Z</time>
      </trkpt>
      <trkpt lat="44.77965" lon="4.54903">
        <ele>611.06</ele>
        <time>2011-04-07T08:11:04Z</time>
      </trkpt>
      <trkpt lat="44.77961" lon="4.54901">
        <ele>612.02</ele>
        <time>2011-04-07T08:11:10Z</time>
      </trkpt>
      <trkpt lat="44.77954" lon="4.54899">
        <ele>612.5</ele>
        <time>2011-04-07T08:11:18Z</time>
      </trkpt>
      <trkpt lat="44.7795" lon="4.5489">
        <ele>613.46</ele>
        <time>2011-04-07T08:11:24Z</time>
      </trkpt>
      <trkpt lat="44.7795" lon="4.5489">
        <ele>613.94</ele>
        <time>2011-04-07T08:11:30Z</time>
      </trkpt>
      <trkpt lat="44.7794" lon="4.54887">
        <ele>614.9</ele>
        <time>2011-04-07T08:11:36Z</time>
      </trkpt>
      <trkpt lat="44.77933" lon="4.54887">
        <ele>617.78</ele>
        <time>2011-04-07T08:11:49Z</time>
      </trkpt>
      <trkpt lat="44.77941" lon="4.54885">
        <ele>618.26</ele>
        <time>2011-04-07T08:11:51Z</time>
      </trkpt>
      <trkpt lat="44.77937" lon="4.54878">
        <ele>618.26</ele>
        <time>2011-04-07T08:11:56Z</time>
      </trkpt>
      <trkpt lat="44.77943" lon="4.54867">
        <ele>618.75</ele>
        <time>2011-04-07T08:12:04Z</time>
      </trkpt>
      <trkpt lat="44.77934" lon="4.54862">
        <ele>619.23</ele>
        <time>2011-04-07T08:12:09Z</time>
      </trkpt>
      <trkpt lat="44.77928" lon="4.54856">
        <ele>619.71</ele>
        <time>2011-04-07T08:12:15Z</time>
      </trkpt>
      <trkpt lat="44.77927" lon="4.54848">
        <ele>621.63</ele>
        <time>2011-04-07T08:12:26Z</time>
      </trkpt>
      <trkpt lat="44.77922" lon="4.5484">
        <ele>622.59</ele>
        <time>2011-04-07T08:12:31Z</time>
      </trkpt>
      <trkpt lat="44.77918" lon="4.54836">
        <ele>623.55</ele>
        <time>2011-04-07T08:12:37Z</time>
      </trkpt>
      <trkpt lat="44.77921" lon="4.54833">
        <ele>624.03</ele>
        <time>2011-04-07T08:12:43Z</time>
      </trkpt>
      <trkpt lat="44.77919" lon="4.54825">
        <ele>624.99</ele>
        <time>2011-04-07T08:12:50Z</time>
      </trkpt>
      <trkpt lat="44.7792" lon="4.54822">
        <ele>625.96</ele>
        <time>2011-04-07T08:12:56Z</time>
      </trkpt>
      <trkpt lat="44.77913" lon="4.54816">
        <ele>626.92</ele>
        <time>2011-04-07T08:13:02Z</time>
      </trkpt>
      <trkpt lat="44.77917" lon="4.54811">
        <ele>627.88</ele>
        <time>2011-04-07T08:13:08Z</time>
      </trkpt>
      <trkpt lat="44.77909" lon="4.54811">
        <ele>628.36</ele>
        <time>2011-04-07T08:13:13Z</time>
      </trkpt>
      <trkpt lat="44.77905" lon="4.548">
        <ele>630.28</ele>
        <time>2011-04-07T08:13:22Z</time>
      </trkpt>
      <trkpt lat="44.77901" lon="4.54798">
        <ele>630.76</ele>
        <time>2011-04-07T08:13:26Z</time>
      </trkpt>
      <trkpt lat="44.77894" lon="4.54796">
        <ele>632.68</ele>
        <time>2011-04-07T08:13:33Z</time>
      </trkpt>
      <trkpt lat="44.77889" lon="4.54795">
        <ele>634.13</ele>
        <time>2011-04-07T08:13:40Z</time>
      </trkpt>
      <trkpt lat="44.77885" lon="4.54795">
        <ele>634.13</ele>
        <time>2011-04-07T08:13:47Z</time>
      </trkpt>
      <trkpt lat="44.77888" lon="4.54792">
        <ele>634.61</ele>
        <time>2011-04-07T08:13:50Z</time>
      </trkpt>
      <trkpt lat="44.77877" lon="4.54791">
        <ele>635.09</ele>
        <time>2011-04-07T08:13:58Z</time>
      </trkpt>
      <trkpt lat="44.77875" lon="4.54799">
        <ele>636.05</ele>
        <time>2011-04-07T08:14:04Z</time>
      </trkpt>
      <trkpt lat="44.77867" lon="4.54791">
        <ele>636.53</ele>
        <time>2011-04-07T08:14:10Z</time>
      </trkpt>
      <trkpt lat="44.77863" lon="4.548">
        <ele>637.49</ele>
        <time>2011-04-07T08:14:17Z</time>
      </trkpt>
      <trkpt lat="44.77855" lon="4.548">
        <ele>637.97</ele>
        <time>2011-04-07T08:14:24Z</time>
      </trkpt>
      <trkpt lat="44.77846" lon="4.548">
        <ele>638.93</ele>
        <time>2011-04-07T08:14:31Z</time>
      </trkpt>
      <trkpt lat="44.77843" lon="4.54795">
        <ele>639.41</ele>
        <time>2011-04-07T08:14:37Z</time>
      </trkpt>
      <trkpt lat="44.77843" lon="4.54801">
        <ele>639.41</ele>
        <time>2011-04-07T08:14:39Z</time>
      </trkpt>
      <trkpt lat="44.77835" lon="4.54791">
        <ele>639.89</ele>
        <time>2011-04-07T08:14:47Z</time>
      </trkpt>
      <trkpt lat="44.77835" lon="4.54792">
        <ele>639.41</ele>
        <time>2011-04-07T08:14:49Z</time>
      </trkpt>
      <trkpt lat="44.77833" lon="4.54791">
        <ele>639.41</ele>
        <time>2011-04-07T08:14:52Z</time>
      </trkpt>
      <trkpt lat="44.77821" lon="4.54781">
        <ele>639.41</ele>
        <time>2011-04-07T08:14:59Z</time>
      </trkpt>
      <trkpt lat="44.77817" lon="4.54776">
        <ele>638.93</ele>
        <time>2011-04-07T08:15:07Z</time>
      </trkpt>
      <trkpt lat="44.77813" lon="4.54778">
        <ele>639.41</ele>
        <time>2011-04-07T08:15:13Z</time>
      </trkpt>
      <trkpt lat="44.77809" lon="4.54776">
        <ele>640.38</ele>
        <time>2011-04-07T08:15:17Z</time>
      </trkpt>
      <trkpt lat="44.77805" lon="4.54774">
        <ele>640.86</ele>
        <time>2011-04-07T08:15:24Z</time>
      </trkpt>
      <trkpt lat="44.77803" lon="4.54772">
        <ele>641.82</ele>
        <time>2011-04-07T08:15:29Z</time>
      </trkpt>
      <trkpt lat="44.77797" lon="4.54766">
        <ele>641.82</ele>
        <time>2011-04-07T08:15:35Z</time>
      </trkpt>
      <trkpt lat="44.77796" lon="4.54767">
        <ele>642.78</ele>
        <time>2011-04-07T08:15:43Z</time>
      </trkpt>
      <trkpt lat="44.77789" lon="4.54767">
        <ele>642.78</ele>
        <time>2011-04-07T08:15:49Z</time>
      </trkpt>
      <trkpt lat="44.77782" lon="4.54756">
        <ele>643.26</ele>
        <time>2011-04-07T08:15:55Z</time>
      </trkpt>
      <trkpt lat="44.77783" lon="4.54757">
        <ele>643.74</ele>
        <time>2011-04-07T08:15:59Z</time>
      </trkpt>
      <trkpt lat="44.77777" lon="4.54753">
        <ele>644.7</ele>
        <time>2011-04-07T08:16:06Z</time>
      </trkpt>
      <trkpt lat="44.77771" lon="4.5475">
        <ele>644.7</ele>
        <time>2011-04-07T08:16:08Z</time>
      </trkpt>
      <trkpt lat="44.77765" lon="4.54743">
        <ele>644.7</ele>
        <time>2011-04-07T08:16:17Z</time>
      </trkpt>
      <trkpt lat="44.77761" lon="4.54738">
        <ele>645.18</ele>
        <time>2011-04-07T08:16:24Z</time>
      </trkpt>
      <trkpt lat="44.77751" lon="4.54729">
        <ele>645.18</ele>
        <time>2011-04-07T08:16:30Z</time>
      </trkpt>
      <trkpt lat="44.7775" lon="4.54727">
        <ele>645.18</ele>
        <time>2011-04-07T08:16:33Z</time>
      </trkpt>
      <trkpt lat="44.77746" lon="4.54723">
        <ele>645.66</ele>
        <time>2011-04-07T08:16:39Z</time>
      </trkpt>
      <trkpt lat="44.77742" lon="4.54725">
        <ele>645.66</ele>
        <time>2011-04-07T08:16:41Z</time>
      </trkpt>
      <trkpt lat="44.7774" lon="4.54722">
        <ele>646.14</ele>
        <time>2011-04-07T08:16:43Z</time>
      </trkpt>
      <trkpt lat="44.77738" lon="4.54722">
        <ele>647.1</ele>
        <time>2011-04-07T08:16:49Z</time>
      </trkpt>
      <trkpt lat="44.77734" lon="4.54719">
        <ele>647.1</ele>
        <time>2011-04-07T08:16:53Z</time>
      </trkpt>
      <trkpt lat="44.77731" lon="4.54709">
        <ele>646.62</ele>
        <time>2011-04-07T08:17:01Z</time>
      </trkpt>
      <trkpt lat="44.77729" lon="4.54711">
        <ele>645.66</ele>
        <time>2011-04-07T08:17:03Z</time>
      </trkpt>
      <trkpt lat="44.77722" lon="4.54704">
        <ele>646.14</ele>
        <time>2011-04-07T08:17:11Z</time>
      </trkpt>
      <trkpt lat="44.77718" lon="4.54704">
        <ele>644.7</ele>
        <time>2011-04-07T08:17:18Z</time>
      </trkpt>
      <trkpt lat="44.77714" lon="4.54698">
        <ele>643.26</ele>
        <time>2011-04-07T08:17:26Z</time>
      </trkpt>
      <trkpt lat="44.77711" lon="4.54694">
        <ele>642.3</ele>
        <time>2011-04-07T08:17:33Z</time>
      </trkpt>
      <trkpt lat="44.77705" lon="4.54688">
        <ele>642.78</ele>
        <time>2011-04-07T08:17:39Z</time>
      </trkpt>
      <trkpt lat="44.77701" lon="4.54679">
        <ele>642.3</ele>
        <time>2011-04-07T08:17:46Z</time>
      </trkpt>
      <trkpt lat="44.77698" lon="4.54677">
        <ele>642.3</ele>
        <time>2011-04-07T08:17:53Z</time>
      </trkpt>
      <trkpt lat="44.77699" lon="4.54677">
        <ele>643.26</ele>
        <time>2011-04-07T08:17:57Z</time>
      </trkpt>
      <trkpt lat="44.77706" lon="4.54667">
        <ele>642.78</ele>
        <time>2011-04-07T08:18:05Z</time>
      </trkpt>
      <trkpt lat="44.77706" lon="4.54662">
        <ele>642.3</ele>
        <time>2011-04-07T08:18:09Z</time>
      </trkpt>
      <trkpt lat="44.77701" lon="4.54651">
        <ele>643.26</ele>
        <time>2011-04-07T08:18:17Z</time>
      </trkpt>
      <trkpt lat="44.77702" lon="4.54649">
        <ele>643.26</ele>
        <time>2011-04-07T08:18:23Z</time>
      </trkpt>
      <trkpt lat="44.77707" lon="4.54643">
        <ele>642.3</ele>
        <time>2011-04-07T08:18:29Z</time>
      </trkpt>
      <trkpt lat="44.77706" lon="4.5464">
        <ele>642.3</ele>
        <time>2011-04-07T08:18:31Z</time>
      </trkpt>
      <trkpt lat="44.7771" lon="4.54637">
        <ele>641.82</ele>
        <time>2011-04-07T08:18:38Z</time>
      </trkpt>
      <trkpt lat="44.77715" lon="4.54631">
        <ele>641.82</ele>
        <time>2011-04-07T08:18:45Z</time>
      </trkpt>
      <trkpt lat="44.7772" lon="4.54624">
        <ele>641.34</ele>
        <time>2011-04-07T08:18:52Z</time>
      </trkpt>
      <trkpt lat="44.77726" lon="4.54621">
        <ele>640.86</ele>
        <time>2011-04-07T08:19:00Z</time>
      </trkpt>
      <trkpt lat="44.77728" lon="4.54619">
        <ele>639.89</ele>
        <time>2011-04-07T08:19:02Z</time>
      </trkpt>
      <trkpt lat="44.7773" lon="4.54608">
        <ele>639.89</ele>
        <time>2011-04-07T08:19:09Z</time>
      </trkpt>
      <trkpt lat="44.77731" lon="4.54596">
        <ele>639.89</ele>
        <time>2011-04-07T08:19:16Z</time>
      </trkpt>
      <trkpt lat="44.77728" lon="4.5459">
        <ele>640.38</ele>
        <time>2011-04-07T08:19:22Z</time>
      </trkpt>
      <trkpt lat="44.77738" lon="4.54586">
        <ele>640.86</ele>
        <time>2011-04-07T08:19:29Z</time>
      </trkpt>
      <trkpt lat="44.77743" lon="4.54583">
        <ele>641.34</ele>
        <time>2011-04-07T08:19:33Z</time>
      </trkpt>
      <trkpt lat="44.77741" lon="4.54574">
        <ele>641.34</ele>
        <time>2011-04-07T08:19:40Z</time>
      </trkpt>
      <trkpt lat="44.77743" lon="4.54561">
        <ele>641.82</ele>
        <time>2011-04-07T08:19:47Z</time>
      </trkpt>
      <trkpt lat="44.77742" lon="4.54556">
        <ele>641.82</ele>
        <time>2011-04-07T08:19:53Z</time>
      </trkpt>
      <trkpt lat="44.77742" lon="4.54553">
        <ele>642.3</ele>
        <time>2011-04-07T08:19:59Z</time>
      </trkpt>
      <trkpt lat="44.77746" lon="4.54547">
        <ele>641.34</ele>
        <time>2011-04-07T08:20:11Z</time>
      </trkpt>
      <trkpt lat="44.77746" lon="4.54543">
        <ele>640.86</ele>
        <time>2011-04-07T08:21:24Z</time>
      </trkpt>
      <trkpt lat="44.77745" lon="4.54537">
        <ele>640.86</ele>
        <time>2011-04-07T08:21:30Z</time>
      </trkpt>
      <trkpt lat="44.77742" lon="4.5453">
        <ele>641.34</ele>
        <time>2011-04-07T08:21:36Z</time>
      </trkpt>
      <trkpt lat="44.77744" lon="4.54533">
        <ele>642.3</ele>
        <time>2011-04-07T08:21:46Z</time>
      </trkpt>
      <trkpt lat="44.77744" lon="4.54532">
        <ele>641.82</ele>
        <time>2011-04-07T08:22:35Z</time>
      </trkpt>
      <trkpt lat="44.77744" lon="4.54525">
        <ele>641.34</ele>
        <time>2011-04-07T08:22:41Z</time>
      </trkpt>
      <trkpt lat="44.77741" lon="4.54521">
        <ele>642.3</ele>
        <time>2011-04-07T08:22:47Z</time>
      </trkpt>
      <trkpt lat="44.77744" lon="4.54518">
        <ele>643.26</ele>
        <time>2011-04-07T08:22:57Z</time>
      </trkpt>
      <trkpt lat="44.77741" lon="4.5451">
        <ele>643.74</ele>
        <time>2011-04-07T08:23:04Z</time>
      </trkpt>
      <trkpt lat="44.77739" lon="4.54504">
        <ele>644.7</ele>
        <time>2011-04-07T08:23:10Z</time>
      </trkpt>
      <trkpt lat="44.77739" lon="4.54499">
        <ele>645.18</ele>
        <time>2011-04-07T08:23:18Z</time>
      </trkpt>
      <trkpt lat="44.7774" lon="4.54494">
        <ele>646.62</ele>
        <time>2011-04-07T08:23:26Z</time>
      </trkpt>
      <trkpt lat="44.77735" lon="4.54486">
        <ele>647.1</ele>
        <time>2011-04-07T08:23:32Z</time>
      </trkpt>
      <trkpt lat="44.77734" lon="4.5448">
        <ele>647.59</ele>
        <time>2011-04-07T08:23:42Z</time>
      </trkpt>
      <trkpt lat="44.7773" lon="4.54476">
        <ele>648.55</ele>
        <time>2011-04-07T08:23:47Z</time>
      </trkpt>
      <trkpt lat="44.77728" lon="4.54471">
        <ele>649.99</ele>
        <time>2011-04-07T08:23:55Z</time>
      </trkpt>
      <trkpt lat="44.77733" lon="4.54472">
        <ele>650.95</ele>
        <time>2011-04-07T08:24:04Z</time>
      </trkpt>
      <trkpt lat="44.77729" lon="4.54467">
        <ele>651.91</ele>
        <time>2011-04-07T08:24:10Z</time>
      </trkpt>
      <trkpt lat="44.77728" lon="4.54464">
        <ele>651.43</ele>
        <time>2011-04-07T08:24:30Z</time>
      </trkpt>
      <trkpt lat="44.7773" lon="4.54465">
        <ele>651.91</ele>
        <time>2011-04-07T08:25:11Z</time>
      </trkpt>
      <trkpt lat="44.77732" lon="4.5446">
        <ele>650.95</ele>
        <time>2011-04-07T08:25:17Z</time>
      </trkpt>
      <trkpt lat="44.77733" lon="4.54453">
        <ele>650.47</ele>
        <time>2011-04-07T08:25:22Z</time>
      </trkpt>
      <trkpt lat="44.77736" lon="4.54446">
        <ele>650.47</ele>
        <time>2011-04-07T08:25:30Z</time>
      </trkpt>
      <trkpt lat="44.77737" lon="4.54435">
        <ele>650.47</ele>
        <time>2011-04-07T08:25:38Z</time>
      </trkpt>
      <trkpt lat="44.77737" lon="4.54432">
        <ele>650.47</ele>
        <time>2011-04-07T08:25:44Z</time>
      </trkpt>
      <trkpt lat="44.77735" lon="4.54426">
        <ele>651.91</ele>
        <time>2011-04-07T08:25:52Z</time>
      </trkpt>
      <trkpt lat="44.77737" lon="4.54424">
        <ele>652.39</ele>
        <time>2011-04-07T08:26:00Z</time>
      </trkpt>
      <trkpt lat="44.77738" lon="4.54419">
        <ele>652.87</ele>
        <time>2011-04-07T08:26:02Z</time>
      </trkpt>
      <trkpt lat="44.77738" lon="4.54412">
        <ele>652.87</ele>
        <time>2011-04-07T08:26:09Z</time>
      </trkpt>
      <trkpt lat="44.77738" lon="4.5441">
        <ele>653.35</ele>
        <time>2011-04-07T08:26:12Z</time>
      </trkpt>
      <trkpt lat="44.77736" lon="4.54407">
        <ele>653.83</ele>
        <time>2011-04-07T08:26:16Z</time>
      </trkpt>
      <trkpt lat="44.77733" lon="4.54395">
        <ele>655.28</ele>
        <time>2011-04-07T08:26:23Z</time>
      </trkpt>
      <trkpt lat="44.77733" lon="4.54396">
        <ele>655.28</ele>
        <time>2011-04-07T08:26:24Z</time>
      </trkpt>
      <trkpt lat="44.77737" lon="4.54391">
        <ele>655.76</ele>
        <time>2011-04-07T08:26:30Z</time>
      </trkpt>
      <trkpt lat="44.77733" lon="4.54387">
        <ele>656.24</ele>
        <time>2011-04-07T08:26:36Z</time>
      </trkpt>
      <trkpt lat="44.77737" lon="4.54384">
        <ele>656.72</ele>
        <time>2011-04-07T08:26:42Z</time>
      </trkpt>
      <trkpt lat="44.77735" lon="4.5438">
        <ele>657.68</ele>
        <time>2011-04-07T08:26:48Z</time>
      </trkpt>
      <trkpt lat="44.77735" lon="4.54374">
        <ele>658.64</ele>
        <time>2011-04-07T08:26:54Z</time>
      </trkpt>
      <trkpt lat="44.77735" lon="4.54368">
        <ele>659.12</ele>
        <time>2011-04-07T08:27:18Z</time>
      </trkpt>
      <trkpt lat="44.77731" lon="4.54366">
        <ele>660.08</ele>
        <time>2011-04-07T08:27:25Z</time>
      </trkpt>
      <trkpt lat="44.77732" lon="4.5436">
        <ele>660.56</ele>
        <time>2011-04-07T08:27:30Z</time>
      </trkpt>
      <trkpt lat="44.77728" lon="4.54355">
        <ele>661.04</ele>
        <time>2011-04-07T08:27:37Z</time>
      </trkpt>
      <trkpt lat="44.77727" lon="4.54347">
        <ele>661.04</ele>
        <time>2011-04-07T08:27:43Z</time>
      </trkpt>
      <trkpt lat="44.77724" lon="4.5434">
        <ele>662.01</ele>
        <time>2011-04-07T08:27:50Z</time>
      </trkpt>
      <trkpt lat="44.77726" lon="4.54336">
        <ele>662.49</ele>
        <time>2011-04-07T08:27:56Z</time>
      </trkpt>
      <trkpt lat="44.77722" lon="4.54331">
        <ele>662.97</ele>
        <time>2011-04-07T08:28:03Z</time>
      </trkpt>
      <trkpt lat="44.77717" lon="4.5433">
        <ele>662.97</ele>
        <time>2011-04-07T08:28:10Z</time>
      </trkpt>
      <trkpt lat="44.77717" lon="4.54324">
        <ele>663.45</ele>
        <time>2011-04-07T08:28:16Z</time>
      </trkpt>
      <trkpt lat="44.77717" lon="4.54324">
        <ele>663.45</ele>
        <time>2011-04-07T08:28:30Z</time>
      </trkpt>
      <trkpt lat="44.77716" lon="4.5432">
        <ele>662.49</ele>
        <time>2011-04-07T08:28:57Z</time>
      </trkpt>
      <trkpt lat="44.77715" lon="4.54312">
        <ele>662.97</ele>
        <time>2011-04-07T08:29:05Z</time>
      </trkpt>
      <trkpt lat="44.7771" lon="4.54311">
        <ele>662.97</ele>
        <time>2011-04-07T08:29:11Z</time>
      </trkpt>
      <trkpt lat="44.77706" lon="4.54307">
        <ele>662.49</ele>
        <time>2011-04-07T08:29:18Z</time>
      </trkpt>
      <trkpt lat="44.77701" lon="4.54303">
        <ele>662.01</ele>
        <time>2011-04-07T08:29:25Z</time>
      </trkpt>
      <trkpt lat="44.77699" lon="4.54298">
        <ele>662.01</ele>
        <time>2011-04-07T08:29:31Z</time>
      </trkpt>
      <trkpt lat="44.77694" lon="4.54296">
        <ele>662.01</ele>
        <time>2011-04-07T08:29:38Z</time>
      </trkpt>
      <trkpt lat="44.77691" lon="4.54292">
        <ele>662.01</ele>
        <time>2011-04-07T08:29:45Z</time>
      </trkpt>
      <trkpt lat="44.7769" lon="4.5429">
        <ele>661.52</ele>
        <time>2011-04-07T08:29:48Z</time>
      </trkpt>
      <trkpt lat="44.77688" lon="4.54288">
        <ele>662.01</ele>
        <time>2011-04-07T08:29:54Z</time>
      </trkpt>
      <trkpt lat="44.77685" lon="4.54287">
        <ele>662.49</ele>
        <time>2011-04-07T08:30:03Z</time>
      </trkpt>
      <trkpt lat="44.77681" lon="4.54286">
        <ele>663.45</ele>
        <time>2011-04-07T08:31:07Z</time>
      </trkpt>
      <trkpt lat="44.77679" lon="4.54283">
        <ele>663.93</ele>
        <time>2011-04-07T08:31:12Z</time>
      </trkpt>
      <trkpt lat="44.77673" lon="4.54279">
        <ele>664.89</ele>
        <time>2011-04-07T08:31:19Z</time>
      </trkpt>
      <trkpt lat="44.7767" lon="4.54278">
        <ele>665.85</ele>
        <time>2011-04-07T08:31:25Z</time>
      </trkpt>
      <trkpt lat="44.77667" lon="4.54276">
        <ele>665.85</ele>
        <time>2011-04-07T08:31:29Z</time>
      </trkpt>
      <trkpt lat="44.77665" lon="4.54272">
        <ele>665.37</ele>
        <time>2011-04-07T08:31:35Z</time>
      </trkpt>
      <trkpt lat="44.77665" lon="4.54262">
        <ele>663.93</ele>
        <time>2011-04-07T08:31:43Z</time>
      </trkpt>
      <trkpt lat="44.77664" lon="4.54258">
        <ele>662.97</ele>
        <time>2011-04-07T08:31:50Z</time>
      </trkpt>
      <trkpt lat="44.77662" lon="4.54257">
        <ele>662.01</ele>
        <time>2011-04-07T08:31:56Z</time>
      </trkpt>
      <trkpt lat="44.77659" lon="4.54255">
        <ele>661.04</ele>
        <time>2011-04-07T08:32:02Z</time>
      </trkpt>
      <trkpt lat="44.77659" lon="4.54256">
        <ele>660.08</ele>
        <time>2011-04-07T08:32:09Z</time>
      </trkpt>
      <trkpt lat="44.77666" lon="4.54247">
        <ele>658.64</ele>
        <time>2011-04-07T08:32:18Z</time>
      </trkpt>
      <trkpt lat="44.77666" lon="4.54243">
        <ele>657.2</ele>
        <time>2011-04-07T08:32:24Z</time>
      </trkpt>
      <trkpt lat="44.77668" lon="4.54234">
        <ele>655.76</ele>
        <time>2011-04-07T08:32:34Z</time>
      </trkpt>
      <trkpt lat="44.77665" lon="4.54227">
        <ele>654.8</ele>
        <time>2011-04-07T08:33:06Z</time>
      </trkpt>
      <trkpt lat="44.77662" lon="4.54219">
        <ele>654.31</ele>
        <time>2011-04-07T08:33:14Z</time>
      </trkpt>
      <trkpt lat="44.77664" lon="4.5422">
        <ele>653.83</ele>
        <time>2011-04-07T08:33:17Z</time>
      </trkpt>
      <trkpt lat="44.77661" lon="4.54204">
        <ele>652.87</ele>
        <time>2011-04-07T08:33:25Z</time>
      </trkpt>
      <trkpt lat="44.77663" lon="4.54206">
        <ele>651.91</ele>
        <time>2011-04-07T08:33:33Z</time>
      </trkpt>
      <trkpt lat="44.77663" lon="4.54204">
        <ele>652.39</ele>
        <time>2011-04-07T08:33:40Z</time>
      </trkpt>
      <trkpt lat="44.77662" lon="4.54195">
        <ele>651.43</ele>
        <time>2011-04-07T08:33:48Z</time>
      </trkpt>
      <trkpt lat="44.7766" lon="4.54191">
        <ele>650.47</ele>
        <time>2011-04-07T08:33:55Z</time>
      </trkpt>
      <trkpt lat="44.77659" lon="4.54183">
        <ele>649.99</ele>
        <time>2011-04-07T08:34:32Z</time>
      </trkpt>
      <trkpt lat="44.77658" lon="4.54182">
        <ele>649.03</ele>
        <time>2011-04-07T08:34:40Z</time>
      </trkpt>
      <trkpt lat="44.77655" lon="4.54174">
        <ele>648.07</ele>
        <time>2011-04-07T08:34:49Z</time>
      </trkpt>
      <trkpt lat="44.77652" lon="4.54168">
        <ele>647.1</ele>
        <time>2011-04-07T08:34:55Z</time>
      </trkpt>
      <trkpt lat="44.77652" lon="4.54163">
        <ele>646.14</ele>
        <time>2011-04-07T08:35:02Z</time>
      </trkpt>
      <trkpt lat="44.77647" lon="4.54161">
        <ele>645.18</ele>
        <time>2011-04-07T08:35:11Z</time>
      </trkpt>
      <trkpt lat="44.77646" lon="4.54156">
        <ele>643.26</ele>
        <time>2011-04-07T08:35:19Z</time>
      </trkpt>
      <trkpt lat="44.77644" lon="4.54152">
        <ele>641.82</ele>
        <time>2011-04-07T08:35:27Z</time>
      </trkpt>
      <trkpt lat="44.77641" lon="4.54146">
        <ele>640.86</ele>
        <time>2011-04-07T08:35:34Z</time>
      </trkpt>
      <trkpt lat="44.77635" lon="4.54145">
        <ele>639.41</ele>
        <time>2011-04-07T08:35:42Z</time>
      </trkpt>
      <trkpt lat="44.77629" lon="4.54145">
        <ele>637.49</ele>
        <time>2011-04-07T08:35:53Z</time>
      </trkpt>
      <trkpt lat="44.77624" lon="4.54136">
        <ele>636.53</ele>
        <time>2011-04-07T08:36:01Z</time>
      </trkpt>
      <trkpt lat="44.7762" lon="4.54138">
        <ele>636.05</ele>
        <time>2011-04-07T08:36:08Z</time>
      </trkpt>
      <trkpt lat="44.77609" lon="4.54139">
        <ele>636.05</ele>
        <time>2011-04-07T08:36:15Z</time>
      </trkpt>
      <trkpt lat="44.77605" lon="4.54138">
        <ele>636.05</ele>
        <time>2011-04-07T08:36:22Z</time>
      </trkpt>
      <trkpt lat="44.77601" lon="4.54138">
        <ele>635.09</ele>
        <time>2011-04-07T08:36:29Z</time>
      </trkpt>
      <trkpt lat="44.77599" lon="4.54136">
        <ele>634.61</ele>
        <time>2011-04-07T08:36:32Z</time>
      </trkpt>
      <trkpt lat="44.77593" lon="4.54139">
        <ele>634.61</ele>
        <time>2011-04-07T08:36:39Z</time>
      </trkpt>
      <trkpt lat="44.77585" lon="4.54142">
        <ele>634.13</ele>
        <time>2011-04-07T08:36:44Z</time>
      </trkpt>
      <trkpt lat="44.77576" lon="4.54134">
        <ele>633.65</ele>
        <time>2011-04-07T08:36:52Z</time>
      </trkpt>
      <trkpt lat="44.77572" lon="4.54139">
        <ele>632.68</ele>
        <time>2011-04-07T08:36:59Z</time>
      </trkpt>
      <trkpt lat="44.77567" lon="4.54135">
        <ele>632.68</ele>
        <time>2011-04-07T08:37:05Z</time>
      </trkpt>
      <trkpt lat="44.77565" lon="4.54135">
        <ele>632.2</ele>
        <time>2011-04-07T08:37:07Z</time>
      </trkpt>
      <trkpt lat="44.7756" lon="4.54137">
        <ele>632.2</ele>
        <time>2011-04-07T08:37:14Z</time>
      </trkpt>
      <trkpt lat="44.7756" lon="4.54139">
        <ele>631.72</ele>
        <time>2011-04-07T08:37:19Z</time>
      </trkpt>
      <trkpt lat="44.77548" lon="4.5414">
        <ele>631.72</ele>
        <time>2011-04-07T08:37:26Z</time>
      </trkpt>
      <trkpt lat="44.7754" lon="4.5414">
        <ele>631.24</ele>
        <time>2011-04-07T08:37:34Z</time>
      </trkpt>
      <trkpt lat="44.77534" lon="4.5414">
        <ele>630.76</ele>
        <time>2011-04-07T08:37:38Z</time>
      </trkpt>
      <trkpt lat="44.7753" lon="4.54143">
        <ele>630.76</ele>
        <time>2011-04-07T08:37:45Z</time>
      </trkpt>
      <trkpt lat="44.77526" lon="4.54147">
        <ele>630.76</ele>
        <time>2011-04-07T08:37:51Z</time>
      </trkpt>
      <trkpt lat="44.77523" lon="4.54149">
        <ele>629.8</ele>
        <time>2011-04-07T08:37:54Z</time>
      </trkpt>
      <trkpt lat="44.77516" lon="4.5415">
        <ele>629.8</ele>
        <time>2011-04-07T08:38:02Z</time>
      </trkpt>
      <trkpt lat="44.77508" lon="4.5415">
        <ele>629.32</ele>
        <time>2011-04-07T08:38:09Z</time>
      </trkpt>
      <trkpt lat="44.77507" lon="4.54155">
        <ele>629.32</ele>
        <time>2011-04-07T08:38:14Z</time>
      </trkpt>
      <trkpt lat="44.77504" lon="4.54161">
        <ele>628.36</ele>
        <time>2011-04-07T08:38:18Z</time>
      </trkpt>
      <trkpt lat="44.77503" lon="4.54162">
        <ele>628.36</ele>
        <time>2011-04-07T08:38:20Z</time>
      </trkpt>
      <trkpt lat="44.77501" lon="4.54165">
        <ele>628.36</ele>
        <time>2011-04-07T08:38:26Z</time>
      </trkpt>
      <trkpt lat="44.77499" lon="4.54169">
        <ele>627.88</ele>
        <time>2011-04-07T08:38:28Z</time>
      </trkpt>
      <trkpt lat="44.77493" lon="4.54173">
        <ele>628.36</ele>
        <time>2011-04-07T08:38:37Z</time>
      </trkpt>
      <trkpt lat="44.77492" lon="4.54177">
        <ele>628.36</ele>
        <time>2011-04-07T08:38:42Z</time>
      </trkpt>
      <trkpt lat="44.7749" lon="4.54179">
        <ele>628.84</ele>
        <time>2011-04-07T08:38:45Z</time>
      </trkpt>
      <trkpt lat="44.77483" lon="4.54186">
        <ele>628.84</ele>
        <time>2011-04-07T08:38:51Z</time>
      </trkpt>
      <trkpt lat="44.7748" lon="4.54186">
        <ele>628.84</ele>
        <time>2011-04-07T08:38:57Z</time>
      </trkpt>
      <trkpt lat="44.77477" lon="4.54193">
        <ele>628.84</ele>
        <time>2011-04-07T08:38:59Z</time>
      </trkpt>
      <trkpt lat="44.77474" lon="4.5419">
        <ele>628.36</ele>
        <time>2011-04-07T08:39:05Z</time>
      </trkpt>
      <trkpt lat="44.77475" lon="4.54187">
        <ele>627.88</ele>
        <time>2011-04-07T08:39:06Z</time>
      </trkpt>
      <trkpt lat="44.77476" lon="4.54184">
        <ele>626.92</ele>
        <time>2011-04-07T08:39:14Z</time>
      </trkpt>
      <trkpt lat="44.77476" lon="4.54179">
        <ele>625.96</ele>
        <time>2011-04-07T08:39:20Z</time>
      </trkpt>
      <trkpt lat="44.77479" lon="4.54173">
        <ele>624.99</ele>
        <time>2011-04-07T08:39:27Z</time>
      </trkpt>
      <trkpt lat="44.77482" lon="4.54171">
        <ele>624.03</ele>
        <time>2011-04-07T08:39:33Z</time>
      </trkpt>
      <trkpt lat="44.77479" lon="4.5417">
        <ele>623.07</ele>
        <time>2011-04-07T08:39:39Z</time>
      </trkpt>
      <trkpt lat="44.77487" lon="4.54168">
        <ele>623.07</ele>
        <time>2011-04-07T08:39:47Z</time>
      </trkpt>
      <trkpt lat="44.77485" lon="4.54155">
        <ele>622.59</ele>
        <time>2011-04-07T08:39:54Z</time>
      </trkpt>
      <trkpt lat="44.77491" lon="4.5415">
        <ele>621.15</ele>
        <time>2011-04-07T08:40:03Z</time>
      </trkpt>
      <trkpt lat="44.77491" lon="4.5415">
        <ele>621.15</ele>
        <time>2011-04-07T08:40:04Z</time>
      </trkpt>
      <trkpt lat="44.77494" lon="4.54138">
        <ele>620.19</ele>
        <time>2011-04-07T08:40:11Z</time>
      </trkpt>
      <trkpt lat="44.77491" lon="4.54132">
        <ele>617.78</ele>
        <time>2011-04-07T08:40:18Z</time>
      </trkpt>
      <trkpt lat="44.77497" lon="4.54125">
        <ele>616.34</ele>
        <time>2011-04-07T08:40:25Z</time>
      </trkpt>
      <trkpt lat="44.77495" lon="4.54119">
        <ele>615.38</ele>
        <time>2011-04-07T08:40:32Z</time>
      </trkpt>
      <trkpt lat="44.77491" lon="4.54121">
        <ele>613.94</ele>
        <time>2011-04-07T08:40:38Z</time>
      </trkpt>
      <trkpt lat="44.77484" lon="4.54129">
        <ele>613.46</ele>
        <time>2011-04-07T08:40:46Z</time>
      </trkpt>
      <trkpt lat="44.77479" lon="4.54133">
        <ele>611.54</ele>
        <time>2011-04-07T08:40:51Z</time>
      </trkpt>
      <trkpt lat="44.77478" lon="4.54136">
        <ele>611.06</ele>
        <time>2011-04-07T08:40:54Z</time>
      </trkpt>
      <trkpt lat="44.77481" lon="4.54134">
        <ele>609.61</ele>
        <time>2011-04-07T08:41:03Z</time>
      </trkpt>
      <trkpt lat="44.77478" lon="4.54138">
        <ele>607.69</ele>
        <time>2011-04-07T08:41:14Z</time>
      </trkpt>
      <trkpt lat="44.77475" lon="4.5413">
        <ele>606.73</ele>
        <time>2011-04-07T08:41:21Z</time>
      </trkpt>
      <trkpt lat="44.77468" lon="4.54136">
        <ele>604.33</ele>
        <time>2011-04-07T08:41:28Z</time>
      </trkpt>
      <trkpt lat="44.77463" lon="4.5414">
        <ele>602.88</ele>
        <time>2011-04-07T08:41:36Z</time>
      </trkpt>
      <trkpt lat="44.77461" lon="4.54137">
        <ele>601.92</ele>
        <time>2011-04-07T08:41:43Z</time>
      </trkpt>
      <trkpt lat="44.7746" lon="4.5414">
        <ele>600.96</ele>
        <time>2011-04-07T08:41:50Z</time>
      </trkpt>
      <trkpt lat="44.77457" lon="4.54142">
        <ele>600</ele>
        <time>2011-04-07T08:42:01Z</time>
      </trkpt>
      <trkpt lat="44.77458" lon="4.5414">
        <ele>599.04</ele>
        <time>2011-04-07T08:42:08Z</time>
      </trkpt>
      <trkpt lat="44.77454" lon="4.54134">
        <ele>598.08</ele>
        <time>2011-04-07T08:42:15Z</time>
      </trkpt>
      <trkpt lat="44.77452" lon="4.54136">
        <ele>595.19</ele>
        <time>2011-04-07T08:42:36Z</time>
      </trkpt>
      <trkpt lat="44.77447" lon="4.54139">
        <ele>594.23</ele>
        <time>2011-04-07T08:42:43Z</time>
      </trkpt>
      <trkpt lat="44.77444" lon="4.54139">
        <ele>593.27</ele>
        <time>2011-04-07T08:43:03Z</time>
      </trkpt>
      <trkpt lat="44.77441" lon="4.54139">
        <ele>592.31</ele>
        <time>2011-04-07T08:43:09Z</time>
      </trkpt>
      <trkpt lat="44.77432" lon="4.5414">
        <ele>591.35</ele>
        <time>2011-04-07T08:43:16Z</time>
      </trkpt>
      <trkpt lat="44.77426" lon="4.54137">
        <ele>590.87</ele>
        <time>2011-04-07T08:43:23Z</time>
      </trkpt>
      <trkpt lat="44.77423" lon="4.54137">
        <ele>590.39</ele>
        <time>2011-04-07T08:43:29Z</time>
      </trkpt>
      <trkpt lat="44.7742" lon="4.54133">
        <ele>589.43</ele>
        <time>2011-04-07T08:43:35Z</time>
      </trkpt>
      <trkpt lat="44.77422" lon="4.54136">
        <ele>589.43</ele>
        <time>2011-04-07T08:43:42Z</time>
      </trkpt>
      <trkpt lat="44.7742" lon="4.54134">
        <ele>587.98</ele>
        <time>2011-04-07T08:44:31Z</time>
      </trkpt>
      <trkpt lat="44.77416" lon="4.5413">
        <ele>587.5</ele>
        <time>2011-04-07T08:44:38Z</time>
      </trkpt>
      <trkpt lat="44.77412" lon="4.5413">
        <ele>587.02</ele>
        <time>2011-04-07T08:44:42Z</time>
      </trkpt>
      <trkpt lat="44.77406" lon="4.5413">
        <ele>587.02</ele>
        <time>2011-04-07T08:44:48Z</time>
      </trkpt>
      <trkpt lat="44.77405" lon="4.54136">
        <ele>587.5</ele>
        <time>2011-04-07T08:44:55Z</time>
      </trkpt>
      <trkpt lat="44.77403" lon="4.54132">
        <ele>586.54</ele>
        <time>2011-04-07T08:45:07Z</time>
      </trkpt>
      <trkpt lat="44.77403" lon="4.5413">
        <ele>586.54</ele>
        <time>2011-04-07T08:45:13Z</time>
      </trkpt>
      <trkpt lat="44.774" lon="4.5413">
        <ele>586.06</ele>
        <time>2011-04-07T08:45:23Z</time>
      </trkpt>
      <trkpt lat="44.77401" lon="4.54138">
        <ele>587.02</ele>
        <time>2011-04-07T08:45:33Z</time>
      </trkpt>
      <trkpt lat="44.77401" lon="4.54143">
        <ele>587.02</ele>
        <time>2011-04-07T08:45:41Z</time>
      </trkpt>
      <trkpt lat="44.77401" lon="4.54144">
        <ele>587.02</ele>
        <time>2011-04-07T08:46:16Z</time>
      </trkpt>
      <trkpt lat="44.77398" lon="4.54155">
        <ele>587.98</ele>
        <time>2011-04-07T08:46:24Z</time>
      </trkpt>
      <trkpt lat="44.77407" lon="4.54155">
        <ele>588.95</ele>
        <time>2011-04-07T08:46:30Z</time>
      </trkpt>
      <trkpt lat="44.77407" lon="4.54156">
        <ele>589.91</ele>
        <time>2011-04-07T08:46:35Z</time>
      </trkpt>
      <trkpt lat="44.77411" lon="4.54158">
        <ele>589.91</ele>
        <time>2011-04-07T08:46:41Z</time>
      </trkpt>
      <trkpt lat="44.77411" lon="4.54162">
        <ele>591.35</ele>
        <time>2011-04-07T08:46:48Z</time>
      </trkpt>
      <trkpt lat="44.77413" lon="4.54163">
        <ele>591.35</ele>
        <time>2011-04-07T08:47:00Z</time>
      </trkpt>
      <trkpt lat="44.77414" lon="4.54164">
        <ele>591.35</ele>
        <time>2011-04-07T08:47:09Z</time>
      </trkpt>
      <trkpt lat="44.77414" lon="4.54154">
        <ele>591.35</ele>
        <time>2011-04-07T08:49:55Z</time>
      </trkpt>
      <trkpt lat="44.77414" lon="4.54149">
        <ele>590.87</ele>
        <time>2011-04-07T08:50:01Z</time>
      </trkpt>
      <trkpt lat="44.77411" lon="4.54153">
        <ele>590.87</ele>
        <time>2011-04-07T08:50:08Z</time>
      </trkpt>
      <trkpt lat="44.77408" lon="4.54153">
        <ele>589.91</ele>
        <time>2011-04-07T08:50:14Z</time>
      </trkpt>
      <trkpt lat="44.77401" lon="4.54153">
        <ele>588.95</ele>
        <time>2011-04-07T08:50:21Z</time>
      </trkpt>
      <trkpt lat="44.77399" lon="4.54157">
        <ele>588.95</ele>
        <time>2011-04-07T08:50:28Z</time>
      </trkpt>
      <trkpt lat="44.77398" lon="4.54164">
        <ele>589.43</ele>
        <time>2011-04-07T08:50:43Z</time>
      </trkpt>
      <trkpt lat="44.77396" lon="4.54161">
        <ele>589.91</ele>
        <time>2011-04-07T08:50:52Z</time>
      </trkpt>
      <trkpt lat="44.77397" lon="4.5416">
        <ele>588.95</ele>
        <time>2011-04-07T08:51:39Z</time>
      </trkpt>
      <trkpt lat="44.77402" lon="4.54154">
        <ele>588.95</ele>
        <time>2011-04-07T08:51:47Z</time>
      </trkpt>
      <trkpt lat="44.77403" lon="4.54145">
        <ele>587.98</ele>
        <time>2011-04-07T08:51:54Z</time>
      </trkpt>
      <trkpt lat="44.77404" lon="4.54134">
        <ele>587.02</ele>
        <time>2011-04-07T08:52:03Z</time>
      </trkpt>
      <trkpt lat="44.77405" lon="4.54135">
        <ele>587.02</ele>
        <time>2011-04-07T08:52:09Z</time>
      </trkpt>
      <trkpt lat="44.77405" lon="4.54134">
        <ele>586.54</ele>
        <time>2011-04-07T08:52:44Z</time>
      </trkpt>
      <trkpt lat="44.77404" lon="4.54133">
        <ele>586.54</ele>
        <time>2011-04-07T08:52:57Z</time>
      </trkpt>
      <trkpt lat="44.77404" lon="4.54133">
        <ele>586.06</ele>
        <time>2011-04-07T08:56:34Z</time>
      </trkpt>
      <trkpt lat="44.77403" lon="4.5413">
        <ele>585.58</ele>
        <time>2011-04-07T08:57:03Z</time>
      </trkpt>
      <trkpt lat="44.77398" lon="4.54126">
        <ele>585.58</ele>
        <time>2011-04-07T08:57:11Z</time>
      </trkpt>
      <trkpt lat="44.77395" lon="4.54131">
        <ele>583.18</ele>
        <time>2011-04-07T08:57:21Z</time>
      </trkpt>
      <trkpt lat="44.77389" lon="4.54136">
        <ele>581.25</ele>
        <time>2011-04-07T08:57:29Z</time>
      </trkpt>
      <trkpt lat="44.77391" lon="4.54128">
        <ele>579.33</ele>
        <time>2011-04-07T08:57:38Z</time>
      </trkpt>
      <trkpt lat="44.77385" lon="4.54133">
        <ele>577.41</ele>
        <time>2011-04-07T08:57:46Z</time>
      </trkpt>
      <trkpt lat="44.77384" lon="4.54138">
        <ele>574.04</ele>
        <time>2011-04-07T08:57:54Z</time>
      </trkpt>
      <trkpt lat="44.77387" lon="4.54119">
        <ele>571.16</ele>
        <time>2011-04-07T08:58:08Z</time>
      </trkpt>
      <trkpt lat="44.77389" lon="4.54117">
        <ele>570.2</ele>
        <time>2011-04-07T08:58:14Z</time>
      </trkpt>
      <trkpt lat="44.77387" lon="4.54108">
        <ele>566.83</ele>
        <time>2011-04-07T08:58:28Z</time>
      </trkpt>
      <trkpt lat="44.77387" lon="4.54106">
        <ele>565.87</ele>
        <time>2011-04-07T08:58:34Z</time>
      </trkpt>
      <trkpt lat="44.77387" lon="4.541">
        <ele>564.43</ele>
        <time>2011-04-07T08:58:40Z</time>
      </trkpt>
      <trkpt lat="44.77387" lon="4.54093">
        <ele>562.51</ele>
        <time>2011-04-07T08:58:47Z</time>
      </trkpt>
      <trkpt lat="44.77394" lon="4.54081">
        <ele>562.03</ele>
        <time>2011-04-07T08:58:53Z</time>
      </trkpt>
      <trkpt lat="44.77397" lon="4.54067">
        <ele>560.59</ele>
        <time>2011-04-07T08:59:00Z</time>
      </trkpt>
      <trkpt lat="44.77395" lon="4.54061">
        <ele>559.14</ele>
        <time>2011-04-07T08:59:12Z</time>
      </trkpt>
      <trkpt lat="44.77395" lon="4.54058">
        <ele>558.18</ele>
        <time>2011-04-07T08:59:18Z</time>
      </trkpt>
      <trkpt lat="44.77395" lon="4.54055">
        <ele>557.7</ele>
        <time>2011-04-07T08:59:30Z</time>
      </trkpt>
      <trkpt lat="44.77389" lon="4.54044">
        <ele>556.26</ele>
        <time>2011-04-07T08:59:53Z</time>
      </trkpt>
      <trkpt lat="44.77386" lon="4.54037">
        <ele>556.74</ele>
        <time>2011-04-07T09:00:00Z</time>
      </trkpt>
      <trkpt lat="44.77385" lon="4.54035">
        <ele>556.74</ele>
        <time>2011-04-07T09:00:05Z</time>
      </trkpt>
      <trkpt lat="44.77383" lon="4.54031">
        <ele>556.74</ele>
        <time>2011-04-07T09:00:11Z</time>
      </trkpt>
      <trkpt lat="44.77382" lon="4.54026">
        <ele>557.22</ele>
        <time>2011-04-07T09:00:15Z</time>
      </trkpt>
      <trkpt lat="44.77384" lon="4.54016">
        <ele>556.74</ele>
        <time>2011-04-07T09:00:23Z</time>
      </trkpt>
      <trkpt lat="44.77385" lon="4.5401">
        <ele>557.22</ele>
        <time>2011-04-07T09:00:29Z</time>
      </trkpt>
      <trkpt lat="44.77386" lon="4.54005">
        <ele>556.74</ele>
        <time>2011-04-07T09:00:35Z</time>
      </trkpt>
      <trkpt lat="44.77389" lon="4.54002">
        <ele>556.74</ele>
        <time>2011-04-07T09:00:40Z</time>
      </trkpt>
      <trkpt lat="44.77392" lon="4.54">
        <ele>556.74</ele>
        <time>2011-04-07T09:00:46Z</time>
      </trkpt>
      <trkpt lat="44.77396" lon="4.53996">
        <ele>557.7</ele>
        <time>2011-04-07T09:00:54Z</time>
      </trkpt>
      <trkpt lat="44.77396" lon="4.53987">
        <ele>557.22</ele>
        <time>2011-04-07T09:01:02Z</time>
      </trkpt>
      <trkpt lat="44.77394" lon="4.53973">
        <ele>556.74</ele>
        <time>2011-04-07T09:01:09Z</time>
      </trkpt>
      <trkpt lat="44.77391" lon="4.53964">
        <ele>556.74</ele>
        <time>2011-04-07T09:01:17Z</time>
      </trkpt>
      <trkpt lat="44.7739" lon="4.53944">
        <ele>557.7</ele>
        <time>2011-04-07T09:01:25Z</time>
      </trkpt>
      <trkpt lat="44.7739" lon="4.53945">
        <ele>557.22</ele>
        <time>2011-04-07T09:01:29Z</time>
      </trkpt>
      <trkpt lat="44.77386" lon="4.53935">
        <ele>558.18</ele>
        <time>2011-04-07T09:01:34Z</time>
      </trkpt>
      <trkpt lat="44.77384" lon="4.53925">
        <ele>558.18</ele>
        <time>2011-04-07T09:01:41Z</time>
      </trkpt>
      <trkpt lat="44.77381" lon="4.53916">
        <ele>558.66</ele>
        <time>2011-04-07T09:01:47Z</time>
      </trkpt>
      <trkpt lat="44.77374" lon="4.53906">
        <ele>559.14</ele>
        <time>2011-04-07T09:01:52Z</time>
      </trkpt>
      <trkpt lat="44.7737" lon="4.53907">
        <ele>560.11</ele>
        <time>2011-04-07T09:02:01Z</time>
      </trkpt>
      <trkpt lat="44.77368" lon="4.53906">
        <ele>560.59</ele>
        <time>2011-04-07T09:02:03Z</time>
      </trkpt>
      <trkpt lat="44.77364" lon="4.53902">
        <ele>561.07</ele>
        <time>2011-04-07T09:02:09Z</time>
      </trkpt>
      <trkpt lat="44.7736" lon="4.53902">
        <ele>561.55</ele>
        <time>2011-04-07T09:02:15Z</time>
      </trkpt>
      <trkpt lat="44.77358" lon="4.53891">
        <ele>562.51</ele>
        <time>2011-04-07T09:02:20Z</time>
      </trkpt>
      <trkpt lat="44.77357" lon="4.53888">
        <ele>562.03</ele>
        <time>2011-04-07T09:02:27Z</time>
      </trkpt>
      <trkpt lat="44.77354" lon="4.53884">
        <ele>562.03</ele>
        <time>2011-04-07T09:02:40Z</time>
      </trkpt>
      <trkpt lat="44.77355" lon="4.53888">
        <ele>563.47</ele>
        <time>2011-04-07T09:02:49Z</time>
      </trkpt>
      <trkpt lat="44.77355" lon="4.53891">
        <ele>564.91</ele>
        <time>2011-04-07T09:03:04Z</time>
      </trkpt>
      <trkpt lat="44.77355" lon="4.53895">
        <ele>565.39</ele>
        <time>2011-04-07T09:03:10Z</time>
      </trkpt>
      <trkpt lat="44.77353" lon="4.53904">
        <ele>566.83</ele>
        <time>2011-04-07T09:03:23Z</time>
      </trkpt>
      <trkpt lat="44.77351" lon="4.53904">
        <ele>569.72</ele>
        <time>2011-04-07T09:03:39Z</time>
      </trkpt>
      <trkpt lat="44.77346" lon="4.53901">
        <ele>569.72</ele>
        <time>2011-04-07T09:03:46Z</time>
      </trkpt>
      <trkpt lat="44.77343" lon="4.53898">
        <ele>571.16</ele>
        <time>2011-04-07T09:03:51Z</time>
      </trkpt>
      <trkpt lat="44.77341" lon="4.53895">
        <ele>571.64</ele>
        <time>2011-04-07T09:03:57Z</time>
      </trkpt>
      <trkpt lat="44.77337" lon="4.53892">
        <ele>572.12</ele>
        <time>2011-04-07T09:04:03Z</time>
      </trkpt>
      <trkpt lat="44.77337" lon="4.53893">
        <ele>572.6</ele>
        <time>2011-04-07T09:04:11Z</time>
      </trkpt>
      <trkpt lat="44.77335" lon="4.53893">
        <ele>573.56</ele>
        <time>2011-04-07T09:04:20Z</time>
      </trkpt>
      <trkpt lat="44.77334" lon="4.53893">
        <ele>575.01</ele>
        <time>2011-04-07T09:04:38Z</time>
      </trkpt>
      <trkpt lat="44.77331" lon="4.53893">
        <ele>575.97</ele>
        <time>2011-04-07T09:04:44Z</time>
      </trkpt>
      <trkpt lat="44.77329" lon="4.53893">
        <ele>577.41</ele>
        <time>2011-04-07T09:04:56Z</time>
      </trkpt>
      <trkpt lat="44.77326" lon="4.53893">
        <ele>578.37</ele>
        <time>2011-04-07T09:05:09Z</time>
      </trkpt>
      <trkpt lat="44.77325" lon="4.53892">
        <ele>578.37</ele>
        <time>2011-04-07T09:05:21Z</time>
      </trkpt>
      <trkpt lat="44.77323" lon="4.53892">
        <ele>578.85</ele>
        <time>2011-04-07T09:05:44Z</time>
      </trkpt>
      <trkpt lat="44.77322" lon="4.53891">
        <ele>578.85</ele>
        <time>2011-04-07T09:06:08Z</time>
      </trkpt>
      <trkpt lat="44.77321" lon="4.53887">
        <ele>576.93</ele>
        <time>2011-04-07T09:06:18Z</time>
      </trkpt>
      <trkpt lat="44.77319" lon="4.53884">
        <ele>576.93</ele>
        <time>2011-04-07T09:06:25Z</time>
      </trkpt>
      <trkpt lat="44.77318" lon="4.53881">
        <ele>575.49</ele>
        <time>2011-04-07T09:06:33Z</time>
      </trkpt>
      <trkpt lat="44.77318" lon="4.5388">
        <ele>574.53</ele>
        <time>2011-04-07T09:06:39Z</time>
      </trkpt>
      <trkpt lat="44.77318" lon="4.53878">
        <ele>573.08</ele>
        <time>2011-04-07T09:06:43Z</time>
      </trkpt>
      <trkpt lat="44.77319" lon="4.53877">
        <ele>572.12</ele>
        <time>2011-04-07T09:06:48Z</time>
      </trkpt>
      <trkpt lat="44.77319" lon="4.53873">
        <ele>570.68</ele>
        <time>2011-04-07T09:06:54Z</time>
      </trkpt>
      <trkpt lat="44.77319" lon="4.53871">
        <ele>569.24</ele>
        <time>2011-04-07T09:07:00Z</time>
      </trkpt>
      <trkpt lat="44.7732" lon="4.53867">
        <ele>566.35</ele>
        <time>2011-04-07T09:07:08Z</time>
      </trkpt>
      <trkpt lat="44.77321" lon="4.53858">
        <ele>563.95</ele>
        <time>2011-04-07T09:07:19Z</time>
      </trkpt>
      <trkpt lat="44.77323" lon="4.53858">
        <ele>562.03</ele>
        <time>2011-04-07T09:07:26Z</time>
      </trkpt>
      <trkpt lat="44.77324" lon="4.53857">
        <ele>560.11</ele>
        <time>2011-04-07T09:07:36Z</time>
      </trkpt>
      <trkpt lat="44.77325" lon="4.53854">
        <ele>559.62</ele>
        <time>2011-04-07T09:07:42Z</time>
      </trkpt>
      <trkpt lat="44.77323" lon="4.53851">
        <ele>559.14</ele>
        <time>2011-04-07T09:07:50Z</time>
      </trkpt>
      <trkpt lat="44.77322" lon="4.5384">
        <ele>558.66</ele>
        <time>2011-04-07T09:08:10Z</time>
      </trkpt>
      <trkpt lat="44.77327" lon="4.53838">
        <ele>560.11</ele>
        <time>2011-04-07T09:08:20Z</time>
      </trkpt>
      <trkpt lat="44.7733" lon="4.53834">
        <ele>559.62</ele>
        <time>2011-04-07T09:08:26Z</time>
      </trkpt>
      <trkpt lat="44.77326" lon="4.53831">
        <ele>560.11</ele>
        <time>2011-04-07T09:08:38Z</time>
      </trkpt>
      <trkpt lat="44.77319" lon="4.5383">
        <ele>561.07</ele>
        <time>2011-04-07T09:10:01Z</time>
      </trkpt>
      <trkpt lat="44.77307" lon="4.53832">
        <ele>562.03</ele>
        <time>2011-04-07T09:10:14Z</time>
      </trkpt>
      <trkpt lat="44.77296" lon="4.53832">
        <ele>565.39</ele>
        <time>2011-04-07T09:10:35Z</time>
      </trkpt>
      <trkpt lat="44.7729" lon="4.53838">
        <ele>566.83</ele>
        <time>2011-04-07T09:10:46Z</time>
      </trkpt>
      <trkpt lat="44.77286" lon="4.53841">
        <ele>568.28</ele>
        <time>2011-04-07T09:10:52Z</time>
      </trkpt>
      <trkpt lat="44.77279" lon="4.53846">
        <ele>570.2</ele>
        <time>2011-04-07T09:11:01Z</time>
      </trkpt>
      <trkpt lat="44.77275" lon="4.53842">
        <ele>570.68</ele>
        <time>2011-04-07T09:11:07Z</time>
      </trkpt>
      <trkpt lat="44.77272" lon="4.53842">
        <ele>572.12</ele>
        <time>2011-04-07T09:11:15Z</time>
      </trkpt>
      <trkpt lat="44.77268" lon="4.53844">
        <ele>573.08</ele>
        <time>2011-04-07T09:11:21Z</time>
      </trkpt>
      <trkpt lat="44.77263" lon="4.53841">
        <ele>575.01</ele>
        <time>2011-04-07T09:11:34Z</time>
      </trkpt>
      <trkpt lat="44.77263" lon="4.53843">
        <ele>575.97</ele>
        <time>2011-04-07T09:11:41Z</time>
      </trkpt>
      <trkpt lat="44.77273" lon="4.53832">
        <ele>578.85</ele>
        <time>2011-04-07T09:11:57Z</time>
      </trkpt>
      <trkpt lat="44.77273" lon="4.53826">
        <ele>579.33</ele>
        <time>2011-04-07T09:12:04Z</time>
      </trkpt>
      <trkpt lat="44.77275" lon="4.53822">
        <ele>580.29</ele>
        <time>2011-04-07T09:12:08Z</time>
      </trkpt>
      <trkpt lat="44.77278" lon="4.53818">
        <ele>580.77</ele>
        <time>2011-04-07T09:12:14Z</time>
      </trkpt>
      <trkpt lat="44.77279" lon="4.53816">
        <ele>581.25</ele>
        <time>2011-04-07T09:12:16Z</time>
      </trkpt>
      <trkpt lat="44.77284" lon="4.53813">
        <ele>581.73</ele>
        <time>2011-04-07T09:12:23Z</time>
      </trkpt>
      <trkpt lat="44.77287" lon="4.53809">
        <ele>582.22</ele>
        <time>2011-04-07T09:12:30Z</time>
      </trkpt>
      <trkpt lat="44.77291" lon="4.53805">
        <ele>583.18</ele>
        <time>2011-04-07T09:12:36Z</time>
      </trkpt>
      <trkpt lat="44.7729" lon="4.53797">
        <ele>584.14</ele>
        <time>2011-04-07T09:12:46Z</time>
      </trkpt>
      <trkpt lat="44.77287" lon="4.53789">
        <ele>585.1</ele>
        <time>2011-04-07T09:12:54Z</time>
      </trkpt>
      <trkpt lat="44.77285" lon="4.53776">
        <ele>586.06</ele>
        <time>2011-04-07T09:13:01Z</time>
      </trkpt>
      <trkpt lat="44.77284" lon="4.53762">
        <ele>586.06</ele>
        <time>2011-04-07T09:13:10Z</time>
      </trkpt>
      <trkpt lat="44.77279" lon="4.53758">
        <ele>586.54</ele>
        <time>2011-04-07T09:13:15Z</time>
      </trkpt>
      <trkpt lat="44.77276" lon="4.53754">
        <ele>587.02</ele>
        <time>2011-04-07T09:13:21Z</time>
      </trkpt>
      <trkpt lat="44.7727" lon="4.53745">
        <ele>587.5</ele>
        <time>2011-04-07T09:13:29Z</time>
      </trkpt>
      <trkpt lat="44.7727" lon="4.53742">
        <ele>587.5</ele>
        <time>2011-04-07T09:13:31Z</time>
      </trkpt>
      <trkpt lat="44.77265" lon="4.53734">
        <ele>587.02</ele>
        <time>2011-04-07T09:13:40Z</time>
      </trkpt>
      <trkpt lat="44.77263" lon="4.53731">
        <ele>586.54</ele>
        <time>2011-04-07T09:13:42Z</time>
      </trkpt>
      <trkpt lat="44.77257" lon="4.53717">
        <ele>586.54</ele>
        <time>2011-04-07T09:13:51Z</time>
      </trkpt>
      <trkpt lat="44.77261" lon="4.53716">
        <ele>587.02</ele>
        <time>2011-04-07T09:13:54Z</time>
      </trkpt>
      <trkpt lat="44.77273" lon="4.53712">
        <ele>587.02</ele>
        <time>2011-04-07T09:14:02Z</time>
      </trkpt>
      <trkpt lat="44.77277" lon="4.53715">
        <ele>587.98</ele>
        <time>2011-04-07T09:14:09Z</time>
      </trkpt>
      <trkpt lat="44.77277" lon="4.53717">
        <ele>588.95</ele>
        <time>2011-04-07T09:14:16Z</time>
      </trkpt>
      <trkpt lat="44.77286" lon="4.53716">
        <ele>589.91</ele>
        <time>2011-04-07T09:14:24Z</time>
      </trkpt>
      <trkpt lat="44.77291" lon="4.53718">
        <ele>590.87</ele>
        <time>2011-04-07T09:14:30Z</time>
      </trkpt>
      <trkpt lat="44.77294" lon="4.53718">
        <ele>592.31</ele>
        <time>2011-04-07T09:14:36Z</time>
      </trkpt>
      <trkpt lat="44.77297" lon="4.53722">
        <ele>592.79</ele>
        <time>2011-04-07T09:14:38Z</time>
      </trkpt>
      <trkpt lat="44.77299" lon="4.5372">
        <ele>593.75</ele>
        <time>2011-04-07T09:14:45Z</time>
      </trkpt>
      <trkpt lat="44.77298" lon="4.53714">
        <ele>594.71</ele>
        <time>2011-04-07T09:14:50Z</time>
      </trkpt>
      <trkpt lat="44.77294" lon="4.53711">
        <ele>595.19</ele>
        <time>2011-04-07T09:14:56Z</time>
      </trkpt>
      <trkpt lat="44.7729" lon="4.53705">
        <ele>596.64</ele>
        <time>2011-04-07T09:15:03Z</time>
      </trkpt>
      <trkpt lat="44.77289" lon="4.53705">
        <ele>596.64</ele>
        <time>2011-04-07T09:15:04Z</time>
      </trkpt>
      <trkpt lat="44.7729" lon="4.53701">
        <ele>598.56</ele>
        <time>2011-04-07T09:15:12Z</time>
      </trkpt>
      <trkpt lat="44.7729" lon="4.53701">
        <ele>599.52</ele>
        <time>2011-04-07T09:15:18Z</time>
      </trkpt>
      <trkpt lat="44.77294" lon="4.53703">
        <ele>600.48</ele>
        <time>2011-04-07T09:15:26Z</time>
      </trkpt>
      <trkpt lat="44.77295" lon="4.53705">
        <ele>600.48</ele>
        <time>2011-04-07T09:15:35Z</time>
      </trkpt>
      <trkpt lat="44.77299" lon="4.53699">
        <ele>601.44</ele>
        <time>2011-04-07T09:15:42Z</time>
      </trkpt>
      <trkpt lat="44.77299" lon="4.53699">
        <ele>601.44</ele>
        <time>2011-04-07T09:15:43Z</time>
      </trkpt>
      <trkpt lat="44.7729" lon="4.53691">
        <ele>603.36</ele>
        <time>2011-04-07T09:15:51Z</time>
      </trkpt>
      <trkpt lat="44.77289" lon="4.53688">
        <ele>604.81</ele>
        <time>2011-04-07T09:15:59Z</time>
      </trkpt>
      <trkpt lat="44.77294" lon="4.53689">
        <ele>605.77</ele>
        <time>2011-04-07T09:16:06Z</time>
      </trkpt>
      <trkpt lat="44.77301" lon="4.5369">
        <ele>606.73</ele>
        <time>2011-04-07T09:16:13Z</time>
      </trkpt>
      <trkpt lat="44.77305" lon="4.53686">
        <ele>608.17</ele>
        <time>2011-04-07T09:16:20Z</time>
      </trkpt>
      <trkpt lat="44.77307" lon="4.53686">
        <ele>608.65</ele>
        <time>2011-04-07T09:16:26Z</time>
      </trkpt>
      <trkpt lat="44.77312" lon="4.53682">
        <ele>608.65</ele>
        <time>2011-04-07T09:16:39Z</time>
      </trkpt>
      <trkpt lat="44.77318" lon="4.53682">
        <ele>608.65</ele>
        <time>2011-04-07T09:16:44Z</time>
      </trkpt>
      <trkpt lat="44.77322" lon="4.53681">
        <ele>609.13</ele>
        <time>2011-04-07T09:16:51Z</time>
      </trkpt>
      <trkpt lat="44.77326" lon="4.53681">
        <ele>608.17</ele>
        <time>2011-04-07T09:16:59Z</time>
      </trkpt>
      <trkpt lat="44.77334" lon="4.53678">
        <ele>608.65</ele>
        <time>2011-04-07T09:17:05Z</time>
      </trkpt>
      <trkpt lat="44.77334" lon="4.5368">
        <ele>608.65</ele>
        <time>2011-04-07T09:17:07Z</time>
      </trkpt>
      <trkpt lat="44.7734" lon="4.53673">
        <ele>609.61</ele>
        <time>2011-04-07T09:17:14Z</time>
      </trkpt>
      <trkpt lat="44.77344" lon="4.53677">
        <ele>609.61</ele>
        <time>2011-04-07T09:17:16Z</time>
      </trkpt>
      <trkpt lat="44.7735" lon="4.53679">
        <ele>610.09</ele>
        <time>2011-04-07T09:17:25Z</time>
      </trkpt>
      <trkpt lat="44.77351" lon="4.53687">
        <ele>611.06</ele>
        <time>2011-04-07T09:17:32Z</time>
      </trkpt>
      <trkpt lat="44.77351" lon="4.53687">
        <ele>610.57</ele>
        <time>2011-04-07T09:17:43Z</time>
      </trkpt>
      <trkpt lat="44.7735" lon="4.53689">
        <ele>609.61</ele>
        <time>2011-04-07T09:17:50Z</time>
      </trkpt>
      <trkpt lat="44.77348" lon="4.5369">
        <ele>610.57</ele>
        <time>2011-04-07T09:18:30Z</time>
      </trkpt>
      <trkpt lat="44.7735" lon="4.53686">
        <ele>611.06</ele>
        <time>2011-04-07T09:18:36Z</time>
      </trkpt>
      <trkpt lat="44.77359" lon="4.53695">
        <ele>612.02</ele>
        <time>2011-04-07T09:18:43Z</time>
      </trkpt>
      <trkpt lat="44.77365" lon="4.53693">
        <ele>612.5</ele>
        <time>2011-04-07T09:18:51Z</time>
      </trkpt>
      <trkpt lat="44.7737" lon="4.53694">
        <ele>612.5</ele>
        <time>2011-04-07T09:18:55Z</time>
      </trkpt>
      <trkpt lat="44.77383" lon="4.53691">
        <ele>612.98</ele>
        <time>2011-04-07T09:19:03Z</time>
      </trkpt>
      <trkpt lat="44.77386" lon="4.53684">
        <ele>612.98</ele>
        <time>2011-04-07T09:19:08Z</time>
      </trkpt>
      <trkpt lat="44.77389" lon="4.5369">
        <ele>613.94</ele>
        <time>2011-04-07T09:19:15Z</time>
      </trkpt>
      <trkpt lat="44.77392" lon="4.5369">
        <ele>613.94</ele>
        <time>2011-04-07T09:19:17Z</time>
      </trkpt>
      <trkpt lat="44.77399" lon="4.53683">
        <ele>613.94</ele>
        <time>2011-04-07T09:19:26Z</time>
      </trkpt>
      <trkpt lat="44.77401" lon="4.53671">
        <ele>615.38</ele>
        <time>2011-04-07T09:19:34Z</time>
      </trkpt>
      <trkpt lat="44.77405" lon="4.53665">
        <ele>615.86</ele>
        <time>2011-04-07T09:19:41Z</time>
      </trkpt>
      <trkpt lat="44.77413" lon="4.53659">
        <ele>616.34</ele>
        <time>2011-04-07T09:19:50Z</time>
      </trkpt>
      <trkpt lat="44.77418" lon="4.5365">
        <ele>616.82</ele>
        <time>2011-04-07T09:19:59Z</time>
      </trkpt>
      <trkpt lat="44.77425" lon="4.53649">
        <ele>616.34</ele>
        <time>2011-04-07T09:20:08Z</time>
      </trkpt>
      <trkpt lat="44.77427" lon="4.53642">
        <ele>615.86</ele>
        <time>2011-04-07T09:21:13Z</time>
      </trkpt>
      <trkpt lat="44.77433" lon="4.53633">
        <ele>615.86</ele>
        <time>2011-04-07T09:21:18Z</time>
      </trkpt>
      <trkpt lat="44.77438" lon="4.53624">
        <ele>615.38</ele>
        <time>2011-04-07T09:21:27Z</time>
      </trkpt>
      <trkpt lat="44.7744" lon="4.53625">
        <ele>615.86</ele>
        <time>2011-04-07T09:21:36Z</time>
      </trkpt>
      <trkpt lat="44.7744" lon="4.53625">
        <ele>615.86</ele>
        <time>2011-04-07T09:21:58Z</time>
      </trkpt>
      <trkpt lat="44.77438" lon="4.53623">
        <ele>614.9</ele>
        <time>2011-04-07T09:22:22Z</time>
      </trkpt>
      <trkpt lat="44.77442" lon="4.5362">
        <ele>614.9</ele>
        <time>2011-04-07T09:22:34Z</time>
      </trkpt>
      <trkpt lat="44.77444" lon="4.53621">
        <ele>615.38</ele>
        <time>2011-04-07T09:22:47Z</time>
      </trkpt>
      <trkpt lat="44.77444" lon="4.53621">
        <ele>614.9</ele>
        <time>2011-04-07T09:23:17Z</time>
      </trkpt>
      <trkpt lat="44.77444" lon="4.53621">
        <ele>614.42</ele>
        <time>2011-04-07T09:23:45Z</time>
      </trkpt>
      <trkpt lat="44.77444" lon="4.53618">
        <ele>615.38</ele>
        <time>2011-04-07T09:24:22Z</time>
      </trkpt>
      <trkpt lat="44.77444" lon="4.53618">
        <ele>610.09</ele>
        <time>2011-04-07T09:24:41Z</time>
      </trkpt>
      <trkpt lat="44.77444" lon="4.53618">
        <ele>615.86</ele>
        <time>2011-04-07T09:24:42Z</time>
      </trkpt>
      <trkpt lat="44.77444" lon="4.53618">
        <ele>611.06</ele>
        <time>2011-04-07T09:24:45Z</time>
      </trkpt>
      <trkpt lat="44.77444" lon="4.53618">
        <ele>615.38</ele>
        <time>2011-04-07T09:24:46Z</time>
      </trkpt>
      <trkpt lat="44.77444" lon="4.53618">
        <ele>610.57</ele>
        <time>2011-04-07T09:24:55Z</time>
      </trkpt>
      <trkpt lat="44.77444" lon="4.53618">
        <ele>612.02</ele>
        <time>2011-04-07T09:24:56Z</time>
      </trkpt>
      <trkpt lat="44.77444" lon="4.53618">
        <ele>615.38</ele>
        <time>2011-04-07T09:24:57Z</time>
      </trkpt>
      <trkpt lat="44.77444" lon="4.53618">
        <ele>614.9</ele>
        <time>2011-04-07T09:24:58Z</time>
      </trkpt>
      <trkpt lat="44.77444" lon="4.53621">
        <ele>614.9</ele>
        <time>2011-04-07T09:25:09Z</time>
      </trkpt>
      <trkpt lat="44.7744" lon="4.5362">
        <ele>614.9</ele>
        <time>2011-04-07T09:25:17Z</time>
      </trkpt>
      <trkpt lat="44.77437" lon="4.5362">
        <ele>615.86</ele>
        <time>2011-04-07T09:25:23Z</time>
      </trkpt>
      <trkpt lat="44.77432" lon="4.53623">
        <ele>616.34</ele>
        <time>2011-04-07T09:25:30Z</time>
      </trkpt>
      <trkpt lat="44.77429" lon="4.53629">
        <ele>617.3</ele>
        <time>2011-04-07T09:25:37Z</time>
      </trkpt>
      <trkpt lat="44.77425" lon="4.53631">
        <ele>618.26</ele>
        <time>2011-04-07T09:25:44Z</time>
      </trkpt>
      <trkpt lat="44.77424" lon="4.53632">
        <ele>618.75</ele>
        <time>2011-04-07T09:25:45Z</time>
      </trkpt>
      <trkpt lat="44.77419" lon="4.53637">
        <ele>618.75</ele>
        <time>2011-04-07T09:25:54Z</time>
      </trkpt>
      <trkpt lat="44.77412" lon="4.53638">
        <ele>619.71</ele>
        <time>2011-04-07T09:26:01Z</time>
      </trkpt>
      <trkpt lat="44.77411" lon="4.53636">
        <ele>620.19</ele>
        <time>2011-04-07T09:26:08Z</time>
      </trkpt>
      <trkpt lat="44.77408" lon="4.53637">
        <ele>621.15</ele>
        <time>2011-04-07T09:26:22Z</time>
      </trkpt>
      <trkpt lat="44.77402" lon="4.53637">
        <ele>621.63</ele>
        <time>2011-04-07T09:26:29Z</time>
      </trkpt>
      <trkpt lat="44.77401" lon="4.53637">
        <ele>621.63</ele>
        <time>2011-04-07T09:26:30Z</time>
      </trkpt>
      <trkpt lat="44.77398" lon="4.53636">
        <ele>622.59</ele>
        <time>2011-04-07T09:26:34Z</time>
      </trkpt>
      <trkpt lat="44.77394" lon="4.53631">
        <ele>622.59</ele>
        <time>2011-04-07T09:26:37Z</time>
      </trkpt>
      <trkpt lat="44.77395" lon="4.53625">
        <ele>623.07</ele>
        <time>2011-04-07T09:26:44Z</time>
      </trkpt>
      <trkpt lat="44.77397" lon="4.53621">
        <ele>624.03</ele>
        <time>2011-04-07T09:26:47Z</time>
      </trkpt>
      <trkpt lat="44.77396" lon="4.53614">
        <ele>624.03</ele>
        <time>2011-04-07T09:26:54Z</time>
      </trkpt>
      <trkpt lat="44.77396" lon="4.53603">
        <ele>623.55</ele>
        <time>2011-04-07T09:27:02Z</time>
      </trkpt>
      <trkpt lat="44.77403" lon="4.53595">
        <ele>623.55</ele>
        <time>2011-04-07T09:27:10Z</time>
      </trkpt>
      <trkpt lat="44.77401" lon="4.53593">
        <ele>623.55</ele>
        <time>2011-04-07T09:27:13Z</time>
      </trkpt>
      <trkpt lat="44.77404" lon="4.53589">
        <ele>623.55</ele>
        <time>2011-04-07T09:27:17Z</time>
      </trkpt>
      <trkpt lat="44.77406" lon="4.53585">
        <ele>623.07</ele>
        <time>2011-04-07T09:27:25Z</time>
      </trkpt>
      <trkpt lat="44.77407" lon="4.53583">
        <ele>623.07</ele>
        <time>2011-04-07T09:27:27Z</time>
      </trkpt>
      <trkpt lat="44.77406" lon="4.5357">
        <ele>623.07</ele>
        <time>2011-04-07T09:27:35Z</time>
      </trkpt>
      <trkpt lat="44.77406" lon="4.53561">
        <ele>623.07</ele>
        <time>2011-04-07T09:27:41Z</time>
      </trkpt>
      <trkpt lat="44.77403" lon="4.53549">
        <ele>622.59</ele>
        <time>2011-04-07T09:27:50Z</time>
      </trkpt>
      <trkpt lat="44.77396" lon="4.53531">
        <ele>622.11</ele>
        <time>2011-04-07T09:28:01Z</time>
      </trkpt>
      <trkpt lat="44.77392" lon="4.53519">
        <ele>621.63</ele>
        <time>2011-04-07T09:28:07Z</time>
      </trkpt>
      <trkpt lat="44.77389" lon="4.5351">
        <ele>621.15</ele>
        <time>2011-04-07T09:28:15Z</time>
      </trkpt>
      <trkpt lat="44.77387" lon="4.53505">
        <ele>621.15</ele>
        <time>2011-04-07T09:28:18Z</time>
      </trkpt>
      <trkpt lat="44.77381" lon="4.53496">
        <ele>620.67</ele>
        <time>2011-04-07T09:28:25Z</time>
      </trkpt>
      <trkpt lat="44.77367" lon="4.53488">
        <ele>619.71</ele>
        <time>2011-04-07T09:28:34Z</time>
      </trkpt>
      <trkpt lat="44.77357" lon="4.53482">
        <ele>620.19</ele>
        <time>2011-04-07T09:28:44Z</time>
      </trkpt>
      <trkpt lat="44.7735" lon="4.53482">
        <ele>620.19</ele>
        <time>2011-04-07T09:28:51Z</time>
      </trkpt>
      <trkpt lat="44.77345" lon="4.53478">
        <ele>620.19</ele>
        <time>2011-04-07T09:28:55Z</time>
      </trkpt>
      <trkpt lat="44.77339" lon="4.5347">
        <ele>619.23</ele>
        <time>2011-04-07T09:29:04Z</time>
      </trkpt>
      <trkpt lat="44.77334" lon="4.53458">
        <ele>617.78</ele>
        <time>2011-04-07T09:29:12Z</time>
      </trkpt>
      <trkpt lat="44.77331" lon="4.53447">
        <ele>617.78</ele>
        <time>2011-04-07T09:29:17Z</time>
      </trkpt>
      <trkpt lat="44.77328" lon="4.53433">
        <ele>616.82</ele>
        <time>2011-04-07T09:29:27Z</time>
      </trkpt>
      <trkpt lat="44.77329" lon="4.53429">
        <ele>614.9</ele>
        <time>2011-04-07T09:29:35Z</time>
      </trkpt>
      <trkpt lat="44.77326" lon="4.53417">
        <ele>612.98</ele>
        <time>2011-04-07T09:29:43Z</time>
      </trkpt>
      <trkpt lat="44.77325" lon="4.53405">
        <ele>611.06</ele>
        <time>2011-04-07T09:29:52Z</time>
      </trkpt>
      <trkpt lat="44.77322" lon="4.53407">
        <ele>610.57</ele>
        <time>2011-04-07T09:29:58Z</time>
      </trkpt>
      <trkpt lat="44.77313" lon="4.53395">
        <ele>609.61</ele>
        <time>2011-04-07T09:30:06Z</time>
      </trkpt>
      <trkpt lat="44.77305" lon="4.53383">
        <ele>608.65</ele>
        <time>2011-04-07T09:30:16Z</time>
      </trkpt>
      <trkpt lat="44.77297" lon="4.53373">
        <ele>607.69</ele>
        <time>2011-04-07T09:30:23Z</time>
      </trkpt>
      <trkpt lat="44.7729" lon="4.53369">
        <ele>607.69</ele>
        <time>2011-04-07T09:30:31Z</time>
      </trkpt>
      <trkpt lat="44.77284" lon="4.53369">
        <ele>607.21</ele>
        <time>2011-04-07T09:30:38Z</time>
      </trkpt>
      <trkpt lat="44.77284" lon="4.53369">
        <ele>606.73</ele>
        <time>2011-04-07T09:30:39Z</time>
      </trkpt>
      <trkpt lat="44.77275" lon="4.53357">
        <ele>606.73</ele>
        <time>2011-04-07T09:30:47Z</time>
      </trkpt>
      <trkpt lat="44.77268" lon="4.53347">
        <ele>606.25</ele>
        <time>2011-04-07T09:30:53Z</time>
      </trkpt>
      <trkpt lat="44.77261" lon="4.53333">
        <ele>605.77</ele>
        <time>2011-04-07T09:31:02Z</time>
      </trkpt>
      <trkpt lat="44.77253" lon="4.53334">
        <ele>606.25</ele>
        <time>2011-04-07T09:31:09Z</time>
      </trkpt>
      <trkpt lat="44.77247" lon="4.53325">
        <ele>605.77</ele>
        <time>2011-04-07T09:31:16Z</time>
      </trkpt>
      <trkpt lat="44.7724" lon="4.53316">
        <ele>604.81</ele>
        <time>2011-04-07T09:31:24Z</time>
      </trkpt>
      <trkpt lat="44.77235" lon="4.53312">
        <ele>604.33</ele>
        <time>2011-04-07T09:31:31Z</time>
      </trkpt>
      <trkpt lat="44.77228" lon="4.53309">
        <ele>602.88</ele>
        <time>2011-04-07T09:31:39Z</time>
      </trkpt>
      <trkpt lat="44.77219" lon="4.53303">
        <ele>601.92</ele>
        <time>2011-04-07T09:31:47Z</time>
      </trkpt>
      <trkpt lat="44.77212" lon="4.53298">
        <ele>600.96</ele>
        <time>2011-04-07T09:31:52Z</time>
      </trkpt>
      <trkpt lat="44.77207" lon="4.53293">
        <ele>600</ele>
        <time>2011-04-07T09:32:00Z</time>
      </trkpt>
      <trkpt lat="44.77202" lon="4.53284">
        <ele>599.52</ele>
        <time>2011-04-07T09:32:08Z</time>
      </trkpt>
      <trkpt lat="44.77191" lon="4.53275">
        <ele>599.04</ele>
        <time>2011-04-07T09:32:16Z</time>
      </trkpt>
      <trkpt lat="44.77182" lon="4.53268">
        <ele>599.04</ele>
        <time>2011-04-07T09:32:27Z</time>
      </trkpt>
      <trkpt lat="44.77176" lon="4.53266">
        <ele>598.08</ele>
        <time>2011-04-07T09:32:32Z</time>
      </trkpt>
      <trkpt lat="44.77169" lon="4.53269">
        <ele>598.08</ele>
        <time>2011-04-07T09:32:37Z</time>
      </trkpt>
      <trkpt lat="44.77166" lon="4.53276">
        <ele>598.08</ele>
        <time>2011-04-07T09:32:43Z</time>
      </trkpt>
      <trkpt lat="44.77161" lon="4.53281">
        <ele>597.6</ele>
        <time>2011-04-07T09:32:47Z</time>
      </trkpt>
      <trkpt lat="44.77154" lon="4.53282">
        <ele>597.12</ele>
        <time>2011-04-07T09:32:51Z</time>
      </trkpt>
      <trkpt lat="44.77145" lon="4.53294">
        <ele>596.64</ele>
        <time>2011-04-07T09:33:01Z</time>
      </trkpt>
      <trkpt lat="44.7714" lon="4.53302">
        <ele>596.64</ele>
        <time>2011-04-07T09:33:08Z</time>
      </trkpt>
      <trkpt lat="44.77137" lon="4.53314">
        <ele>595.67</ele>
        <time>2011-04-07T09:33:18Z</time>
      </trkpt>
      <trkpt lat="44.77127" lon="4.53323">
        <ele>595.19</ele>
        <time>2011-04-07T09:33:26Z</time>
      </trkpt>
      <trkpt lat="44.77123" lon="4.53333">
        <ele>595.19</ele>
        <time>2011-04-07T09:33:33Z</time>
      </trkpt>
      <trkpt lat="44.77119" lon="4.53342">
        <ele>594.23</ele>
        <time>2011-04-07T09:33:40Z</time>
      </trkpt>
      <trkpt lat="44.77117" lon="4.53352">
        <ele>593.75</ele>
        <time>2011-04-07T09:33:47Z</time>
      </trkpt>
      <trkpt lat="44.77113" lon="4.53354">
        <ele>593.75</ele>
        <time>2011-04-07T09:33:50Z</time>
      </trkpt>
      <trkpt lat="44.77107" lon="4.53344">
        <ele>595.19</ele>
        <time>2011-04-07T09:33:58Z</time>
      </trkpt>
      <trkpt lat="44.771" lon="4.53337">
        <ele>595.67</ele>
        <time>2011-04-07T09:34:05Z</time>
      </trkpt>
      <trkpt lat="44.77097" lon="4.53336">
        <ele>595.19</ele>
        <time>2011-04-07T09:34:08Z</time>
      </trkpt>
      <trkpt lat="44.77093" lon="4.53332">
        <ele>595.19</ele>
        <time>2011-04-07T09:34:12Z</time>
      </trkpt>
      <trkpt lat="44.7708" lon="4.53321">
        <ele>594.71</ele>
        <time>2011-04-07T09:34:22Z</time>
      </trkpt>
      <trkpt lat="44.77075" lon="4.53323">
        <ele>594.71</ele>
        <time>2011-04-07T09:34:30Z</time>
      </trkpt>
      <trkpt lat="44.77068" lon="4.53327">
        <ele>595.19</ele>
        <time>2011-04-07T09:34:37Z</time>
      </trkpt>
      <trkpt lat="44.77058" lon="4.53317">
        <ele>595.19</ele>
        <time>2011-04-07T09:34:45Z</time>
      </trkpt>
      <trkpt lat="44.77056" lon="4.53309">
        <ele>595.67</ele>
        <time>2011-04-07T09:34:52Z</time>
      </trkpt>
      <trkpt lat="44.77049" lon="4.533">
        <ele>596.15</ele>
        <time>2011-04-07T09:34:57Z</time>
      </trkpt>
      <trkpt lat="44.77043" lon="4.53302">
        <ele>596.15</ele>
        <time>2011-04-07T09:35:02Z</time>
      </trkpt>
      <trkpt lat="44.77036" lon="4.53298">
        <ele>595.67</ele>
        <time>2011-04-07T09:35:11Z</time>
      </trkpt>
      <trkpt lat="44.7703" lon="4.53283">
        <ele>595.67</ele>
        <time>2011-04-07T09:35:18Z</time>
      </trkpt>
      <trkpt lat="44.77019" lon="4.53276">
        <ele>596.64</ele>
        <time>2011-04-07T09:35:27Z</time>
      </trkpt>
      <trkpt lat="44.77011" lon="4.53273">
        <ele>596.15</ele>
        <time>2011-04-07T09:35:34Z</time>
      </trkpt>
      <trkpt lat="44.77002" lon="4.5327">
        <ele>596.15</ele>
        <time>2011-04-07T09:35:42Z</time>
      </trkpt>
      <trkpt lat="44.76992" lon="4.53269">
        <ele>596.64</ele>
        <time>2011-04-07T09:35:51Z</time>
      </trkpt>
      <trkpt lat="44.7698" lon="4.53265">
        <ele>596.15</ele>
        <time>2011-04-07T09:36:02Z</time>
      </trkpt>
      <trkpt lat="44.7697" lon="4.53263">
        <ele>594.71</ele>
        <time>2011-04-07T09:36:12Z</time>
      </trkpt>
      <trkpt lat="44.76965" lon="4.53258">
        <ele>594.23</ele>
        <time>2011-04-07T09:36:18Z</time>
      </trkpt>
      <trkpt lat="44.76963" lon="4.53253">
        <ele>594.71</ele>
        <time>2011-04-07T09:36:21Z</time>
      </trkpt>
      <trkpt lat="44.76964" lon="4.5325">
        <ele>594.23</ele>
        <time>2011-04-07T09:36:24Z</time>
      </trkpt>
      <trkpt lat="44.76976" lon="4.53243">
        <ele>593.75</ele>
        <time>2011-04-07T09:36:34Z</time>
      </trkpt>
      <trkpt lat="44.76983" lon="4.5324">
        <ele>593.75</ele>
        <time>2011-04-07T09:36:39Z</time>
      </trkpt>
      <trkpt lat="44.76984" lon="4.53238">
        <ele>593.75</ele>
        <time>2011-04-07T09:36:42Z</time>
      </trkpt>
      <trkpt lat="44.76995" lon="4.53233">
        <ele>593.75</ele>
        <time>2011-04-07T09:36:51Z</time>
      </trkpt>
      <trkpt lat="44.76999" lon="4.5323">
        <ele>593.27</ele>
        <time>2011-04-07T09:36:57Z</time>
      </trkpt>
      <trkpt lat="44.77001" lon="4.53228">
        <ele>592.79</ele>
        <time>2011-04-07T09:36:59Z</time>
      </trkpt>
      <trkpt lat="44.77004" lon="4.53219">
        <ele>592.79</ele>
        <time>2011-04-07T09:37:07Z</time>
      </trkpt>
      <trkpt lat="44.77009" lon="4.53213">
        <ele>592.31</ele>
        <time>2011-04-07T09:37:14Z</time>
      </trkpt>
      <trkpt lat="44.77013" lon="4.53214">
        <ele>591.83</ele>
        <time>2011-04-07T09:37:18Z</time>
      </trkpt>
      <trkpt lat="44.77022" lon="4.53213">
        <ele>591.35</ele>
        <time>2011-04-07T09:37:24Z</time>
      </trkpt>
      <trkpt lat="44.77028" lon="4.53214">
        <ele>591.35</ele>
        <time>2011-04-07T09:37:31Z</time>
      </trkpt>
      <trkpt lat="44.77029" lon="4.53212">
        <ele>590.87</ele>
        <time>2011-04-07T09:37:35Z</time>
      </trkpt>
      <trkpt lat="44.77031" lon="4.53209">
        <ele>591.35</ele>
        <time>2011-04-07T09:37:39Z</time>
      </trkpt>
      <trkpt lat="44.77042" lon="4.53204">
        <ele>591.35</ele>
        <time>2011-04-07T09:37:47Z</time>
      </trkpt>
      <trkpt lat="44.77041" lon="4.53203">
        <ele>591.35</ele>
        <time>2011-04-07T09:37:48Z</time>
      </trkpt>
      <trkpt lat="44.7704" lon="4.53198">
        <ele>592.31</ele>
        <time>2011-04-07T09:37:54Z</time>
      </trkpt>
      <trkpt lat="44.7705" lon="4.53191">
        <ele>591.83</ele>
        <time>2011-04-07T09:38:04Z</time>
      </trkpt>
      <trkpt lat="44.77056" lon="4.53187">
        <ele>591.83</ele>
        <time>2011-04-07T09:38:08Z</time>
      </trkpt>
      <trkpt lat="44.77061" lon="4.53179">
        <ele>592.31</ele>
        <time>2011-04-07T09:38:15Z</time>
      </trkpt>
      <trkpt lat="44.77062" lon="4.53179">
        <ele>592.79</ele>
        <time>2011-04-07T09:38:16Z</time>
      </trkpt>
      <trkpt lat="44.77074" lon="4.53163">
        <ele>592.31</ele>
        <time>2011-04-07T09:38:27Z</time>
      </trkpt>
      <trkpt lat="44.77076" lon="4.53156">
        <ele>591.83</ele>
        <time>2011-04-07T09:38:35Z</time>
      </trkpt>
      <trkpt lat="44.77079" lon="4.53142">
        <ele>591.35</ele>
        <time>2011-04-07T09:38:41Z</time>
      </trkpt>
      <trkpt lat="44.77078" lon="4.53128">
        <ele>591.35</ele>
        <time>2011-04-07T09:38:47Z</time>
      </trkpt>
      <trkpt lat="44.77077" lon="4.53118">
        <ele>591.35</ele>
        <time>2011-04-07T09:38:53Z</time>
      </trkpt>
      <trkpt lat="44.77074" lon="4.53102">
        <ele>591.35</ele>
        <time>2011-04-07T09:39:02Z</time>
      </trkpt>
      <trkpt lat="44.77071" lon="4.53104">
        <ele>591.35</ele>
        <time>2011-04-07T09:39:05Z</time>
      </trkpt>
      <trkpt lat="44.77067" lon="4.53089">
        <ele>590.87</ele>
        <time>2011-04-07T09:39:14Z</time>
      </trkpt>
      <trkpt lat="44.77063" lon="4.53079">
        <ele>589.43</ele>
        <time>2011-04-07T09:39:21Z</time>
      </trkpt>
      <trkpt lat="44.77059" lon="4.53071">
        <ele>587.5</ele>
        <time>2011-04-07T09:39:29Z</time>
      </trkpt>
      <trkpt lat="44.77057" lon="4.53061">
        <ele>586.54</ele>
        <time>2011-04-07T09:39:36Z</time>
      </trkpt>
      <trkpt lat="44.77053" lon="4.5305">
        <ele>586.54</ele>
        <time>2011-04-07T09:39:43Z</time>
      </trkpt>
      <trkpt lat="44.77049" lon="4.53038">
        <ele>587.02</ele>
        <time>2011-04-07T09:39:50Z</time>
      </trkpt>
      <trkpt lat="44.77046" lon="4.53032">
        <ele>587.5</ele>
        <time>2011-04-07T09:39:56Z</time>
      </trkpt>
      <trkpt lat="44.77046" lon="4.53027">
        <ele>587.5</ele>
        <time>2011-04-07T09:39:59Z</time>
      </trkpt>
      <trkpt lat="44.77041" lon="4.53017">
        <ele>586.06</ele>
        <time>2011-04-07T09:40:06Z</time>
      </trkpt>
      <trkpt lat="44.77039" lon="4.5301">
        <ele>586.06</ele>
        <time>2011-04-07T09:40:13Z</time>
      </trkpt>
      <trkpt lat="44.77036" lon="4.53003">
        <ele>584.62</ele>
        <time>2011-04-07T09:40:19Z</time>
      </trkpt>
      <trkpt lat="44.77039" lon="4.53">
        <ele>585.1</ele>
        <time>2011-04-07T09:40:21Z</time>
      </trkpt>
      <trkpt lat="44.77038" lon="4.52999">
        <ele>584.62</ele>
        <time>2011-04-07T09:40:23Z</time>
      </trkpt>
      <trkpt lat="44.77038" lon="4.52997">
        <ele>584.62</ele>
        <time>2011-04-07T09:40:26Z</time>
      </trkpt>
      <trkpt lat="44.77043" lon="4.52989">
        <ele>584.14</ele>
        <time>2011-04-07T09:40:33Z</time>
      </trkpt>
      <trkpt lat="44.7705" lon="4.52984">
        <ele>583.66</ele>
        <time>2011-04-07T09:40:40Z</time>
      </trkpt>
      <trkpt lat="44.77053" lon="4.52979">
        <ele>583.66</ele>
        <time>2011-04-07T09:40:43Z</time>
      </trkpt>
      <trkpt lat="44.77057" lon="4.52969">
        <ele>583.66</ele>
        <time>2011-04-07T09:40:52Z</time>
      </trkpt>
      <trkpt lat="44.77058" lon="4.52956">
        <ele>583.18</ele>
        <time>2011-04-07T09:41:00Z</time>
      </trkpt>
      <trkpt lat="44.77057" lon="4.52953">
        <ele>582.7</ele>
        <time>2011-04-07T09:41:03Z</time>
      </trkpt>
      <trkpt lat="44.77056" lon="4.52945">
        <ele>581.25</ele>
        <time>2011-04-07T09:41:08Z</time>
      </trkpt>
      <trkpt lat="44.77054" lon="4.52938">
        <ele>580.77</ele>
        <time>2011-04-07T09:41:13Z</time>
      </trkpt>
      <trkpt lat="44.77052" lon="4.52936">
        <ele>580.29</ele>
        <time>2011-04-07T09:41:15Z</time>
      </trkpt>
      <trkpt lat="44.77048" lon="4.52928">
        <ele>579.33</ele>
        <time>2011-04-07T09:41:23Z</time>
      </trkpt>
      <trkpt lat="44.77045" lon="4.52919">
        <ele>577.89</ele>
        <time>2011-04-07T09:41:30Z</time>
      </trkpt>
      <trkpt lat="44.77044" lon="4.52909">
        <ele>575.49</ele>
        <time>2011-04-07T09:41:38Z</time>
      </trkpt>
      <trkpt lat="44.77048" lon="4.52906">
        <ele>574.04</ele>
        <time>2011-04-07T09:41:45Z</time>
      </trkpt>
      <trkpt lat="44.77048" lon="4.52898">
        <ele>572.12</ele>
        <time>2011-04-07T09:41:52Z</time>
      </trkpt>
      <trkpt lat="44.77046" lon="4.52894">
        <ele>570.68</ele>
        <time>2011-04-07T09:42:00Z</time>
      </trkpt>
      <trkpt lat="44.77045" lon="4.52879">
        <ele>571.64</ele>
        <time>2011-04-07T09:42:10Z</time>
      </trkpt>
      <trkpt lat="44.77044" lon="4.52873">
        <ele>572.12</ele>
        <time>2011-04-07T09:42:20Z</time>
      </trkpt>
      <trkpt lat="44.77044" lon="4.52868">
        <ele>572.6</ele>
        <time>2011-04-07T09:42:26Z</time>
      </trkpt>
      <trkpt lat="44.77044" lon="4.52863">
        <ele>573.08</ele>
        <time>2011-04-07T09:42:36Z</time>
      </trkpt>
      <trkpt lat="44.77055" lon="4.52864">
        <ele>572.6</ele>
        <time>2011-04-07T09:42:48Z</time>
      </trkpt>
      <trkpt lat="44.77059" lon="4.52867">
        <ele>572.12</ele>
        <time>2011-04-07T09:42:53Z</time>
      </trkpt>
      <trkpt lat="44.77061" lon="4.52869">
        <ele>571.64</ele>
        <time>2011-04-07T09:42:56Z</time>
      </trkpt>
      <trkpt lat="44.77064" lon="4.5287">
        <ele>572.12</ele>
        <time>2011-04-07T09:42:59Z</time>
      </trkpt>
      <trkpt lat="44.77067" lon="4.52879">
        <ele>572.12</ele>
        <time>2011-04-07T09:43:05Z</time>
      </trkpt>
      <trkpt lat="44.77069" lon="4.52882">
        <ele>572.6</ele>
        <time>2011-04-07T09:43:10Z</time>
      </trkpt>
      <trkpt lat="44.77076" lon="4.52893">
        <ele>571.64</ele>
        <time>2011-04-07T09:43:17Z</time>
      </trkpt>
      <trkpt lat="44.77083" lon="4.52895">
        <ele>570.2</ele>
        <time>2011-04-07T09:43:26Z</time>
      </trkpt>
      <trkpt lat="44.77085" lon="4.52894">
        <ele>569.72</ele>
        <time>2011-04-07T09:43:27Z</time>
      </trkpt>
      <trkpt lat="44.77088" lon="4.52896">
        <ele>569.24</ele>
        <time>2011-04-07T09:43:30Z</time>
      </trkpt>
      <trkpt lat="44.77097" lon="4.529">
        <ele>568.76</ele>
        <time>2011-04-07T09:43:37Z</time>
      </trkpt>
      <trkpt lat="44.77101" lon="4.52901">
        <ele>567.8</ele>
        <time>2011-04-07T09:43:43Z</time>
      </trkpt>
      <trkpt lat="44.77104" lon="4.52906">
        <ele>567.32</ele>
        <time>2011-04-07T09:43:48Z</time>
      </trkpt>
      <trkpt lat="44.77111" lon="4.52912">
        <ele>566.83</ele>
        <time>2011-04-07T09:43:54Z</time>
      </trkpt>
      <trkpt lat="44.77116" lon="4.52917">
        <ele>567.32</ele>
        <time>2011-04-07T09:43:59Z</time>
      </trkpt>
      <trkpt lat="44.77115" lon="4.52923">
        <ele>567.8</ele>
        <time>2011-04-07T09:44:04Z</time>
      </trkpt>
      <trkpt lat="44.77117" lon="4.52924">
        <ele>567.8</ele>
        <time>2011-04-07T09:44:06Z</time>
      </trkpt>
      <trkpt lat="44.77117" lon="4.5293">
        <ele>566.83</ele>
        <time>2011-04-07T09:44:11Z</time>
      </trkpt>
      <trkpt lat="44.77119" lon="4.52944">
        <ele>564.91</ele>
        <time>2011-04-07T09:44:19Z</time>
      </trkpt>
      <trkpt lat="44.77121" lon="4.52952">
        <ele>562.99</ele>
        <time>2011-04-07T09:44:26Z</time>
      </trkpt>
      <trkpt lat="44.77122" lon="4.52954">
        <ele>562.51</ele>
        <time>2011-04-07T09:44:28Z</time>
      </trkpt>
      <trkpt lat="44.77124" lon="4.52957">
        <ele>561.55</ele>
        <time>2011-04-07T09:44:31Z</time>
      </trkpt>
      <trkpt lat="44.77132" lon="4.52968">
        <ele>559.62</ele>
        <time>2011-04-07T09:44:41Z</time>
      </trkpt>
      <trkpt lat="44.77136" lon="4.52976">
        <ele>558.18</ele>
        <time>2011-04-07T09:44:47Z</time>
      </trkpt>
      <trkpt lat="44.77145" lon="4.52977">
        <ele>558.18</ele>
        <time>2011-04-07T09:44:55Z</time>
      </trkpt>
      <trkpt lat="44.77154" lon="4.5297">
        <ele>560.11</ele>
        <time>2011-04-07T09:45:02Z</time>
      </trkpt>
      <trkpt lat="44.77156" lon="4.52971">
        <ele>559.62</ele>
        <time>2011-04-07T09:45:03Z</time>
      </trkpt>
      <trkpt lat="44.7716" lon="4.52978">
        <ele>559.14</ele>
        <time>2011-04-07T09:45:08Z</time>
      </trkpt>
      <trkpt lat="44.77169" lon="4.52978">
        <ele>558.66</ele>
        <time>2011-04-07T09:45:16Z</time>
      </trkpt>
      <trkpt lat="44.77175" lon="4.52983">
        <ele>558.66</ele>
        <time>2011-04-07T09:45:22Z</time>
      </trkpt>
      <trkpt lat="44.77176" lon="4.52984">
        <ele>559.14</ele>
        <time>2011-04-07T09:45:23Z</time>
      </trkpt>
      <trkpt lat="44.77181" lon="4.52984">
        <ele>559.14</ele>
        <time>2011-04-07T09:45:28Z</time>
      </trkpt>
      <trkpt lat="44.77183" lon="4.52986">
        <ele>559.14</ele>
        <time>2011-04-07T09:45:30Z</time>
      </trkpt>
      <trkpt lat="44.77189" lon="4.52986">
        <ele>559.14</ele>
        <time>2011-04-07T09:45:36Z</time>
      </trkpt>
      <trkpt lat="44.77193" lon="4.52993">
        <ele>559.62</ele>
        <time>2011-04-07T09:45:39Z</time>
      </trkpt>
      <trkpt lat="44.77199" lon="4.53001">
        <ele>559.62</ele>
        <time>2011-04-07T09:45:45Z</time>
      </trkpt>
      <trkpt lat="44.77203" lon="4.53006">
        <ele>559.14</ele>
        <time>2011-04-07T09:45:48Z</time>
      </trkpt>
      <trkpt lat="44.77208" lon="4.53015">
        <ele>558.66</ele>
        <time>2011-04-07T09:45:57Z</time>
      </trkpt>
      <trkpt lat="44.77211" lon="4.53026">
        <ele>558.18</ele>
        <time>2011-04-07T09:46:02Z</time>
      </trkpt>
      <trkpt lat="44.77222" lon="4.53028">
        <ele>558.66</ele>
        <time>2011-04-07T09:46:10Z</time>
      </trkpt>
      <trkpt lat="44.77224" lon="4.53022">
        <ele>558.18</ele>
        <time>2011-04-07T09:46:13Z</time>
      </trkpt>
      <trkpt lat="44.77233" lon="4.53028">
        <ele>557.7</ele>
        <time>2011-04-07T09:46:20Z</time>
      </trkpt>
      <trkpt lat="44.77238" lon="4.53039">
        <ele>555.3</ele>
        <time>2011-04-07T09:46:28Z</time>
      </trkpt>
      <trkpt lat="44.77242" lon="4.53048">
        <ele>554.34</ele>
        <time>2011-04-07T09:46:34Z</time>
      </trkpt>
      <trkpt lat="44.77253" lon="4.53066">
        <ele>552.9</ele>
        <time>2011-04-07T09:46:44Z</time>
      </trkpt>
      <trkpt lat="44.77259" lon="4.53064">
        <ele>552.41</ele>
        <time>2011-04-07T09:46:51Z</time>
      </trkpt>
      <trkpt lat="44.77272" lon="4.53066">
        <ele>550.97</ele>
        <time>2011-04-07T09:47:01Z</time>
      </trkpt>
      <trkpt lat="44.77281" lon="4.53065">
        <ele>550.97</ele>
        <time>2011-04-07T09:47:08Z</time>
      </trkpt>
      <trkpt lat="44.77285" lon="4.53066">
        <ele>550.49</ele>
        <time>2011-04-07T09:47:12Z</time>
      </trkpt>
      <trkpt lat="44.77291" lon="4.53066">
        <ele>549.53</ele>
        <time>2011-04-07T09:47:19Z</time>
      </trkpt>
      <trkpt lat="44.77301" lon="4.53067">
        <ele>548.09</ele>
        <time>2011-04-07T09:47:27Z</time>
      </trkpt>
      <trkpt lat="44.77307" lon="4.53068">
        <ele>546.65</ele>
        <time>2011-04-07T09:47:33Z</time>
      </trkpt>
      <trkpt lat="44.77316" lon="4.5307">
        <ele>545.69</ele>
        <time>2011-04-07T09:47:40Z</time>
      </trkpt>
      <trkpt lat="44.77318" lon="4.53073">
        <ele>545.2</ele>
        <time>2011-04-07T09:47:43Z</time>
      </trkpt>
      <trkpt lat="44.77321" lon="4.53076">
        <ele>544.72</ele>
        <time>2011-04-07T09:47:47Z</time>
      </trkpt>
      <trkpt lat="44.77323" lon="4.53069">
        <ele>545.2</ele>
        <time>2011-04-07T09:47:50Z</time>
      </trkpt>
      <trkpt lat="44.7733" lon="4.53075">
        <ele>545.2</ele>
        <time>2011-04-07T09:47:58Z</time>
      </trkpt>
      <trkpt lat="44.77332" lon="4.53077">
        <ele>545.2</ele>
        <time>2011-04-07T09:47:59Z</time>
      </trkpt>
      <trkpt lat="44.77341" lon="4.53081">
        <ele>543.76</ele>
        <time>2011-04-07T09:48:09Z</time>
      </trkpt>
      <trkpt lat="44.77349" lon="4.53086">
        <ele>542.32</ele>
        <time>2011-04-07T09:48:17Z</time>
      </trkpt>
      <trkpt lat="44.7735" lon="4.53087">
        <ele>541.84</ele>
        <time>2011-04-07T09:48:19Z</time>
      </trkpt>
      <trkpt lat="44.77359" lon="4.53087">
        <ele>541.36</ele>
        <time>2011-04-07T09:48:28Z</time>
      </trkpt>
      <trkpt lat="44.77369" lon="4.53088">
        <ele>541.36</ele>
        <time>2011-04-07T09:48:34Z</time>
      </trkpt>
      <trkpt lat="44.77374" lon="4.53089">
        <ele>542.32</ele>
        <time>2011-04-07T09:48:41Z</time>
      </trkpt>
      <trkpt lat="44.77374" lon="4.53088">
        <ele>542.32</ele>
        <time>2011-04-07T09:48:42Z</time>
      </trkpt>
      <trkpt lat="44.77383" lon="4.53081">
        <ele>541.84</ele>
        <time>2011-04-07T09:48:49Z</time>
      </trkpt>
      <trkpt lat="44.77388" lon="4.53084">
        <ele>541.84</ele>
        <time>2011-04-07T09:48:57Z</time>
      </trkpt>
      <trkpt lat="44.77394" lon="4.53082">
        <ele>541.84</ele>
        <time>2011-04-07T09:49:00Z</time>
      </trkpt>
      <trkpt lat="44.77398" lon="4.53073">
        <ele>541.84</ele>
        <time>2011-04-07T09:49:07Z</time>
      </trkpt>
      <trkpt lat="44.77404" lon="4.53068">
        <ele>541.84</ele>
        <time>2011-04-07T09:49:11Z</time>
      </trkpt>
      <trkpt lat="44.77404" lon="4.53056">
        <ele>542.32</ele>
        <time>2011-04-07T09:49:19Z</time>
      </trkpt>
      <trkpt lat="44.77404" lon="4.53058">
        <ele>542.32</ele>
        <time>2011-04-07T09:49:20Z</time>
      </trkpt>
      <trkpt lat="44.77406" lon="4.53043">
        <ele>540.88</ele>
        <time>2011-04-07T09:49:29Z</time>
      </trkpt>
      <trkpt lat="44.77415" lon="4.53042">
        <ele>539.92</ele>
        <time>2011-04-07T09:49:34Z</time>
      </trkpt>
      <trkpt lat="44.77417" lon="4.53029">
        <ele>539.44</ele>
        <time>2011-04-07T09:49:43Z</time>
      </trkpt>
      <trkpt lat="44.77414" lon="4.53029">
        <ele>538.96</ele>
        <time>2011-04-07T09:49:44Z</time>
      </trkpt>
      <trkpt lat="44.77425" lon="4.5302">
        <ele>538.48</ele>
        <time>2011-04-07T09:49:53Z</time>
      </trkpt>
      <trkpt lat="44.77431" lon="4.53015">
        <ele>538.48</ele>
        <time>2011-04-07T09:50:01Z</time>
      </trkpt>
      <trkpt lat="44.77432" lon="4.53022">
        <ele>537.51</ele>
        <time>2011-04-07T09:50:06Z</time>
      </trkpt>
      <trkpt lat="44.77428" lon="4.53037">
        <ele>536.07</ele>
        <time>2011-04-07T09:50:14Z</time>
      </trkpt>
      <trkpt lat="44.7743" lon="4.53046">
        <ele>534.63</ele>
        <time>2011-04-07T09:50:22Z</time>
      </trkpt>
      <trkpt lat="44.77431" lon="4.53047">
        <ele>534.15</ele>
        <time>2011-04-07T09:50:23Z</time>
      </trkpt>
      <trkpt lat="44.77434" lon="4.53054">
        <ele>532.71</ele>
        <time>2011-04-07T09:50:29Z</time>
      </trkpt>
      <trkpt lat="44.77443" lon="4.53068">
        <ele>532.23</ele>
        <time>2011-04-07T09:50:38Z</time>
      </trkpt>
      <trkpt lat="44.77446" lon="4.53069">
        <ele>531.27</ele>
        <time>2011-04-07T09:50:40Z</time>
      </trkpt>
      <trkpt lat="44.7745" lon="4.53081">
        <ele>529.82</ele>
        <time>2011-04-07T09:50:46Z</time>
      </trkpt>
      <trkpt lat="44.77456" lon="4.53088">
        <ele>529.82</ele>
        <time>2011-04-07T09:50:52Z</time>
      </trkpt>
      <trkpt lat="44.77459" lon="4.5309">
        <ele>528.86</ele>
        <time>2011-04-07T09:50:56Z</time>
      </trkpt>
      <trkpt lat="44.77463" lon="4.53098">
        <ele>527.9</ele>
        <time>2011-04-07T09:51:04Z</time>
      </trkpt>
      <trkpt lat="44.77469" lon="4.53105">
        <ele>526.94</ele>
        <time>2011-04-07T09:51:12Z</time>
      </trkpt>
      <trkpt lat="44.77474" lon="4.5311">
        <ele>526.46</ele>
        <time>2011-04-07T09:51:16Z</time>
      </trkpt>
      <trkpt lat="44.77485" lon="4.53116">
        <ele>525.5</ele>
        <time>2011-04-07T09:51:24Z</time>
      </trkpt>
      <trkpt lat="44.77487" lon="4.53117">
        <ele>525.5</ele>
        <time>2011-04-07T09:51:27Z</time>
      </trkpt>
      <trkpt lat="44.77502" lon="4.53112">
        <ele>525.5</ele>
        <time>2011-04-07T09:51:36Z</time>
      </trkpt>
      <trkpt lat="44.77506" lon="4.53119">
        <ele>524.54</ele>
        <time>2011-04-07T09:51:42Z</time>
      </trkpt>
      <trkpt lat="44.77515" lon="4.53132">
        <ele>524.54</ele>
        <time>2011-04-07T09:51:50Z</time>
      </trkpt>
      <trkpt lat="44.77517" lon="4.53131">
        <ele>524.06</ele>
        <time>2011-04-07T09:51:51Z</time>
      </trkpt>
      <trkpt lat="44.77523" lon="4.53133">
        <ele>523.58</ele>
        <time>2011-04-07T09:51:55Z</time>
      </trkpt>
      <trkpt lat="44.77532" lon="4.5313">
        <ele>522.13</ele>
        <time>2011-04-07T09:52:03Z</time>
      </trkpt>
      <trkpt lat="44.77543" lon="4.53128">
        <ele>522.61</ele>
        <time>2011-04-07T09:52:10Z</time>
      </trkpt>
      <trkpt lat="44.77547" lon="4.53126">
        <ele>522.61</ele>
        <time>2011-04-07T09:52:16Z</time>
      </trkpt>
      <trkpt lat="44.77557" lon="4.53125">
        <ele>524.54</ele>
        <time>2011-04-07T09:52:24Z</time>
      </trkpt>
      <trkpt lat="44.77562" lon="4.53125">
        <ele>524.06</ele>
        <time>2011-04-07T09:52:30Z</time>
      </trkpt>
      <trkpt lat="44.7757" lon="4.53123">
        <ele>525.02</ele>
        <time>2011-04-07T09:52:38Z</time>
      </trkpt>
      <trkpt lat="44.77574" lon="4.53129">
        <ele>525.5</ele>
        <time>2011-04-07T09:52:44Z</time>
      </trkpt>
      <trkpt lat="44.77584" lon="4.53128">
        <ele>525.98</ele>
        <time>2011-04-07T09:52:51Z</time>
      </trkpt>
      <trkpt lat="44.77583" lon="4.53127">
        <ele>525.98</ele>
        <time>2011-04-07T09:52:53Z</time>
      </trkpt>
      <trkpt lat="44.77592" lon="4.53126">
        <ele>525.98</ele>
        <time>2011-04-07T09:53:00Z</time>
      </trkpt>
      <trkpt lat="44.77598" lon="4.53117">
        <ele>525.98</ele>
        <time>2011-04-07T09:53:07Z</time>
      </trkpt>
      <trkpt lat="44.77605" lon="4.53117">
        <ele>526.46</ele>
        <time>2011-04-07T09:53:15Z</time>
      </trkpt>
      <trkpt lat="44.77613" lon="4.53117">
        <ele>526.94</ele>
        <time>2011-04-07T09:53:23Z</time>
      </trkpt>
      <trkpt lat="44.77624" lon="4.5311">
        <ele>526.94</ele>
        <time>2011-04-07T09:53:32Z</time>
      </trkpt>
      <trkpt lat="44.77628" lon="4.53112">
        <ele>527.42</ele>
        <time>2011-04-07T09:53:39Z</time>
      </trkpt>
      <trkpt lat="44.77638" lon="4.5311">
        <ele>528.86</ele>
        <time>2011-04-07T09:53:47Z</time>
      </trkpt>
      <trkpt lat="44.77643" lon="4.53105">
        <ele>528.86</ele>
        <time>2011-04-07T09:53:51Z</time>
      </trkpt>
      <trkpt lat="44.77646" lon="4.53105">
        <ele>529.34</ele>
        <time>2011-04-07T09:53:56Z</time>
      </trkpt>
      <trkpt lat="44.77653" lon="4.53112">
        <ele>529.82</ele>
        <time>2011-04-07T09:54:01Z</time>
      </trkpt>
      <trkpt lat="44.77659" lon="4.53104">
        <ele>530.79</ele>
        <time>2011-04-07T09:54:09Z</time>
      </trkpt>
      <trkpt lat="44.77665" lon="4.53098">
        <ele>531.27</ele>
        <time>2011-04-07T09:54:16Z</time>
      </trkpt>
      <trkpt lat="44.77675" lon="4.5309">
        <ele>531.75</ele>
        <time>2011-04-07T09:54:24Z</time>
      </trkpt>
      <trkpt lat="44.77681" lon="4.53087">
        <ele>532.71</ele>
        <time>2011-04-07T09:54:32Z</time>
      </trkpt>
      <trkpt lat="44.77688" lon="4.53085">
        <ele>533.67</ele>
        <time>2011-04-07T09:54:38Z</time>
      </trkpt>
      <trkpt lat="44.77697" lon="4.53079">
        <ele>534.63</ele>
        <time>2011-04-07T09:54:47Z</time>
      </trkpt>
      <trkpt lat="44.77705" lon="4.53074">
        <ele>535.11</ele>
        <time>2011-04-07T09:54:54Z</time>
      </trkpt>
      <trkpt lat="44.77712" lon="4.53066">
        <ele>536.07</ele>
        <time>2011-04-07T09:55:03Z</time>
      </trkpt>
      <trkpt lat="44.77713" lon="4.53056">
        <ele>536.55</ele>
        <time>2011-04-07T09:55:11Z</time>
      </trkpt>
      <trkpt lat="44.77714" lon="4.53045">
        <ele>537.51</ele>
        <time>2011-04-07T09:55:18Z</time>
      </trkpt>
      <trkpt lat="44.77727" lon="4.53049">
        <ele>537.03</ele>
        <time>2011-04-07T09:55:26Z</time>
      </trkpt>
      <trkpt lat="44.77735" lon="4.53046">
        <ele>536.55</ele>
        <time>2011-04-07T09:55:33Z</time>
      </trkpt>
      <trkpt lat="44.77737" lon="4.53049">
        <ele>537.03</ele>
        <time>2011-04-07T09:55:36Z</time>
      </trkpt>
      <trkpt lat="44.77735" lon="4.53052">
        <ele>537.03</ele>
        <time>2011-04-07T09:55:42Z</time>
      </trkpt>
      <trkpt lat="44.7774" lon="4.53047">
        <ele>537.51</ele>
        <time>2011-04-07T09:55:48Z</time>
      </trkpt>
      <trkpt lat="44.77751" lon="4.53044">
        <ele>537.99</ele>
        <time>2011-04-07T09:55:57Z</time>
      </trkpt>
      <trkpt lat="44.77754" lon="4.53041">
        <ele>537.99</ele>
        <time>2011-04-07T09:55:58Z</time>
      </trkpt>
      <trkpt lat="44.77766" lon="4.53047">
        <ele>538.48</ele>
        <time>2011-04-07T09:56:06Z</time>
      </trkpt>
      <trkpt lat="44.77768" lon="4.53048">
        <ele>538.48</ele>
        <time>2011-04-07T09:56:08Z</time>
      </trkpt>
      <trkpt lat="44.77775" lon="4.53041">
        <ele>538.48</ele>
        <time>2011-04-07T09:56:14Z</time>
      </trkpt>
      <trkpt lat="44.77779" lon="4.5304">
        <ele>538.96</ele>
        <time>2011-04-07T09:56:18Z</time>
      </trkpt>
      <trkpt lat="44.77791" lon="4.53031">
        <ele>538.48</ele>
        <time>2011-04-07T09:56:27Z</time>
      </trkpt>
      <trkpt lat="44.77794" lon="4.53026">
        <ele>537.99</ele>
        <time>2011-04-07T09:56:34Z</time>
      </trkpt>
      <trkpt lat="44.77802" lon="4.53019">
        <ele>537.99</ele>
        <time>2011-04-07T09:56:42Z</time>
      </trkpt>
      <trkpt lat="44.77811" lon="4.53016">
        <ele>538.48</ele>
        <time>2011-04-07T09:56:49Z</time>
      </trkpt>
      <trkpt lat="44.77817" lon="4.53014">
        <ele>539.44</ele>
        <time>2011-04-07T09:56:56Z</time>
      </trkpt>
      <trkpt lat="44.77823" lon="4.53014">
        <ele>540.88</ele>
        <time>2011-04-07T09:57:02Z</time>
      </trkpt>
      <trkpt lat="44.77824" lon="4.53011">
        <ele>541.36</ele>
        <time>2011-04-07T09:57:09Z</time>
      </trkpt>
      <trkpt lat="44.77826" lon="4.53011">
        <ele>541.36</ele>
        <time>2011-04-07T09:57:11Z</time>
      </trkpt>
      <trkpt lat="44.77833" lon="4.53017">
        <ele>542.32</ele>
        <time>2011-04-07T09:57:18Z</time>
      </trkpt>
      <trkpt lat="44.77837" lon="4.53022">
        <ele>543.28</ele>
        <time>2011-04-07T09:57:24Z</time>
      </trkpt>
      <trkpt lat="44.77843" lon="4.53022">
        <ele>543.76</ele>
        <time>2011-04-07T09:57:32Z</time>
      </trkpt>
      <trkpt lat="44.77852" lon="4.53022">
        <ele>545.2</ele>
        <time>2011-04-07T09:57:41Z</time>
      </trkpt>
      <trkpt lat="44.77859" lon="4.53029">
        <ele>546.65</ele>
        <time>2011-04-07T09:57:48Z</time>
      </trkpt>
      <trkpt lat="44.77862" lon="4.53033">
        <ele>547.13</ele>
        <time>2011-04-07T09:57:54Z</time>
      </trkpt>
      <trkpt lat="44.77864" lon="4.5303">
        <ele>548.09</ele>
        <time>2011-04-07T09:57:57Z</time>
      </trkpt>
      <trkpt lat="44.77869" lon="4.53031">
        <ele>548.57</ele>
        <time>2011-04-07T09:58:01Z</time>
      </trkpt>
      <trkpt lat="44.7788" lon="4.53028">
        <ele>549.05</ele>
        <time>2011-04-07T09:58:09Z</time>
      </trkpt>
      <trkpt lat="44.77887" lon="4.53027">
        <ele>549.53</ele>
        <time>2011-04-07T09:58:16Z</time>
      </trkpt>
      <trkpt lat="44.77895" lon="4.53029">
        <ele>550.01</ele>
        <time>2011-04-07T09:58:24Z</time>
      </trkpt>
      <trkpt lat="44.77902" lon="4.53021">
        <ele>550.97</ele>
        <time>2011-04-07T09:58:31Z</time>
      </trkpt>
      <trkpt lat="44.77908" lon="4.53018">
        <ele>551.93</ele>
        <time>2011-04-07T09:58:40Z</time>
      </trkpt>
      <trkpt lat="44.77912" lon="4.53017">
        <ele>551.93</ele>
        <time>2011-04-07T09:58:42Z</time>
      </trkpt>
      <trkpt lat="44.77921" lon="4.53014">
        <ele>552.41</ele>
        <time>2011-04-07T09:58:49Z</time>
      </trkpt>
      <trkpt lat="44.77925" lon="4.53013">
        <ele>552.9</ele>
        <time>2011-04-07T09:58:53Z</time>
      </trkpt>
      <trkpt lat="44.77933" lon="4.53003">
        <ele>553.38</ele>
        <time>2011-04-07T09:59:02Z</time>
      </trkpt>
      <trkpt lat="44.77941" lon="4.52996">
        <ele>553.86</ele>
        <time>2011-04-07T09:59:11Z</time>
      </trkpt>
      <trkpt lat="44.77949" lon="4.52994">
        <ele>553.86</ele>
        <time>2011-04-07T09:59:18Z</time>
      </trkpt>
      <trkpt lat="44.77954" lon="4.52995">
        <ele>554.34</ele>
        <time>2011-04-07T09:59:26Z</time>
      </trkpt>
      <trkpt lat="44.77965" lon="4.52993">
        <ele>554.82</ele>
        <time>2011-04-07T09:59:34Z</time>
      </trkpt>
      <trkpt lat="44.77972" lon="4.52994">
        <ele>555.78</ele>
        <time>2011-04-07T09:59:42Z</time>
      </trkpt>
      <trkpt lat="44.77977" lon="4.5299">
        <ele>556.74</ele>
        <time>2011-04-07T09:59:48Z</time>
      </trkpt>
      <trkpt lat="44.77983" lon="4.52983">
        <ele>558.66</ele>
        <time>2011-04-07T09:59:57Z</time>
      </trkpt>
      <trkpt lat="44.77982" lon="4.52978">
        <ele>558.66</ele>
        <time>2011-04-07T10:00:05Z</time>
      </trkpt>
      <trkpt lat="44.77988" lon="4.52975">
        <ele>559.14</ele>
        <time>2011-04-07T10:00:12Z</time>
      </trkpt>
      <trkpt lat="44.77993" lon="4.52968">
        <ele>559.14</ele>
        <time>2011-04-07T10:00:21Z</time>
      </trkpt>
      <trkpt lat="44.77998" lon="4.5296">
        <ele>559.62</ele>
        <time>2011-04-07T10:00:28Z</time>
      </trkpt>
      <trkpt lat="44.78001" lon="4.52957">
        <ele>559.62</ele>
        <time>2011-04-07T10:00:35Z</time>
      </trkpt>
      <trkpt lat="44.77999" lon="4.52959">
        <ele>560.59</ele>
        <time>2011-04-07T10:05:24Z</time>
      </trkpt>
      <trkpt lat="44.77995" lon="4.52967">
        <ele>560.59</ele>
        <time>2011-04-07T10:05:32Z</time>
      </trkpt>
      <trkpt lat="44.77994" lon="4.52969">
        <ele>560.59</ele>
        <time>2011-04-07T10:05:34Z</time>
      </trkpt>
      <trkpt lat="44.77986" lon="4.52977">
        <ele>559.62</ele>
        <time>2011-04-07T10:05:44Z</time>
      </trkpt>
      <trkpt lat="44.77983" lon="4.52981">
        <ele>559.62</ele>
        <time>2011-04-07T10:05:48Z</time>
      </trkpt>
      <trkpt lat="44.77977" lon="4.52986">
        <ele>559.14</ele>
        <time>2011-04-07T10:05:56Z</time>
      </trkpt>
      <trkpt lat="44.77975" lon="4.52992">
        <ele>558.18</ele>
        <time>2011-04-07T10:06:05Z</time>
      </trkpt>
      <trkpt lat="44.77973" lon="4.52996">
        <ele>557.22</ele>
        <time>2011-04-07T10:06:25Z</time>
      </trkpt>
      <trkpt lat="44.77971" lon="4.52997">
        <ele>557.22</ele>
        <time>2011-04-07T10:06:36Z</time>
      </trkpt>
      <trkpt lat="44.77973" lon="4.52995">
        <ele>557.22</ele>
        <time>2011-04-07T10:06:42Z</time>
      </trkpt>
      <trkpt lat="44.77977" lon="4.5299">
        <ele>557.7</ele>
        <time>2011-04-07T10:06:49Z</time>
      </trkpt>
      <trkpt lat="44.77984" lon="4.52988">
        <ele>559.14</ele>
        <time>2011-04-07T10:06:55Z</time>
      </trkpt>
      <trkpt lat="44.77985" lon="4.52979">
        <ele>560.11</ele>
        <time>2011-04-07T10:07:02Z</time>
      </trkpt>
      <trkpt lat="44.77989" lon="4.52974">
        <ele>560.11</ele>
        <time>2011-04-07T10:07:08Z</time>
      </trkpt>
      <trkpt lat="44.77995" lon="4.52966">
        <ele>560.11</ele>
        <time>2011-04-07T10:07:15Z</time>
      </trkpt>
      <trkpt lat="44.77998" lon="4.52961">
        <ele>561.07</ele>
        <time>2011-04-07T10:07:22Z</time>
      </trkpt>
      <trkpt lat="44.78006" lon="4.52958">
        <ele>560.59</ele>
        <time>2011-04-07T10:07:30Z</time>
      </trkpt>
      <trkpt lat="44.7801" lon="4.52955">
        <ele>559.62</ele>
        <time>2011-04-07T10:07:37Z</time>
      </trkpt>
      <trkpt lat="44.78011" lon="4.52955">
        <ele>559.62</ele>
        <time>2011-04-07T10:07:42Z</time>
      </trkpt>
      <trkpt lat="44.78022" lon="4.52953">
        <ele>560.59</ele>
        <time>2011-04-07T10:07:52Z</time>
      </trkpt>
      <trkpt lat="44.78033" lon="4.52954">
        <ele>561.07</ele>
        <time>2011-04-07T10:08:00Z</time>
      </trkpt>
      <trkpt lat="44.78035" lon="4.52953">
        <ele>561.07</ele>
        <time>2011-04-07T10:08:02Z</time>
      </trkpt>
      <trkpt lat="44.78044" lon="4.52955">
        <ele>561.55</ele>
        <time>2011-04-07T10:08:12Z</time>
      </trkpt>
      <trkpt lat="44.78046" lon="4.52951">
        <ele>562.03</ele>
        <time>2011-04-07T10:08:14Z</time>
      </trkpt>
      <trkpt lat="44.78054" lon="4.52942">
        <ele>562.51</ele>
        <time>2011-04-07T10:08:23Z</time>
      </trkpt>
      <trkpt lat="44.78059" lon="4.52939">
        <ele>562.03</ele>
        <time>2011-04-07T10:08:29Z</time>
      </trkpt>
      <trkpt lat="44.78067" lon="4.52934">
        <ele>562.99</ele>
        <time>2011-04-07T10:08:38Z</time>
      </trkpt>
      <trkpt lat="44.78075" lon="4.52932">
        <ele>562.03</ele>
        <time>2011-04-07T10:08:46Z</time>
      </trkpt>
      <trkpt lat="44.78078" lon="4.52928">
        <ele>561.55</ele>
        <time>2011-04-07T10:08:50Z</time>
      </trkpt>
      <trkpt lat="44.7808" lon="4.52925">
        <ele>561.55</ele>
        <time>2011-04-07T10:08:54Z</time>
      </trkpt>
      <trkpt lat="44.7809" lon="4.52922">
        <ele>561.07</ele>
        <time>2011-04-07T10:09:03Z</time>
      </trkpt>
      <trkpt lat="44.781" lon="4.52912">
        <ele>560.59</ele>
        <time>2011-04-07T10:09:13Z</time>
      </trkpt>
      <trkpt lat="44.78107" lon="4.52903">
        <ele>559.62</ele>
        <time>2011-04-07T10:09:23Z</time>
      </trkpt>
      <trkpt lat="44.78111" lon="4.52897">
        <ele>558.18</ele>
        <time>2011-04-07T10:09:30Z</time>
      </trkpt>
      <trkpt lat="44.78117" lon="4.52885">
        <ele>557.22</ele>
        <time>2011-04-07T10:09:41Z</time>
      </trkpt>
      <trkpt lat="44.78117" lon="4.52884">
        <ele>557.7</ele>
        <time>2011-04-07T10:09:42Z</time>
      </trkpt>
      <trkpt lat="44.78124" lon="4.52877">
        <ele>556.74</ele>
        <time>2011-04-07T10:09:51Z</time>
      </trkpt>
      <trkpt lat="44.78125" lon="4.52876">
        <ele>556.74</ele>
        <time>2011-04-07T10:09:57Z</time>
      </trkpt>
      <trkpt lat="44.78143" lon="4.52877">
        <ele>556.74</ele>
        <time>2011-04-07T10:10:04Z</time>
      </trkpt>
      <trkpt lat="44.78136" lon="4.52872">
        <ele>555.3</ele>
        <time>2011-04-07T10:10:13Z</time>
      </trkpt>
      <trkpt lat="44.78136" lon="4.52876">
        <ele>555.78</ele>
        <time>2011-04-07T10:10:20Z</time>
      </trkpt>
      <trkpt lat="44.78139" lon="4.52877">
        <ele>555.78</ele>
        <time>2011-04-07T10:10:29Z</time>
      </trkpt>
      <trkpt lat="44.78134" lon="4.52873">
        <ele>555.78</ele>
        <time>2011-04-07T10:11:29Z</time>
      </trkpt>
      <trkpt lat="44.78125" lon="4.52871">
        <ele>556.26</ele>
        <time>2011-04-07T10:11:34Z</time>
      </trkpt>
      <trkpt lat="44.78125" lon="4.52876">
        <ele>556.26</ele>
        <time>2011-04-07T10:11:40Z</time>
      </trkpt>
      <trkpt lat="44.7812" lon="4.52878">
        <ele>556.74</ele>
        <time>2011-04-07T10:11:47Z</time>
      </trkpt>
      <trkpt lat="44.78115" lon="4.52883">
        <ele>557.22</ele>
        <time>2011-04-07T10:11:57Z</time>
      </trkpt>
      <trkpt lat="44.78113" lon="4.52887">
        <ele>557.22</ele>
        <time>2011-04-07T10:12:03Z</time>
      </trkpt>
      <trkpt lat="44.78109" lon="4.52894">
        <ele>557.7</ele>
        <time>2011-04-07T10:12:12Z</time>
      </trkpt>
      <trkpt lat="44.78109" lon="4.52896">
        <ele>558.18</ele>
        <time>2011-04-07T10:12:17Z</time>
      </trkpt>
      <trkpt lat="44.78108" lon="4.52898">
        <ele>558.18</ele>
        <time>2011-04-07T10:12:19Z</time>
      </trkpt>
      <trkpt lat="44.78103" lon="4.52905">
        <ele>558.66</ele>
        <time>2011-04-07T10:12:27Z</time>
      </trkpt>
      <trkpt lat="44.78099" lon="4.5291">
        <ele>560.11</ele>
        <time>2011-04-07T10:12:34Z</time>
      </trkpt>
      <trkpt lat="44.78101" lon="4.52912">
        <ele>560.11</ele>
        <time>2011-04-07T10:12:36Z</time>
      </trkpt>
      <trkpt lat="44.78106" lon="4.52918">
        <ele>561.07</ele>
        <time>2011-04-07T10:12:44Z</time>
      </trkpt>
      <trkpt lat="44.78112" lon="4.52922">
        <ele>561.07</ele>
        <time>2011-04-07T10:12:52Z</time>
      </trkpt>
      <trkpt lat="44.7811" lon="4.52924">
        <ele>561.07</ele>
        <time>2011-04-07T10:12:58Z</time>
      </trkpt>
      <trkpt lat="44.78109" lon="4.52925">
        <ele>561.55</ele>
        <time>2011-04-07T10:13:29Z</time>
      </trkpt>
      <trkpt lat="44.78108" lon="4.52929">
        <ele>561.07</ele>
        <time>2011-04-07T10:14:11Z</time>
      </trkpt>
      <trkpt lat="44.7811" lon="4.52931">
        <ele>561.55</ele>
        <time>2011-04-07T10:14:15Z</time>
      </trkpt>
      <trkpt lat="44.78115" lon="4.52931">
        <ele>561.07</ele>
        <time>2011-04-07T10:14:25Z</time>
      </trkpt>
      <trkpt lat="44.7812" lon="4.52925">
        <ele>564.43</ele>
        <time>2011-04-07T10:31:56Z</time>
      </trkpt>
      <trkpt lat="44.78125" lon="4.5292">
        <ele>567.32</ele>
        <time>2011-04-07T10:43:09Z</time>
      </trkpt>
      <trkpt lat="44.78117" lon="4.5292">
        <ele>568.28</ele>
        <time>2011-04-07T10:47:08Z</time>
      </trkpt>
      <trkpt lat="44.78109" lon="4.52924">
        <ele>566.83</ele>
        <time>2011-04-07T11:01:39Z</time>
      </trkpt>
      <trkpt lat="44.78106" lon="4.52927">
        <ele>563.47</ele>
        <time>2011-04-07T11:10:05Z</time>
      </trkpt>
      <trkpt lat="44.78106" lon="4.52927">
        <ele>563.47</ele>
        <time>2011-04-07T11:10:06Z</time>
      </trkpt>
      <trkpt lat="44.78106" lon="4.52927">
        <ele>566.35</ele>
        <time>2011-04-07T11:10:07Z</time>
      </trkpt>
      <trkpt lat="44.78106" lon="4.52927">
        <ele>565.87</ele>
        <time>2011-04-07T11:10:08Z</time>
      </trkpt>
      <trkpt lat="44.78106" lon="4.52926">
        <ele>562.03</ele>
        <time>2011-04-07T11:10:28Z</time>
      </trkpt>
      <trkpt lat="44.78106" lon="4.52926">
        <ele>568.28</ele>
        <time>2011-04-07T11:10:29Z</time>
      </trkpt>
      <trkpt lat="44.78106" lon="4.52926">
        <ele>562.99</ele>
        <time>2011-04-07T11:10:30Z</time>
      </trkpt>
      <trkpt lat="44.78106" lon="4.52926">
        <ele>565.87</ele>
        <time>2011-04-07T11:10:33Z</time>
      </trkpt>
      <trkpt lat="44.78106" lon="4.52926">
        <ele>565.87</ele>
        <time>2011-04-07T11:10:47Z</time>
      </trkpt>
      <trkpt lat="44.78106" lon="4.52926">
        <ele>562.51</ele>
        <time>2011-04-07T11:11:02Z</time>
      </trkpt>
      <trkpt lat="44.78106" lon="4.52926">
        <ele>565.87</ele>
        <time>2011-04-07T11:11:03Z</time>
      </trkpt>
      <trkpt lat="44.78106" lon="4.52926">
        <ele>565.87</ele>
        <time>2011-04-07T11:11:07Z</time>
      </trkpt>
      <trkpt lat="44.78106" lon="4.52927">
        <ele>562.51</ele>
        <time>2011-04-07T11:11:43Z</time>
      </trkpt>
      <trkpt lat="44.78106" lon="4.52927">
        <ele>565.87</ele>
        <time>2011-04-07T11:11:44Z</time>
      </trkpt>
      <trkpt lat="44.78106" lon="4.52927">
        <ele>562.03</ele>
        <time>2011-04-07T11:11:49Z</time>
      </trkpt>
      <trkpt lat="44.78106" lon="4.52927">
        <ele>565.39</ele>
        <time>2011-04-07T11:11:50Z</time>
      </trkpt>
      <trkpt lat="44.78106" lon="4.52926">
        <ele>565.39</ele>
        <time>2011-04-07T11:12:34Z</time>
      </trkpt>
      <trkpt lat="44.78104" lon="4.52927">
        <ele>564.91</ele>
        <time>2011-04-07T11:13:15Z</time>
      </trkpt>
      <trkpt lat="44.78104" lon="4.52923">
        <ele>565.39</ele>
        <time>2011-04-07T11:13:23Z</time>
      </trkpt>
      <trkpt lat="44.78107" lon="4.5292">
        <ele>565.39</ele>
        <time>2011-04-07T11:15:13Z</time>
      </trkpt>
      <trkpt lat="44.78106" lon="4.52913">
        <ele>564.43</ele>
        <time>2011-04-07T11:15:20Z</time>
      </trkpt>
      <trkpt lat="44.78102" lon="4.52912">
        <ele>563.95</ele>
        <time>2011-04-07T11:15:27Z</time>
      </trkpt>
      <trkpt lat="44.78101" lon="4.52911">
        <ele>562.99</ele>
        <time>2011-04-07T11:16:34Z</time>
      </trkpt>
      <trkpt lat="44.78106" lon="4.52908">
        <ele>563.47</ele>
        <time>2011-04-07T11:16:36Z</time>
      </trkpt>
      <trkpt lat="44.7811" lon="4.52899">
        <ele>562.51</ele>
        <time>2011-04-07T11:16:41Z</time>
      </trkpt>
      <trkpt lat="44.78114" lon="4.52885">
        <ele>561.07</ele>
        <time>2011-04-07T11:16:50Z</time>
      </trkpt>
      <trkpt lat="44.78114" lon="4.52884">
        <ele>560.59</ele>
        <time>2011-04-07T11:16:52Z</time>
      </trkpt>
      <trkpt lat="44.78113" lon="4.52878">
        <ele>559.62</ele>
        <time>2011-04-07T11:16:57Z</time>
      </trkpt>
      <trkpt lat="44.78117" lon="4.52865">
        <ele>557.7</ele>
        <time>2011-04-07T11:17:07Z</time>
      </trkpt>
      <trkpt lat="44.78122" lon="4.52865">
        <ele>556.74</ele>
        <time>2011-04-07T11:17:13Z</time>
      </trkpt>
      <trkpt lat="44.78124" lon="4.52852">
        <ele>555.3</ele>
        <time>2011-04-07T11:17:19Z</time>
      </trkpt>
      <trkpt lat="44.78124" lon="4.52847">
        <ele>554.34</ele>
        <time>2011-04-07T11:17:24Z</time>
      </trkpt>
      <trkpt lat="44.78119" lon="4.52841">
        <ele>554.34</ele>
        <time>2011-04-07T11:17:33Z</time>
      </trkpt>
      <trkpt lat="44.78117" lon="4.52832">
        <ele>553.38</ele>
        <time>2011-04-07T11:17:43Z</time>
      </trkpt>
      <trkpt lat="44.78117" lon="4.52831">
        <ele>553.38</ele>
        <time>2011-04-07T11:17:44Z</time>
      </trkpt>
      <trkpt lat="44.78116" lon="4.52821">
        <ele>551.93</ele>
        <time>2011-04-07T11:17:53Z</time>
      </trkpt>
      <trkpt lat="44.78116" lon="4.52817">
        <ele>551.45</ele>
        <time>2011-04-07T11:18:01Z</time>
      </trkpt>
      <trkpt lat="44.78113" lon="4.52806">
        <ele>550.01</ele>
        <time>2011-04-07T11:18:10Z</time>
      </trkpt>
      <trkpt lat="44.78111" lon="4.52794">
        <ele>548.57</ele>
        <time>2011-04-07T11:18:20Z</time>
      </trkpt>
      <trkpt lat="44.78109" lon="4.52786">
        <ele>547.13</ele>
        <time>2011-04-07T11:18:28Z</time>
      </trkpt>
      <trkpt lat="44.78108" lon="4.52769">
        <ele>546.17</ele>
        <time>2011-04-07T11:18:37Z</time>
      </trkpt>
      <trkpt lat="44.78106" lon="4.52764">
        <ele>544.72</ele>
        <time>2011-04-07T11:18:44Z</time>
      </trkpt>
      <trkpt lat="44.78105" lon="4.52754">
        <ele>542.8</ele>
        <time>2011-04-07T11:18:53Z</time>
      </trkpt>
      <trkpt lat="44.78107" lon="4.52743">
        <ele>541.84</ele>
        <time>2011-04-07T11:19:01Z</time>
      </trkpt>
      <trkpt lat="44.78106" lon="4.52741">
        <ele>541.36</ele>
        <time>2011-04-07T11:19:04Z</time>
      </trkpt>
      <trkpt lat="44.78105" lon="4.5273">
        <ele>541.36</ele>
        <time>2011-04-07T11:19:08Z</time>
      </trkpt>
      <trkpt lat="44.78101" lon="4.52725">
        <ele>540.4</ele>
        <time>2011-04-07T11:19:16Z</time>
      </trkpt>
      <trkpt lat="44.78109" lon="4.52717">
        <ele>538.96</ele>
        <time>2011-04-07T11:19:23Z</time>
      </trkpt>
      <trkpt lat="44.78108" lon="4.52708">
        <ele>537.51</ele>
        <time>2011-04-07T11:19:30Z</time>
      </trkpt>
      <trkpt lat="44.7811" lon="4.52701">
        <ele>537.51</ele>
        <time>2011-04-07T11:19:37Z</time>
      </trkpt>
      <trkpt lat="44.7811" lon="4.527">
        <ele>537.51</ele>
        <time>2011-04-07T11:19:44Z</time>
      </trkpt>
      <trkpt lat="44.78111" lon="4.52698">
        <ele>537.03</ele>
        <time>2011-04-07T11:19:49Z</time>
      </trkpt>
      <trkpt lat="44.78116" lon="4.52691">
        <ele>536.55</ele>
        <time>2011-04-07T11:19:56Z</time>
      </trkpt>
      <trkpt lat="44.78117" lon="4.52682">
        <ele>536.55</ele>
        <time>2011-04-07T11:20:04Z</time>
      </trkpt>
      <trkpt lat="44.78121" lon="4.5268">
        <ele>536.07</ele>
        <time>2011-04-07T11:20:13Z</time>
      </trkpt>
      <trkpt lat="44.78128" lon="4.52674">
        <ele>535.59</ele>
        <time>2011-04-07T11:20:46Z</time>
      </trkpt>
      <trkpt lat="44.78139" lon="4.52669">
        <ele>535.11</ele>
        <time>2011-04-07T11:20:55Z</time>
      </trkpt>
      <trkpt lat="44.78148" lon="4.5266">
        <ele>534.63</ele>
        <time>2011-04-07T11:21:04Z</time>
      </trkpt>
      <trkpt lat="44.78162" lon="4.52651">
        <ele>534.63</ele>
        <time>2011-04-07T11:21:11Z</time>
      </trkpt>
      <trkpt lat="44.78169" lon="4.52652">
        <ele>532.71</ele>
        <time>2011-04-07T11:21:19Z</time>
      </trkpt>
      <trkpt lat="44.78177" lon="4.52651">
        <ele>530.79</ele>
        <time>2011-04-07T11:21:25Z</time>
      </trkpt>
      <trkpt lat="44.78186" lon="4.52641">
        <ele>529.34</ele>
        <time>2011-04-07T11:21:34Z</time>
      </trkpt>
      <trkpt lat="44.78187" lon="4.5264">
        <ele>529.34</ele>
        <time>2011-04-07T11:21:35Z</time>
      </trkpt>
      <trkpt lat="44.78193" lon="4.52625">
        <ele>527.9</ele>
        <time>2011-04-07T11:21:42Z</time>
      </trkpt>
      <trkpt lat="44.78193" lon="4.52608">
        <ele>525.98</ele>
        <time>2011-04-07T11:21:51Z</time>
      </trkpt>
      <trkpt lat="44.78192" lon="4.52602">
        <ele>525.5</ele>
        <time>2011-04-07T11:21:53Z</time>
      </trkpt>
      <trkpt lat="44.78187" lon="4.52589">
        <ele>524.06</ele>
        <time>2011-04-07T11:22:01Z</time>
      </trkpt>
      <trkpt lat="44.7818" lon="4.52573">
        <ele>522.61</ele>
        <time>2011-04-07T11:22:09Z</time>
      </trkpt>
      <trkpt lat="44.78178" lon="4.52565">
        <ele>522.13</ele>
        <time>2011-04-07T11:22:15Z</time>
      </trkpt>
      <trkpt lat="44.78171" lon="4.5256">
        <ele>520.69</ele>
        <time>2011-04-07T11:22:21Z</time>
      </trkpt>
      <trkpt lat="44.78169" lon="4.52548">
        <ele>519.73</ele>
        <time>2011-04-07T11:22:25Z</time>
      </trkpt>
      <trkpt lat="44.78169" lon="4.52547">
        <ele>518.77</ele>
        <time>2011-04-07T11:22:30Z</time>
      </trkpt>
      <trkpt lat="44.78169" lon="4.52546">
        <ele>518.29</ele>
        <time>2011-04-07T11:22:32Z</time>
      </trkpt>
      <trkpt lat="44.78172" lon="4.52539">
        <ele>517.81</ele>
        <time>2011-04-07T11:22:35Z</time>
      </trkpt>
      <trkpt lat="44.78169" lon="4.52529">
        <ele>516.37</ele>
        <time>2011-04-07T11:22:41Z</time>
      </trkpt>
      <trkpt lat="44.78162" lon="4.52522">
        <ele>515.4</ele>
        <time>2011-04-07T11:22:45Z</time>
      </trkpt>
      <trkpt lat="44.78162" lon="4.52517">
        <ele>515.4</ele>
        <time>2011-04-07T11:22:51Z</time>
      </trkpt>
      <trkpt lat="44.78157" lon="4.52533">
        <ele>515.88</ele>
        <time>2011-04-07T11:22:59Z</time>
      </trkpt>
      <trkpt lat="44.78162" lon="4.52511">
        <ele>513.96</ele>
        <time>2011-04-07T11:23:07Z</time>
      </trkpt>
      <trkpt lat="44.7816" lon="4.52502">
        <ele>513</ele>
        <time>2011-04-07T11:23:12Z</time>
      </trkpt>
      <trkpt lat="44.78151" lon="4.5249">
        <ele>511.08</ele>
        <time>2011-04-07T11:23:21Z</time>
      </trkpt>
      <trkpt lat="44.78149" lon="4.52485">
        <ele>510.12</ele>
        <time>2011-04-07T11:23:26Z</time>
      </trkpt>
      <trkpt lat="44.7815" lon="4.52481">
        <ele>509.64</ele>
        <time>2011-04-07T11:23:31Z</time>
      </trkpt>
      <trkpt lat="44.78147" lon="4.52471">
        <ele>508.67</ele>
        <time>2011-04-07T11:23:37Z</time>
      </trkpt>
      <trkpt lat="44.78149" lon="4.52459">
        <ele>507.23</ele>
        <time>2011-04-07T11:23:43Z</time>
      </trkpt>
      <trkpt lat="44.78148" lon="4.52453">
        <ele>506.27</ele>
        <time>2011-04-07T11:23:49Z</time>
      </trkpt>
      <trkpt lat="44.78155" lon="4.52442">
        <ele>505.31</ele>
        <time>2011-04-07T11:23:58Z</time>
      </trkpt>
      <trkpt lat="44.78158" lon="4.52436">
        <ele>504.35</ele>
        <time>2011-04-07T11:24:02Z</time>
      </trkpt>
      <trkpt lat="44.78162" lon="4.52427">
        <ele>503.39</ele>
        <time>2011-04-07T11:24:07Z</time>
      </trkpt>
      <trkpt lat="44.78165" lon="4.52415">
        <ele>502.91</ele>
        <time>2011-04-07T11:24:16Z</time>
      </trkpt>
      <trkpt lat="44.78169" lon="4.52413">
        <ele>502.43</ele>
        <time>2011-04-07T11:24:17Z</time>
      </trkpt>
      <trkpt lat="44.78168" lon="4.5241">
        <ele>502.43</ele>
        <time>2011-04-07T11:24:19Z</time>
      </trkpt>
      <trkpt lat="44.78176" lon="4.52396">
        <ele>500.98</ele>
        <time>2011-04-07T11:24:26Z</time>
      </trkpt>
      <trkpt lat="44.78169" lon="4.52391">
        <ele>500.98</ele>
        <time>2011-04-07T11:24:30Z</time>
      </trkpt>
      <trkpt lat="44.78164" lon="4.52373">
        <ele>500.02</ele>
        <time>2011-04-07T11:24:39Z</time>
      </trkpt>
      <trkpt lat="44.78167" lon="4.52361">
        <ele>499.06</ele>
        <time>2011-04-07T11:24:45Z</time>
      </trkpt>
      <trkpt lat="44.78165" lon="4.52361">
        <ele>498.58</ele>
        <time>2011-04-07T11:24:49Z</time>
      </trkpt>
      <trkpt lat="44.78165" lon="4.52343">
        <ele>496.66</ele>
        <time>2011-04-07T11:24:57Z</time>
      </trkpt>
      <trkpt lat="44.78163" lon="4.52341">
        <ele>495.7</ele>
        <time>2011-04-07T11:25:03Z</time>
      </trkpt>
      <trkpt lat="44.7816" lon="4.52331">
        <ele>495.22</ele>
        <time>2011-04-07T11:25:09Z</time>
      </trkpt>
      <trkpt lat="44.78156" lon="4.52329">
        <ele>495.22</ele>
        <time>2011-04-07T11:25:11Z</time>
      </trkpt>
      <trkpt lat="44.7817" lon="4.5231">
        <ele>494.26</ele>
        <time>2011-04-07T11:25:19Z</time>
      </trkpt>
      <trkpt lat="44.78167" lon="4.52308">
        <ele>494.26</ele>
        <time>2011-04-07T11:25:22Z</time>
      </trkpt>
      <trkpt lat="44.78167" lon="4.52295">
        <ele>494.74</ele>
        <time>2011-04-07T11:25:28Z</time>
      </trkpt>
      <trkpt lat="44.78162" lon="4.52284">
        <ele>492.81</ele>
        <time>2011-04-07T11:25:36Z</time>
      </trkpt>
      <trkpt lat="44.78162" lon="4.52283">
        <ele>492.81</ele>
        <time>2011-04-07T11:25:38Z</time>
      </trkpt>
      <trkpt lat="44.7816" lon="4.5227">
        <ele>491.37</ele>
        <time>2011-04-07T11:25:46Z</time>
      </trkpt>
      <trkpt lat="44.78159" lon="4.52265">
        <ele>490.41</ele>
        <time>2011-04-07T11:25:51Z</time>
      </trkpt>
      <trkpt lat="44.78155" lon="4.52256">
        <ele>488.49</ele>
        <time>2011-04-07T11:25:58Z</time>
      </trkpt>
      <trkpt lat="44.78153" lon="4.52249">
        <ele>488.01</ele>
        <time>2011-04-07T11:26:04Z</time>
      </trkpt>
      <trkpt lat="44.78148" lon="4.52241">
        <ele>486.08</ele>
        <time>2011-04-07T11:26:12Z</time>
      </trkpt>
      <trkpt lat="44.78139" lon="4.52235">
        <ele>484.64</ele>
        <time>2011-04-07T11:26:20Z</time>
      </trkpt>
      <trkpt lat="44.78134" lon="4.52234">
        <ele>483.2</ele>
        <time>2011-04-07T11:26:27Z</time>
      </trkpt>
      <trkpt lat="44.78129" lon="4.52235">
        <ele>481.28</ele>
        <time>2011-04-07T11:26:34Z</time>
      </trkpt>
      <trkpt lat="44.7812" lon="4.52225">
        <ele>479.84</ele>
        <time>2011-04-07T11:26:41Z</time>
      </trkpt>
      <trkpt lat="44.78112" lon="4.52221">
        <ele>478.87</ele>
        <time>2011-04-07T11:26:47Z</time>
      </trkpt>
      <trkpt lat="44.78109" lon="4.52218">
        <ele>476.95</ele>
        <time>2011-04-07T11:26:55Z</time>
      </trkpt>
      <trkpt lat="44.78106" lon="4.52213">
        <ele>475.99</ele>
        <time>2011-04-07T11:27:00Z</time>
      </trkpt>
      <trkpt lat="44.78097" lon="4.52207">
        <ele>474.07</ele>
        <time>2011-04-07T11:27:08Z</time>
      </trkpt>
      <trkpt lat="44.78094" lon="4.52207">
        <ele>472.63</ele>
        <time>2011-04-07T11:27:14Z</time>
      </trkpt>
      <trkpt lat="44.78096" lon="4.52196">
        <ele>471.66</ele>
        <time>2011-04-07T11:27:21Z</time>
      </trkpt>
      <trkpt lat="44.78099" lon="4.52199">
        <ele>471.18</ele>
        <time>2011-04-07T11:27:25Z</time>
      </trkpt>
      <trkpt lat="44.78104" lon="4.52205">
        <ele>469.74</ele>
        <time>2011-04-07T11:27:34Z</time>
      </trkpt>
      <trkpt lat="44.78112" lon="4.52197">
        <ele>468.3</ele>
        <time>2011-04-07T11:27:41Z</time>
      </trkpt>
      <trkpt lat="44.78117" lon="4.52197">
        <ele>466.38</ele>
        <time>2011-04-07T11:27:47Z</time>
      </trkpt>
      <trkpt lat="44.78126" lon="4.52196">
        <ele>464.45</ele>
        <time>2011-04-07T11:27:56Z</time>
      </trkpt>
      <trkpt lat="44.78134" lon="4.52193">
        <ele>462.05</ele>
        <time>2011-04-07T11:28:05Z</time>
      </trkpt>
      <trkpt lat="44.78143" lon="4.52177">
        <ele>460.13</ele>
        <time>2011-04-07T11:28:13Z</time>
      </trkpt>
      <trkpt lat="44.78146" lon="4.52176">
        <ele>458.21</ele>
        <time>2011-04-07T11:28:20Z</time>
      </trkpt>
      <trkpt lat="44.78152" lon="4.52169">
        <ele>457.24</ele>
        <time>2011-04-07T11:28:26Z</time>
      </trkpt>
      <trkpt lat="44.78158" lon="4.52172">
        <ele>454.84</ele>
        <time>2011-04-07T11:28:34Z</time>
      </trkpt>
      <trkpt lat="44.7816" lon="4.52173">
        <ele>452.92</ele>
        <time>2011-04-07T11:28:39Z</time>
      </trkpt>
      <trkpt lat="44.78172" lon="4.52173">
        <ele>451.96</ele>
        <time>2011-04-07T11:28:49Z</time>
      </trkpt>
      <trkpt lat="44.78171" lon="4.52168">
        <ele>451</ele>
        <time>2011-04-07T11:28:52Z</time>
      </trkpt>
      <trkpt lat="44.78166" lon="4.52159">
        <ele>449.55</ele>
        <time>2011-04-07T11:28:59Z</time>
      </trkpt>
      <trkpt lat="44.78165" lon="4.52157">
        <ele>448.11</ele>
        <time>2011-04-07T11:29:05Z</time>
      </trkpt>
      <trkpt lat="44.7816" lon="4.52146">
        <ele>445.71</ele>
        <time>2011-04-07T11:29:13Z</time>
      </trkpt>
      <trkpt lat="44.78158" lon="4.52132">
        <ele>444.75</ele>
        <time>2011-04-07T11:29:22Z</time>
      </trkpt>
      <trkpt lat="44.78154" lon="4.52132">
        <ele>443.79</ele>
        <time>2011-04-07T11:29:26Z</time>
      </trkpt>
      <trkpt lat="44.78147" lon="4.52126">
        <ele>441.86</ele>
        <time>2011-04-07T11:29:35Z</time>
      </trkpt>
      <trkpt lat="44.78139" lon="4.52117">
        <ele>441.38</ele>
        <time>2011-04-07T11:29:41Z</time>
      </trkpt>
      <trkpt lat="44.78133" lon="4.52114">
        <ele>438.98</ele>
        <time>2011-04-07T11:29:48Z</time>
      </trkpt>
      <trkpt lat="44.78137" lon="4.52113">
        <ele>438.02</ele>
        <time>2011-04-07T11:29:55Z</time>
      </trkpt>
      <trkpt lat="44.78143" lon="4.52111">
        <ele>437.06</ele>
        <time>2011-04-07T11:30:01Z</time>
      </trkpt>
      <trkpt lat="44.78147" lon="4.52107">
        <ele>436.1</ele>
        <time>2011-04-07T11:30:07Z</time>
      </trkpt>
      <trkpt lat="44.78142" lon="4.52102">
        <ele>435.13</ele>
        <time>2011-04-07T11:30:09Z</time>
      </trkpt>
      <trkpt lat="44.78137" lon="4.521">
        <ele>433.69</ele>
        <time>2011-04-07T11:30:17Z</time>
      </trkpt>
      <trkpt lat="44.78136" lon="4.52099">
        <ele>433.21</ele>
        <time>2011-04-07T11:30:18Z</time>
      </trkpt>
      <trkpt lat="44.78138" lon="4.52091">
        <ele>433.21</ele>
        <time>2011-04-07T11:30:21Z</time>
      </trkpt>
      <trkpt lat="44.78147" lon="4.52097">
        <ele>431.29</ele>
        <time>2011-04-07T11:30:30Z</time>
      </trkpt>
      <trkpt lat="44.78155" lon="4.52098">
        <ele>429.85</ele>
        <time>2011-04-07T11:30:38Z</time>
      </trkpt>
      <trkpt lat="44.78156" lon="4.52099">
        <ele>429.85</ele>
        <time>2011-04-07T11:30:39Z</time>
      </trkpt>
      <trkpt lat="44.78167" lon="4.52107">
        <ele>427.92</ele>
        <time>2011-04-07T11:30:49Z</time>
      </trkpt>
      <trkpt lat="44.78171" lon="4.52096">
        <ele>426.48</ele>
        <time>2011-04-07T11:30:56Z</time>
      </trkpt>
      <trkpt lat="44.78169" lon="4.52095">
        <ele>426</ele>
        <time>2011-04-07T11:30:57Z</time>
      </trkpt>
      <trkpt lat="44.78167" lon="4.52089">
        <ele>425.04</ele>
        <time>2011-04-07T11:31:03Z</time>
      </trkpt>
      <trkpt lat="44.78165" lon="4.5208">
        <ele>423.6</ele>
        <time>2011-04-07T11:31:10Z</time>
      </trkpt>
      <trkpt lat="44.78165" lon="4.52077">
        <ele>423.12</ele>
        <time>2011-04-07T11:31:12Z</time>
      </trkpt>
      <trkpt lat="44.78165" lon="4.52076">
        <ele>422.16</ele>
        <time>2011-04-07T11:31:14Z</time>
      </trkpt>
      <trkpt lat="44.78161" lon="4.52067">
        <ele>420.71</ele>
        <time>2011-04-07T11:31:22Z</time>
      </trkpt>
      <trkpt lat="44.78161" lon="4.52067">
        <ele>420.23</ele>
        <time>2011-04-07T11:31:23Z</time>
      </trkpt>
      <trkpt lat="44.78151" lon="4.52056">
        <ele>419.27</ele>
        <time>2011-04-07T11:31:30Z</time>
      </trkpt>
      <trkpt lat="44.78157" lon="4.5205">
        <ele>417.83</ele>
        <time>2011-04-07T11:31:38Z</time>
      </trkpt>
      <trkpt lat="44.78158" lon="4.5205">
        <ele>417.83</ele>
        <time>2011-04-07T11:31:39Z</time>
      </trkpt>
      <trkpt lat="44.78161" lon="4.52051">
        <ele>416.87</ele>
        <time>2011-04-07T11:31:43Z</time>
      </trkpt>
      <trkpt lat="44.78164" lon="4.52064">
        <ele>415.43</ele>
        <time>2011-04-07T11:31:52Z</time>
      </trkpt>
      <trkpt lat="44.78167" lon="4.52067">
        <ele>413.5</ele>
        <time>2011-04-07T11:32:00Z</time>
      </trkpt>
      <trkpt lat="44.78173" lon="4.5206">
        <ele>412.54</ele>
        <time>2011-04-07T11:32:05Z</time>
      </trkpt>
      <trkpt lat="44.78171" lon="4.5206">
        <ele>412.06</ele>
        <time>2011-04-07T11:32:08Z</time>
      </trkpt>
      <trkpt lat="44.78172" lon="4.52046">
        <ele>410.14</ele>
        <time>2011-04-07T11:32:16Z</time>
      </trkpt>
      <trkpt lat="44.7817" lon="4.52047">
        <ele>409.66</ele>
        <time>2011-04-07T11:32:21Z</time>
      </trkpt>
      <trkpt lat="44.78169" lon="4.52038">
        <ele>408.7</ele>
        <time>2011-04-07T11:32:26Z</time>
      </trkpt>
      <trkpt lat="44.7817" lon="4.52036">
        <ele>406.77</ele>
        <time>2011-04-07T11:32:32Z</time>
      </trkpt>
      <trkpt lat="44.78172" lon="4.52031">
        <ele>406.29</ele>
        <time>2011-04-07T11:32:36Z</time>
      </trkpt>
      <trkpt lat="44.78166" lon="4.52019">
        <ele>404.85</ele>
        <time>2011-04-07T11:32:44Z</time>
      </trkpt>
      <trkpt lat="44.78162" lon="4.52029">
        <ele>403.41</ele>
        <time>2011-04-07T11:32:50Z</time>
      </trkpt>
      <trkpt lat="44.78165" lon="4.52015">
        <ele>400.53</ele>
        <time>2011-04-07T11:33:03Z</time>
      </trkpt>
      <trkpt lat="44.78166" lon="4.52012">
        <ele>399.57</ele>
        <time>2011-04-07T11:33:08Z</time>
      </trkpt>
      <trkpt lat="44.78157" lon="4.52017">
        <ele>398.6</ele>
        <time>2011-04-07T11:33:14Z</time>
      </trkpt>
      <trkpt lat="44.78154" lon="4.52014">
        <ele>397.64</ele>
        <time>2011-04-07T11:33:17Z</time>
      </trkpt>
      <trkpt lat="44.78157" lon="4.52009">
        <ele>396.68</ele>
        <time>2011-04-07T11:33:24Z</time>
      </trkpt>
      <trkpt lat="44.7815" lon="4.52008">
        <ele>395.72</ele>
        <time>2011-04-07T11:33:29Z</time>
      </trkpt>
      <trkpt lat="44.78143" lon="4.52004">
        <ele>395.24</ele>
        <time>2011-04-07T11:33:36Z</time>
      </trkpt>
      <trkpt lat="44.78142" lon="4.5199">
        <ele>397.64</ele>
        <time>2011-04-07T11:33:53Z</time>
      </trkpt>
      <trkpt lat="44.78139" lon="4.51981">
        <ele>399.08</ele>
        <time>2011-04-07T11:33:59Z</time>
      </trkpt>
      <trkpt lat="44.78141" lon="4.51976">
        <ele>399.57</ele>
        <time>2011-04-07T11:34:05Z</time>
      </trkpt>
      <trkpt lat="44.78134" lon="4.51972">
        <ele>401.01</ele>
        <time>2011-04-07T11:34:12Z</time>
      </trkpt>
      <trkpt lat="44.78135" lon="4.51968">
        <ele>401.01</ele>
        <time>2011-04-07T11:34:14Z</time>
      </trkpt>
      <trkpt lat="44.78133" lon="4.5195">
        <ele>401.49</ele>
        <time>2011-04-07T11:34:24Z</time>
      </trkpt>
      <trkpt lat="44.78132" lon="4.51941">
        <ele>401.49</ele>
        <time>2011-04-07T11:34:31Z</time>
      </trkpt>
      <trkpt lat="44.78131" lon="4.51937">
        <ele>401.97</ele>
        <time>2011-04-07T11:34:35Z</time>
      </trkpt>
      <trkpt lat="44.78127" lon="4.51922">
        <ele>401.49</ele>
        <time>2011-04-07T11:34:43Z</time>
      </trkpt>
      <trkpt lat="44.78117" lon="4.51918">
        <ele>401.01</ele>
        <time>2011-04-07T11:34:51Z</time>
      </trkpt>
      <trkpt lat="44.78112" lon="4.51912">
        <ele>400.05</ele>
        <time>2011-04-07T11:34:58Z</time>
      </trkpt>
      <trkpt lat="44.78106" lon="4.51902">
        <ele>399.08</ele>
        <time>2011-04-07T11:35:05Z</time>
      </trkpt>
      <trkpt lat="44.78107" lon="4.51906">
        <ele>398.12</ele>
        <time>2011-04-07T11:35:10Z</time>
      </trkpt>
      <trkpt lat="44.78097" lon="4.519">
        <ele>396.68</ele>
        <time>2011-04-07T11:35:16Z</time>
      </trkpt>
      <trkpt lat="44.78086" lon="4.51888">
        <ele>396.2</ele>
        <time>2011-04-07T11:35:24Z</time>
      </trkpt>
      <trkpt lat="44.78085" lon="4.51884">
        <ele>395.72</ele>
        <time>2011-04-07T11:35:30Z</time>
      </trkpt>
      <trkpt lat="44.78077" lon="4.51875">
        <ele>395.24</ele>
        <time>2011-04-07T11:35:38Z</time>
      </trkpt>
      <trkpt lat="44.78079" lon="4.51873">
        <ele>395.24</ele>
        <time>2011-04-07T11:35:40Z</time>
      </trkpt>
      <trkpt lat="44.7807" lon="4.51866">
        <ele>393.32</ele>
        <time>2011-04-07T11:35:48Z</time>
      </trkpt>
      <trkpt lat="44.78068" lon="4.51858">
        <ele>392.84</ele>
        <time>2011-04-07T11:35:53Z</time>
      </trkpt>
      <trkpt lat="44.78068" lon="4.51858">
        <ele>391.87</ele>
        <time>2011-04-07T11:35:57Z</time>
      </trkpt>
      <trkpt lat="44.78071" lon="4.51859">
        <ele>389.95</ele>
        <time>2011-04-07T11:36:04Z</time>
      </trkpt>
      <trkpt lat="44.78081" lon="4.51861">
        <ele>388.03</ele>
        <time>2011-04-07T11:36:12Z</time>
      </trkpt>
      <trkpt lat="44.78087" lon="4.51849">
        <ele>387.55</ele>
        <time>2011-04-07T11:36:19Z</time>
      </trkpt>
      <trkpt lat="44.78093" lon="4.51842">
        <ele>388.03</ele>
        <time>2011-04-07T11:36:26Z</time>
      </trkpt>
      <trkpt lat="44.78096" lon="4.51839">
        <ele>388.03</ele>
        <time>2011-04-07T11:36:34Z</time>
      </trkpt>
      <trkpt lat="44.78101" lon="4.5183">
        <ele>386.59</ele>
        <time>2011-04-07T11:36:43Z</time>
      </trkpt>
      <trkpt lat="44.781" lon="4.51816">
        <ele>386.11</ele>
        <time>2011-04-07T11:36:51Z</time>
      </trkpt>
      <trkpt lat="44.78107" lon="4.51806">
        <ele>387.55</ele>
        <time>2011-04-07T11:36:59Z</time>
      </trkpt>
      <trkpt lat="44.78116" lon="4.51804">
        <ele>388.03</ele>
        <time>2011-04-07T11:37:06Z</time>
      </trkpt>
      <trkpt lat="44.78118" lon="4.51802">
        <ele>388.99</ele>
        <time>2011-04-07T11:37:13Z</time>
      </trkpt>
      <trkpt lat="44.78118" lon="4.518">
        <ele>388.99</ele>
        <time>2011-04-07T11:37:15Z</time>
      </trkpt>
      <trkpt lat="44.78129" lon="4.51794">
        <ele>388.51</ele>
        <time>2011-04-07T11:37:25Z</time>
      </trkpt>
      <trkpt lat="44.78136" lon="4.51793">
        <ele>388.99</ele>
        <time>2011-04-07T11:37:31Z</time>
      </trkpt>
      <trkpt lat="44.78142" lon="4.51808">
        <ele>388.03</ele>
        <time>2011-04-07T11:37:41Z</time>
      </trkpt>
      <trkpt lat="44.78147" lon="4.51816">
        <ele>388.51</ele>
        <time>2011-04-07T11:37:48Z</time>
      </trkpt>
      <trkpt lat="44.78151" lon="4.51824">
        <ele>388.51</ele>
        <time>2011-04-07T11:37:52Z</time>
      </trkpt>
      <trkpt lat="44.78157" lon="4.51828">
        <ele>389.47</ele>
        <time>2011-04-07T11:38:02Z</time>
      </trkpt>
      <trkpt lat="44.78163" lon="4.51832">
        <ele>390.91</ele>
        <time>2011-04-07T11:38:08Z</time>
      </trkpt>
      <trkpt lat="44.78168" lon="4.5184">
        <ele>391.39</ele>
        <time>2011-04-07T11:38:16Z</time>
      </trkpt>
      <trkpt lat="44.78173" lon="4.51848">
        <ele>392.36</ele>
        <time>2011-04-07T11:38:24Z</time>
      </trkpt>
      <trkpt lat="44.7818" lon="4.51849">
        <ele>392.84</ele>
        <time>2011-04-07T11:38:32Z</time>
      </trkpt>
      <trkpt lat="44.78184" lon="4.51852">
        <ele>392.84</ele>
        <time>2011-04-07T11:38:34Z</time>
      </trkpt>
      <trkpt lat="44.78192" lon="4.51857">
        <ele>393.32</ele>
        <time>2011-04-07T11:38:43Z</time>
      </trkpt>
      <trkpt lat="44.78196" lon="4.51859">
        <ele>393.32</ele>
        <time>2011-04-07T11:38:47Z</time>
      </trkpt>
      <trkpt lat="44.78202" lon="4.51867">
        <ele>394.76</ele>
        <time>2011-04-07T11:38:56Z</time>
      </trkpt>
      <trkpt lat="44.78206" lon="4.51876">
        <ele>394.76</ele>
        <time>2011-04-07T11:39:04Z</time>
      </trkpt>
      <trkpt lat="44.78214" lon="4.51876">
        <ele>395.72</ele>
        <time>2011-04-07T11:39:12Z</time>
      </trkpt>
      <trkpt lat="44.78214" lon="4.51879">
        <ele>395.72</ele>
        <time>2011-04-07T11:39:15Z</time>
      </trkpt>
      <trkpt lat="44.78219" lon="4.5189">
        <ele>395.72</ele>
        <time>2011-04-07T11:39:25Z</time>
      </trkpt>
      <trkpt lat="44.7822" lon="4.51901">
        <ele>395.72</ele>
        <time>2011-04-07T11:39:31Z</time>
      </trkpt>
      <trkpt lat="44.78227" lon="4.51912">
        <ele>395.72</ele>
        <time>2011-04-07T11:39:41Z</time>
      </trkpt>
      <trkpt lat="44.78238" lon="4.51922">
        <ele>395.72</ele>
        <time>2011-04-07T11:39:51Z</time>
      </trkpt>
      <trkpt lat="44.78244" lon="4.51937">
        <ele>395.24</ele>
        <time>2011-04-07T11:40:01Z</time>
      </trkpt>
      <trkpt lat="44.78251" lon="4.51941">
        <ele>395.24</ele>
        <time>2011-04-07T11:40:09Z</time>
      </trkpt>
      <trkpt lat="44.78262" lon="4.51949">
        <ele>395.24</ele>
        <time>2011-04-07T11:40:18Z</time>
      </trkpt>
      <trkpt lat="44.78264" lon="4.51952">
        <ele>395.24</ele>
        <time>2011-04-07T11:40:26Z</time>
      </trkpt>
      <trkpt lat="44.78257" lon="4.51969">
        <ele>394.76</ele>
        <time>2011-04-07T11:40:34Z</time>
      </trkpt>
      <trkpt lat="44.78256" lon="4.51983">
        <ele>395.24</ele>
        <time>2011-04-07T11:40:42Z</time>
      </trkpt>
      <trkpt lat="44.78254" lon="4.51994">
        <ele>395.24</ele>
        <time>2011-04-07T11:40:49Z</time>
      </trkpt>
      <trkpt lat="44.7826" lon="4.52008">
        <ele>395.24</ele>
        <time>2011-04-07T11:40:59Z</time>
      </trkpt>
      <trkpt lat="44.78265" lon="4.52019">
        <ele>394.28</ele>
        <time>2011-04-07T11:41:07Z</time>
      </trkpt>
      <trkpt lat="44.78272" lon="4.5203">
        <ele>394.28</ele>
        <time>2011-04-07T11:41:17Z</time>
      </trkpt>
      <trkpt lat="44.78281" lon="4.52043">
        <ele>395.24</ele>
        <time>2011-04-07T11:41:25Z</time>
      </trkpt>
      <trkpt lat="44.78288" lon="4.5205">
        <ele>394.76</ele>
        <time>2011-04-07T11:41:34Z</time>
      </trkpt>
      <trkpt lat="44.78292" lon="4.52064">
        <ele>394.76</ele>
        <time>2011-04-07T11:41:43Z</time>
      </trkpt>
      <trkpt lat="44.78301" lon="4.52074">
        <ele>394.28</ele>
        <time>2011-04-07T11:41:53Z</time>
      </trkpt>
      <trkpt lat="44.78308" lon="4.52086">
        <ele>394.28</ele>
        <time>2011-04-07T11:42:02Z</time>
      </trkpt>
      <trkpt lat="44.78316" lon="4.52098">
        <ele>394.28</ele>
        <time>2011-04-07T11:42:12Z</time>
      </trkpt>
      <trkpt lat="44.78317" lon="4.52099">
        <ele>393.8</ele>
        <time>2011-04-07T11:42:13Z</time>
      </trkpt>
      <trkpt lat="44.78321" lon="4.5211">
        <ele>393.8</ele>
        <time>2011-04-07T11:42:20Z</time>
      </trkpt>
      <trkpt lat="44.78327" lon="4.52125">
        <ele>393.8</ele>
        <time>2011-04-07T11:42:31Z</time>
      </trkpt>
      <trkpt lat="44.78336" lon="4.52135">
        <ele>393.8</ele>
        <time>2011-04-07T11:42:41Z</time>
      </trkpt>
      <trkpt lat="44.78343" lon="4.52155">
        <ele>393.8</ele>
        <time>2011-04-07T11:42:53Z</time>
      </trkpt>
      <trkpt lat="44.78349" lon="4.52167">
        <ele>393.8</ele>
        <time>2011-04-07T11:43:02Z</time>
      </trkpt>
      <trkpt lat="44.78359" lon="4.52177">
        <ele>393.32</ele>
        <time>2011-04-07T11:43:11Z</time>
      </trkpt>
      <trkpt lat="44.78371" lon="4.52186">
        <ele>393.32</ele>
        <time>2011-04-07T11:43:22Z</time>
      </trkpt>
      <trkpt lat="44.78379" lon="4.52197">
        <ele>393.8</ele>
        <time>2011-04-07T11:43:32Z</time>
      </trkpt>
      <trkpt lat="44.78385" lon="4.5221">
        <ele>393.32</ele>
        <time>2011-04-07T11:43:40Z</time>
      </trkpt>
      <trkpt lat="44.78393" lon="4.52222">
        <ele>393.32</ele>
        <time>2011-04-07T11:43:50Z</time>
      </trkpt>
      <trkpt lat="44.78398" lon="4.52231">
        <ele>392.84</ele>
        <time>2011-04-07T11:43:59Z</time>
      </trkpt>
      <trkpt lat="44.78399" lon="4.52251">
        <ele>393.32</ele>
        <time>2011-04-07T11:44:08Z</time>
      </trkpt>
      <trkpt lat="44.78398" lon="4.52267">
        <ele>392.84</ele>
        <time>2011-04-07T11:44:16Z</time>
      </trkpt>
      <trkpt lat="44.78401" lon="4.52281">
        <ele>392.36</ele>
        <time>2011-04-07T11:44:26Z</time>
      </trkpt>
      <trkpt lat="44.78405" lon="4.52296">
        <ele>392.84</ele>
        <time>2011-04-07T11:44:34Z</time>
      </trkpt>
      <trkpt lat="44.78407" lon="4.5231">
        <ele>392.36</ele>
        <time>2011-04-07T11:44:42Z</time>
      </trkpt>
      <trkpt lat="44.78414" lon="4.52323">
        <ele>391.87</ele>
        <time>2011-04-07T11:44:52Z</time>
      </trkpt>
      <trkpt lat="44.78419" lon="4.52329">
        <ele>391.39</ele>
        <time>2011-04-07T11:45:00Z</time>
      </trkpt>
      <trkpt lat="44.78424" lon="4.52344">
        <ele>390.91</ele>
        <time>2011-04-07T11:45:09Z</time>
      </trkpt>
      <trkpt lat="44.78425" lon="4.52365">
        <ele>390.43</ele>
        <time>2011-04-07T11:45:19Z</time>
      </trkpt>
      <trkpt lat="44.78429" lon="4.52378">
        <ele>389.95</ele>
        <time>2011-04-07T11:45:28Z</time>
      </trkpt>
      <trkpt lat="44.78435" lon="4.52392">
        <ele>388.99</ele>
        <time>2011-04-07T11:45:36Z</time>
      </trkpt>
      <trkpt lat="44.78442" lon="4.52404">
        <ele>389.47</ele>
        <time>2011-04-07T11:45:46Z</time>
      </trkpt>
      <trkpt lat="44.7845" lon="4.5241">
        <ele>388.51</ele>
        <time>2011-04-07T11:45:54Z</time>
      </trkpt>
      <trkpt lat="44.78455" lon="4.52431">
        <ele>388.03</ele>
        <time>2011-04-07T11:46:05Z</time>
      </trkpt>
      <trkpt lat="44.78459" lon="4.52441">
        <ele>387.07</ele>
        <time>2011-04-07T11:46:14Z</time>
      </trkpt>
      <trkpt lat="44.78463" lon="4.52457">
        <ele>387.07</ele>
        <time>2011-04-07T11:46:22Z</time>
      </trkpt>
      <trkpt lat="44.78467" lon="4.52473">
        <ele>386.59</ele>
        <time>2011-04-07T11:46:31Z</time>
      </trkpt>
      <trkpt lat="44.78477" lon="4.5248">
        <ele>386.11</ele>
        <time>2011-04-07T11:46:41Z</time>
      </trkpt>
      <trkpt lat="44.78486" lon="4.52492">
        <ele>385.15</ele>
        <time>2011-04-07T11:46:51Z</time>
      </trkpt>
      <trkpt lat="44.78499" lon="4.52498">
        <ele>384.66</ele>
        <time>2011-04-07T11:47:02Z</time>
      </trkpt>
      <trkpt lat="44.78509" lon="4.52506">
        <ele>384.66</ele>
        <time>2011-04-07T11:47:11Z</time>
      </trkpt>
      <trkpt lat="44.78521" lon="4.52506">
        <ele>383.7</ele>
        <time>2011-04-07T11:47:21Z</time>
      </trkpt>
      <trkpt lat="44.78532" lon="4.52503">
        <ele>382.74</ele>
        <time>2011-04-07T11:47:31Z</time>
      </trkpt>
      <trkpt lat="44.78543" lon="4.52494">
        <ele>382.74</ele>
        <time>2011-04-07T11:47:42Z</time>
      </trkpt>
      <trkpt lat="44.78553" lon="4.52485">
        <ele>382.26</ele>
        <time>2011-04-07T11:47:48Z</time>
      </trkpt>
      <trkpt lat="44.78558" lon="4.52485">
        <ele>382.26</ele>
        <time>2011-04-07T11:47:56Z</time>
      </trkpt>
      <trkpt lat="44.78565" lon="4.52494">
        <ele>382.26</ele>
        <time>2011-04-07T11:48:06Z</time>
      </trkpt>
      <trkpt lat="44.78567" lon="4.52505">
        <ele>381.78</ele>
        <time>2011-04-07T11:48:16Z</time>
      </trkpt>
      <trkpt lat="44.78566" lon="4.52506">
        <ele>381.78</ele>
        <time>2011-04-07T11:48:18Z</time>
      </trkpt>
      <trkpt lat="44.7856" lon="4.52517">
        <ele>381.78</ele>
        <time>2011-04-07T11:48:27Z</time>
      </trkpt>
      <trkpt lat="44.78556" lon="4.52521">
        <ele>381.78</ele>
        <time>2011-04-07T11:48:32Z</time>
      </trkpt>
      <trkpt lat="44.78549" lon="4.52527">
        <ele>381.3</ele>
        <time>2011-04-07T11:48:39Z</time>
      </trkpt>
      <trkpt lat="44.78538" lon="4.5254">
        <ele>381.3</ele>
        <time>2011-04-07T11:48:50Z</time>
      </trkpt>
      <trkpt lat="44.78536" lon="4.52543">
        <ele>380.82</ele>
        <time>2011-04-07T11:48:53Z</time>
      </trkpt>
      <trkpt lat="44.78528" lon="4.52554">
        <ele>381.3</ele>
        <time>2011-04-07T11:49:02Z</time>
      </trkpt>
      <trkpt lat="44.78523" lon="4.52564">
        <ele>380.82</ele>
        <time>2011-04-07T11:49:10Z</time>
      </trkpt>
      <trkpt lat="44.78522" lon="4.5258">
        <ele>380.34</ele>
        <time>2011-04-07T11:49:19Z</time>
      </trkpt>
      <trkpt lat="44.78523" lon="4.52594">
        <ele>380.34</ele>
        <time>2011-04-07T11:49:28Z</time>
      </trkpt>
      <trkpt lat="44.78529" lon="4.52608">
        <ele>380.34</ele>
        <time>2011-04-07T11:49:36Z</time>
      </trkpt>
      <trkpt lat="44.78538" lon="4.52617">
        <ele>379.86</ele>
        <time>2011-04-07T11:49:47Z</time>
      </trkpt>
      <trkpt lat="44.78546" lon="4.5263">
        <ele>378.9</ele>
        <time>2011-04-07T11:49:58Z</time>
      </trkpt>
      <trkpt lat="44.78548" lon="4.52634">
        <ele>379.38</ele>
        <time>2011-04-07T11:50:01Z</time>
      </trkpt>
      <trkpt lat="44.78555" lon="4.52642">
        <ele>378.9</ele>
        <time>2011-04-07T11:50:06Z</time>
      </trkpt>
      <trkpt lat="44.78564" lon="4.52654">
        <ele>378.42</ele>
        <time>2011-04-07T11:50:17Z</time>
      </trkpt>
      <trkpt lat="44.78565" lon="4.52665">
        <ele>377.94</ele>
        <time>2011-04-07T11:50:21Z</time>
      </trkpt>
      <trkpt lat="44.78566" lon="4.52676">
        <ele>377.45</ele>
        <time>2011-04-07T11:50:28Z</time>
      </trkpt>
      <trkpt lat="44.78568" lon="4.52693">
        <ele>376.97</ele>
        <time>2011-04-07T11:50:39Z</time>
      </trkpt>
      <trkpt lat="44.78571" lon="4.52704">
        <ele>376.49</ele>
        <time>2011-04-07T11:50:48Z</time>
      </trkpt>
      <trkpt lat="44.78574" lon="4.52715">
        <ele>376.49</ele>
        <time>2011-04-07T11:50:56Z</time>
      </trkpt>
      <trkpt lat="44.78576" lon="4.52713">
        <ele>376.01</ele>
        <time>2011-04-07T11:51:04Z</time>
      </trkpt>
      <trkpt lat="44.78576" lon="4.52713">
        <ele>376.01</ele>
        <time>2011-04-07T11:51:13Z</time>
      </trkpt>
      <trkpt lat="44.78585" lon="4.52719">
        <ele>375.53</ele>
        <time>2011-04-07T11:51:21Z</time>
      </trkpt>
      <trkpt lat="44.78597" lon="4.52741">
        <ele>375.05</ele>
        <time>2011-04-07T11:51:31Z</time>
      </trkpt>
      <trkpt lat="44.78604" lon="4.52751">
        <ele>374.09</ele>
        <time>2011-04-07T11:51:40Z</time>
      </trkpt>
      <trkpt lat="44.78609" lon="4.52765">
        <ele>374.09</ele>
        <time>2011-04-07T11:51:49Z</time>
      </trkpt>
      <trkpt lat="44.78616" lon="4.52776">
        <ele>373.13</ele>
        <time>2011-04-07T11:51:57Z</time>
      </trkpt>
      <trkpt lat="44.78628" lon="4.52791">
        <ele>372.17</ele>
        <time>2011-04-07T11:52:09Z</time>
      </trkpt>
      <trkpt lat="44.78638" lon="4.528">
        <ele>371.69</ele>
        <time>2011-04-07T11:52:18Z</time>
      </trkpt>
      <trkpt lat="44.78651" lon="4.52809">
        <ele>371.69</ele>
        <time>2011-04-07T11:52:29Z</time>
      </trkpt>
      <trkpt lat="44.78655" lon="4.52824">
        <ele>371.21</ele>
        <time>2011-04-07T11:52:38Z</time>
      </trkpt>
      <trkpt lat="44.78663" lon="4.5284">
        <ele>370.73</ele>
        <time>2011-04-07T11:52:48Z</time>
      </trkpt>
      <trkpt lat="44.78671" lon="4.52848">
        <ele>370.24</ele>
        <time>2011-04-07T11:52:56Z</time>
      </trkpt>
      <trkpt lat="44.78675" lon="4.52849">
        <ele>370.24</ele>
        <time>2011-04-07T11:53:00Z</time>
      </trkpt>
      <trkpt lat="44.78677" lon="4.52871">
        <ele>369.76</ele>
        <time>2011-04-07T11:53:09Z</time>
      </trkpt>
      <trkpt lat="44.78678" lon="4.52872">
        <ele>369.76</ele>
        <time>2011-04-07T11:53:10Z</time>
      </trkpt>
      <trkpt lat="44.78686" lon="4.5289">
        <ele>368.8</ele>
        <time>2011-04-07T11:53:22Z</time>
      </trkpt>
      <trkpt lat="44.78688" lon="4.52901">
        <ele>368.8</ele>
        <time>2011-04-07T11:53:29Z</time>
      </trkpt>
      <trkpt lat="44.78689" lon="4.52916">
        <ele>368.32</ele>
        <time>2011-04-07T11:53:38Z</time>
      </trkpt>
      <trkpt lat="44.78688" lon="4.52926">
        <ele>368.32</ele>
        <time>2011-04-07T11:53:44Z</time>
      </trkpt>
      <trkpt lat="44.78683" lon="4.52936">
        <ele>368.32</ele>
        <time>2011-04-07T11:53:51Z</time>
      </trkpt>
      <trkpt lat="44.78674" lon="4.52949">
        <ele>367.84</ele>
        <time>2011-04-07T11:54:01Z</time>
      </trkpt>
      <trkpt lat="44.78668" lon="4.52959">
        <ele>367.36</ele>
        <time>2011-04-07T11:54:09Z</time>
      </trkpt>
      <trkpt lat="44.78666" lon="4.52962">
        <ele>367.84</ele>
        <time>2011-04-07T11:54:11Z</time>
      </trkpt>
      <trkpt lat="44.78662" lon="4.5297">
        <ele>367.36</ele>
        <time>2011-04-07T11:54:17Z</time>
      </trkpt>
      <trkpt lat="44.7865" lon="4.5298">
        <ele>366.88</ele>
        <time>2011-04-07T11:54:28Z</time>
      </trkpt>
      <trkpt lat="44.78643" lon="4.52987">
        <ele>366.4</ele>
        <time>2011-04-07T11:54:35Z</time>
      </trkpt>
      <trkpt lat="44.78638" lon="4.53001">
        <ele>366.4</ele>
        <time>2011-04-07T11:54:44Z</time>
      </trkpt>
      <trkpt lat="44.7864" lon="4.53016">
        <ele>365.92</ele>
        <time>2011-04-07T11:54:53Z</time>
      </trkpt>
      <trkpt lat="44.78642" lon="4.53023">
        <ele>365.44</ele>
        <time>2011-04-07T11:54:57Z</time>
      </trkpt>
      <trkpt lat="44.78642" lon="4.53038">
        <ele>364.96</ele>
        <time>2011-04-07T11:55:07Z</time>
      </trkpt>
      <trkpt lat="44.78644" lon="4.5305">
        <ele>364.96</ele>
        <time>2011-04-07T11:55:11Z</time>
      </trkpt>
      <trkpt lat="44.78656" lon="4.53061">
        <ele>364.48</ele>
        <time>2011-04-07T11:55:21Z</time>
      </trkpt>
      <trkpt lat="44.78665" lon="4.53071">
        <ele>363.04</ele>
        <time>2011-04-07T11:55:31Z</time>
      </trkpt>
      <trkpt lat="44.78668" lon="4.53071">
        <ele>363.04</ele>
        <time>2011-04-07T11:55:33Z</time>
      </trkpt>
      <trkpt lat="44.78675" lon="4.53086">
        <ele>362.07</ele>
        <time>2011-04-07T11:55:43Z</time>
      </trkpt>
      <trkpt lat="44.78685" lon="4.53096">
        <ele>361.59</ele>
        <time>2011-04-07T11:55:52Z</time>
      </trkpt>
      <trkpt lat="44.78692" lon="4.53111">
        <ele>361.11</ele>
        <time>2011-04-07T11:56:02Z</time>
      </trkpt>
      <trkpt lat="44.78695" lon="4.53119">
        <ele>360.63</ele>
        <time>2011-04-07T11:56:10Z</time>
      </trkpt>
      <trkpt lat="44.78699" lon="4.53132">
        <ele>360.15</ele>
        <time>2011-04-07T11:56:18Z</time>
      </trkpt>
      <trkpt lat="44.78708" lon="4.53149">
        <ele>359.67</ele>
        <time>2011-04-07T11:56:29Z</time>
      </trkpt>
      <trkpt lat="44.78714" lon="4.53162">
        <ele>358.71</ele>
        <time>2011-04-07T11:56:38Z</time>
      </trkpt>
      <trkpt lat="44.78717" lon="4.53164">
        <ele>359.19</ele>
        <time>2011-04-07T11:56:41Z</time>
      </trkpt>
      <trkpt lat="44.78724" lon="4.53175">
        <ele>357.75</ele>
        <time>2011-04-07T11:56:50Z</time>
      </trkpt>
      <trkpt lat="44.78732" lon="4.53186">
        <ele>357.27</ele>
        <time>2011-04-07T11:57:00Z</time>
      </trkpt>
      <trkpt lat="44.78741" lon="4.53194">
        <ele>356.79</ele>
        <time>2011-04-07T11:57:07Z</time>
      </trkpt>
      <trkpt lat="44.78751" lon="4.532">
        <ele>356.31</ele>
        <time>2011-04-07T11:57:17Z</time>
      </trkpt>
      <trkpt lat="44.78745" lon="4.53202">
        <ele>355.34</ele>
        <time>2011-04-07T11:57:25Z</time>
      </trkpt>
      <trkpt lat="44.78744" lon="4.53203">
        <ele>355.34</ele>
        <time>2011-04-07T11:57:26Z</time>
      </trkpt>
      <trkpt lat="44.7874" lon="4.53207">
        <ele>353.9</ele>
        <time>2011-04-07T11:57:31Z</time>
      </trkpt>
      <trkpt lat="44.78734" lon="4.53217">
        <ele>353.42</ele>
        <time>2011-04-07T11:57:41Z</time>
      </trkpt>
      <trkpt lat="44.78735" lon="4.53225">
        <ele>352.94</ele>
        <time>2011-04-07T11:57:48Z</time>
      </trkpt>
      <trkpt lat="44.78729" lon="4.53224">
        <ele>352.94</ele>
        <time>2011-04-07T11:57:57Z</time>
      </trkpt>
      <trkpt lat="44.7873" lon="4.53228">
        <ele>352.94</ele>
        <time>2011-04-07T11:58:02Z</time>
      </trkpt>
      <trkpt lat="44.7873" lon="4.53237">
        <ele>352.94</ele>
        <time>2011-04-07T11:58:06Z</time>
      </trkpt>
      <trkpt lat="44.78728" lon="4.53248">
        <ele>351.02</ele>
        <time>2011-04-07T11:58:16Z</time>
      </trkpt>
      <trkpt lat="44.78734" lon="4.5326">
        <ele>350.54</ele>
        <time>2011-04-07T11:58:25Z</time>
      </trkpt>
      <trkpt lat="44.7874" lon="4.53268">
        <ele>351.02</ele>
        <time>2011-04-07T11:58:34Z</time>
      </trkpt>
      <trkpt lat="44.7874" lon="4.53267">
        <ele>351.5</ele>
        <time>2011-04-07T11:58:45Z</time>
      </trkpt>
      <trkpt lat="44.78744" lon="4.53275">
        <ele>351.5</ele>
        <time>2011-04-07T11:58:54Z</time>
      </trkpt>
      <trkpt lat="44.78747" lon="4.53279">
        <ele>351.5</ele>
        <time>2011-04-07T11:58:57Z</time>
      </trkpt>
      <trkpt lat="44.78749" lon="4.53283">
        <ele>351.98</ele>
        <time>2011-04-07T11:59:01Z</time>
      </trkpt>
      <trkpt lat="44.78754" lon="4.53295">
        <ele>352.46</ele>
        <time>2011-04-07T11:59:11Z</time>
      </trkpt>
      <trkpt lat="44.78757" lon="4.53301">
        <ele>352.94</ele>
        <time>2011-04-07T11:59:39Z</time>
      </trkpt>
      <trkpt lat="44.78757" lon="4.53306">
        <ele>352.94</ele>
        <time>2011-04-07T11:59:45Z</time>
      </trkpt>
      <trkpt lat="44.78769" lon="4.53319">
        <ele>352.46</ele>
        <time>2011-04-07T11:59:55Z</time>
      </trkpt>
      <trkpt lat="44.78773" lon="4.53331">
        <ele>352.94</ele>
        <time>2011-04-07T12:00:03Z</time>
      </trkpt>
      <trkpt lat="44.78775" lon="4.53337">
        <ele>352.46</ele>
        <time>2011-04-07T12:00:07Z</time>
      </trkpt>
      <trkpt lat="44.78781" lon="4.53351">
        <ele>351.98</ele>
        <time>2011-04-07T12:00:16Z</time>
      </trkpt>
      <trkpt lat="44.78781" lon="4.53364">
        <ele>351.98</ele>
        <time>2011-04-07T12:00:24Z</time>
      </trkpt>
      <trkpt lat="44.78782" lon="4.53371">
        <ele>352.46</ele>
        <time>2011-04-07T12:00:28Z</time>
      </trkpt>
      <trkpt lat="44.78782" lon="4.53381">
        <ele>353.42</ele>
        <time>2011-04-07T12:00:34Z</time>
      </trkpt>
      <trkpt lat="44.78782" lon="4.53393">
        <ele>354.38</ele>
        <time>2011-04-07T12:00:40Z</time>
      </trkpt>
      <trkpt lat="44.78781" lon="4.53401">
        <ele>353.9</ele>
        <time>2011-04-07T12:00:45Z</time>
      </trkpt>
      <trkpt lat="44.7878" lon="4.53417">
        <ele>353.9</ele>
        <time>2011-04-07T12:00:55Z</time>
      </trkpt>
      <trkpt lat="44.78781" lon="4.53424">
        <ele>353.42</ele>
        <time>2011-04-07T12:01:00Z</time>
      </trkpt>
      <trkpt lat="44.78781" lon="4.53444">
        <ele>352.46</ele>
        <time>2011-04-07T12:01:09Z</time>
      </trkpt>
      <trkpt lat="44.78783" lon="4.53456">
        <ele>351.98</ele>
        <time>2011-04-07T12:01:17Z</time>
      </trkpt>
      <trkpt lat="44.78786" lon="4.53469">
        <ele>351.98</ele>
        <time>2011-04-07T12:01:24Z</time>
      </trkpt>
      <trkpt lat="44.78779" lon="4.53482">
        <ele>351.98</ele>
        <time>2011-04-07T12:01:32Z</time>
      </trkpt>
      <trkpt lat="44.7878" lon="4.53487">
        <ele>351.98</ele>
        <time>2011-04-07T12:01:35Z</time>
      </trkpt>
      <trkpt lat="44.7878" lon="4.53495">
        <ele>352.94</ele>
        <time>2011-04-07T12:01:42Z</time>
      </trkpt>
      <trkpt lat="44.78779" lon="4.53502">
        <ele>353.42</ele>
        <time>2011-04-07T12:01:46Z</time>
      </trkpt>
      <trkpt lat="44.78775" lon="4.53515">
        <ele>352.46</ele>
        <time>2011-04-07T12:01:55Z</time>
      </trkpt>
      <trkpt lat="44.78769" lon="4.53525">
        <ele>351.5</ele>
        <time>2011-04-07T12:02:02Z</time>
      </trkpt>
      <trkpt lat="44.78761" lon="4.53538">
        <ele>351.98</ele>
        <time>2011-04-07T12:02:11Z</time>
      </trkpt>
      <trkpt lat="44.78755" lon="4.53547">
        <ele>352.46</ele>
        <time>2011-04-07T12:02:19Z</time>
      </trkpt>
      <trkpt lat="44.78748" lon="4.53556">
        <ele>353.9</ele>
        <time>2011-04-07T12:02:27Z</time>
      </trkpt>
      <trkpt lat="44.78747" lon="4.53559">
        <ele>354.86</ele>
        <time>2011-04-07T12:02:33Z</time>
      </trkpt>
      <trkpt lat="44.7874" lon="4.53566">
        <ele>355.83</ele>
        <time>2011-04-07T12:02:39Z</time>
      </trkpt>
      <trkpt lat="44.7874" lon="4.53568">
        <ele>357.75</ele>
        <time>2011-04-07T12:02:46Z</time>
      </trkpt>
      <trkpt lat="44.78735" lon="4.53569">
        <ele>358.23</ele>
        <time>2011-04-07T12:02:50Z</time>
      </trkpt>
      <trkpt lat="44.78727" lon="4.53577">
        <ele>360.63</ele>
        <time>2011-04-07T12:03:03Z</time>
      </trkpt>
      <trkpt lat="44.78723" lon="4.53578">
        <ele>361.11</ele>
        <time>2011-04-07T12:03:08Z</time>
      </trkpt>
      <trkpt lat="44.78722" lon="4.53582">
        <ele>361.59</ele>
        <time>2011-04-07T12:03:13Z</time>
      </trkpt>
      <trkpt lat="44.78718" lon="4.53587">
        <ele>362.55</ele>
        <time>2011-04-07T12:03:20Z</time>
      </trkpt>
      <trkpt lat="44.78712" lon="4.53596">
        <ele>362.55</ele>
        <time>2011-04-07T12:03:28Z</time>
      </trkpt>
      <trkpt lat="44.78705" lon="4.53607">
        <ele>362.55</ele>
        <time>2011-04-07T12:03:38Z</time>
      </trkpt>
      <trkpt lat="44.78696" lon="4.53611">
        <ele>363.04</ele>
        <time>2011-04-07T12:03:45Z</time>
      </trkpt>
      <trkpt lat="44.78695" lon="4.53618">
        <ele>363.52</ele>
        <time>2011-04-07T12:03:50Z</time>
      </trkpt>
      <trkpt lat="44.78688" lon="4.53625">
        <ele>364.48</ele>
        <time>2011-04-07T12:03:56Z</time>
      </trkpt>
      <trkpt lat="44.78685" lon="4.5363">
        <ele>365.92</ele>
        <time>2011-04-07T12:04:05Z</time>
      </trkpt>
      <trkpt lat="44.7867" lon="4.53642">
        <ele>367.36</ele>
        <time>2011-04-07T12:04:19Z</time>
      </trkpt>
      <trkpt lat="44.78664" lon="4.5365">
        <ele>367.36</ele>
        <time>2011-04-07T12:04:26Z</time>
      </trkpt>
      <trkpt lat="44.78658" lon="4.53663">
        <ele>367.36</ele>
        <time>2011-04-07T12:04:34Z</time>
      </trkpt>
      <trkpt lat="44.78655" lon="4.53669">
        <ele>367.36</ele>
        <time>2011-04-07T12:04:39Z</time>
      </trkpt>
      <trkpt lat="44.7865" lon="4.53667">
        <ele>367.36</ele>
        <time>2011-04-07T12:04:46Z</time>
      </trkpt>
      <trkpt lat="44.78639" lon="4.53673">
        <ele>365.92</ele>
        <time>2011-04-07T12:04:53Z</time>
      </trkpt>
      <trkpt lat="44.78637" lon="4.53681">
        <ele>365.44</ele>
        <time>2011-04-07T12:04:59Z</time>
      </trkpt>
      <trkpt lat="44.78646" lon="4.5369">
        <ele>364.48</ele>
        <time>2011-04-07T12:05:07Z</time>
      </trkpt>
      <trkpt lat="44.78645" lon="4.53697">
        <ele>364.48</ele>
        <time>2011-04-07T12:05:14Z</time>
      </trkpt>
      <trkpt lat="44.7864" lon="4.53707">
        <ele>364.96</ele>
        <time>2011-04-07T12:05:19Z</time>
      </trkpt>
      <trkpt lat="44.78634" lon="4.53715">
        <ele>365.92</ele>
        <time>2011-04-07T12:05:27Z</time>
      </trkpt>
      <trkpt lat="44.78629" lon="4.53718">
        <ele>366.4</ele>
        <time>2011-04-07T12:05:32Z</time>
      </trkpt>
      <trkpt lat="44.78622" lon="4.53725">
        <ele>367.84</ele>
        <time>2011-04-07T12:05:40Z</time>
      </trkpt>
      <trkpt lat="44.78617" lon="4.5373">
        <ele>368.32</ele>
        <time>2011-04-07T12:05:47Z</time>
      </trkpt>
      <trkpt lat="44.78615" lon="4.53735">
        <ele>369.28</ele>
        <time>2011-04-07T12:05:52Z</time>
      </trkpt>
      <trkpt lat="44.7861" lon="4.5374">
        <ele>369.76</ele>
        <time>2011-04-07T12:05:58Z</time>
      </trkpt>
      <trkpt lat="44.78603" lon="4.53747">
        <ele>369.28</ele>
        <time>2011-04-07T12:06:05Z</time>
      </trkpt>
      <trkpt lat="44.78596" lon="4.53767">
        <ele>370.24</ele>
        <time>2011-04-07T12:06:13Z</time>
      </trkpt>
      <trkpt lat="44.78595" lon="4.53768">
        <ele>371.21</ele>
        <time>2011-04-07T12:06:20Z</time>
      </trkpt>
      <trkpt lat="44.78588" lon="4.53776">
        <ele>371.21</ele>
        <time>2011-04-07T12:06:24Z</time>
      </trkpt>
      <trkpt lat="44.78587" lon="4.53786">
        <ele>372.17</ele>
        <time>2011-04-07T12:06:32Z</time>
      </trkpt>
      <trkpt lat="44.78586" lon="4.53789">
        <ele>372.17</ele>
        <time>2011-04-07T12:06:33Z</time>
      </trkpt>
      <trkpt lat="44.78582" lon="4.53794">
        <ele>372.17</ele>
        <time>2011-04-07T12:06:40Z</time>
      </trkpt>
      <trkpt lat="44.78579" lon="4.53796">
        <ele>372.65</ele>
        <time>2011-04-07T12:06:41Z</time>
      </trkpt>
      <trkpt lat="44.78571" lon="4.53803">
        <ele>372.17</ele>
        <time>2011-04-07T12:06:49Z</time>
      </trkpt>
      <trkpt lat="44.78564" lon="4.53813">
        <ele>372.65</ele>
        <time>2011-04-07T12:06:58Z</time>
      </trkpt>
      <trkpt lat="44.78557" lon="4.53822">
        <ele>372.65</ele>
        <time>2011-04-07T12:07:05Z</time>
      </trkpt>
      <trkpt lat="44.78548" lon="4.53826">
        <ele>371.69</ele>
        <time>2011-04-07T12:07:13Z</time>
      </trkpt>
      <trkpt lat="44.78543" lon="4.53825">
        <ele>370.73</ele>
        <time>2011-04-07T12:07:20Z</time>
      </trkpt>
      <trkpt lat="44.78535" lon="4.53835">
        <ele>369.76</ele>
        <time>2011-04-07T12:07:28Z</time>
      </trkpt>
      <trkpt lat="44.78529" lon="4.53841">
        <ele>369.28</ele>
        <time>2011-04-07T12:07:55Z</time>
      </trkpt>
      <trkpt lat="44.78525" lon="4.53849">
        <ele>368.8</ele>
        <time>2011-04-07T12:08:02Z</time>
      </trkpt>
      <trkpt lat="44.78526" lon="4.53857">
        <ele>368.8</ele>
        <time>2011-04-07T12:08:06Z</time>
      </trkpt>
      <trkpt lat="44.78532" lon="4.53867">
        <ele>370.73</ele>
        <time>2011-04-07T12:08:14Z</time>
      </trkpt>
      <trkpt lat="44.78533" lon="4.53868">
        <ele>371.69</ele>
        <time>2011-04-07T12:08:20Z</time>
      </trkpt>
      <trkpt lat="44.78528" lon="4.53864">
        <ele>373.61</ele>
        <time>2011-04-07T12:08:26Z</time>
      </trkpt>
      <trkpt lat="44.78523" lon="4.53868">
        <ele>375.05</ele>
        <time>2011-04-07T12:08:35Z</time>
      </trkpt>
      <trkpt lat="44.78519" lon="4.53873">
        <ele>375.53</ele>
        <time>2011-04-07T12:08:41Z</time>
      </trkpt>
      <trkpt lat="44.78512" lon="4.53873">
        <ele>376.97</ele>
        <time>2011-04-07T12:08:49Z</time>
      </trkpt>
      <trkpt lat="44.78509" lon="4.53882">
        <ele>378.42</ele>
        <time>2011-04-07T12:08:56Z</time>
      </trkpt>
      <trkpt lat="44.78506" lon="4.53885">
        <ele>379.38</ele>
        <time>2011-04-07T12:09:03Z</time>
      </trkpt>
      <trkpt lat="44.78498" lon="4.53884">
        <ele>380.34</ele>
        <time>2011-04-07T12:09:10Z</time>
      </trkpt>
      <trkpt lat="44.78494" lon="4.53881">
        <ele>381.3</ele>
        <time>2011-04-07T12:09:16Z</time>
      </trkpt>
      <trkpt lat="44.78489" lon="4.53886">
        <ele>382.74</ele>
        <time>2011-04-07T12:09:23Z</time>
      </trkpt>
      <trkpt lat="44.78484" lon="4.53892">
        <ele>383.7</ele>
        <time>2011-04-07T12:09:29Z</time>
      </trkpt>
      <trkpt lat="44.78482" lon="4.53893">
        <ele>384.18</ele>
        <time>2011-04-07T12:09:35Z</time>
      </trkpt>
      <trkpt lat="44.78475" lon="4.53898">
        <ele>385.15</ele>
        <time>2011-04-07T12:09:41Z</time>
      </trkpt>
      <trkpt lat="44.78465" lon="4.53898">
        <ele>386.11</ele>
        <time>2011-04-07T12:09:50Z</time>
      </trkpt>
      <trkpt lat="44.78461" lon="4.53904">
        <ele>387.07</ele>
        <time>2011-04-07T12:09:57Z</time>
      </trkpt>
      <trkpt lat="44.78457" lon="4.53906">
        <ele>388.03</ele>
        <time>2011-04-07T12:10:04Z</time>
      </trkpt>
      <trkpt lat="44.78453" lon="4.53908">
        <ele>389.47</ele>
        <time>2011-04-07T12:10:11Z</time>
      </trkpt>
      <trkpt lat="44.78451" lon="4.53912">
        <ele>390.43</ele>
        <time>2011-04-07T12:10:19Z</time>
      </trkpt>
      <trkpt lat="44.7845" lon="4.53917">
        <ele>391.39</ele>
        <time>2011-04-07T12:10:21Z</time>
      </trkpt>
      <trkpt lat="44.78451" lon="4.53921">
        <ele>393.32</ele>
        <time>2011-04-07T12:10:34Z</time>
      </trkpt>
      <trkpt lat="44.78448" lon="4.53929">
        <ele>394.28</ele>
        <time>2011-04-07T12:10:40Z</time>
      </trkpt>
      <trkpt lat="44.78451" lon="4.53926">
        <ele>395.24</ele>
        <time>2011-04-07T12:10:43Z</time>
      </trkpt>
      <trkpt lat="44.78453" lon="4.53933">
        <ele>396.2</ele>
        <time>2011-04-07T12:10:49Z</time>
      </trkpt>
      <trkpt lat="44.78454" lon="4.53934">
        <ele>397.16</ele>
        <time>2011-04-07T12:10:55Z</time>
      </trkpt>
      <trkpt lat="44.7845" lon="4.53938">
        <ele>398.12</ele>
        <time>2011-04-07T12:11:00Z</time>
      </trkpt>
      <trkpt lat="44.78449" lon="4.53943">
        <ele>399.08</ele>
        <time>2011-04-07T12:11:06Z</time>
      </trkpt>
      <trkpt lat="44.78447" lon="4.53947">
        <ele>400.05</ele>
        <time>2011-04-07T12:11:13Z</time>
      </trkpt>
      <trkpt lat="44.78444" lon="4.53948">
        <ele>401.01</ele>
        <time>2011-04-07T12:11:18Z</time>
      </trkpt>
      <trkpt lat="44.78443" lon="4.53954">
        <ele>401.97</ele>
        <time>2011-04-07T12:11:23Z</time>
      </trkpt>
      <trkpt lat="44.78441" lon="4.53954">
        <ele>401.97</ele>
        <time>2011-04-07T12:11:25Z</time>
      </trkpt>
      <trkpt lat="44.78438" lon="4.53961">
        <ele>402.93</ele>
        <time>2011-04-07T12:11:33Z</time>
      </trkpt>
      <trkpt lat="44.78433" lon="4.53966">
        <ele>403.89</ele>
        <time>2011-04-07T12:11:39Z</time>
      </trkpt>
      <trkpt lat="44.78428" lon="4.53973">
        <ele>403.89</ele>
        <time>2011-04-07T12:11:45Z</time>
      </trkpt>
      <trkpt lat="44.78423" lon="4.5398">
        <ele>405.33</ele>
        <time>2011-04-07T12:11:53Z</time>
      </trkpt>
      <trkpt lat="44.78421" lon="4.53986">
        <ele>405.33</ele>
        <time>2011-04-07T12:11:57Z</time>
      </trkpt>
      <trkpt lat="44.78421" lon="4.53993">
        <ele>406.77</ele>
        <time>2011-04-07T12:12:05Z</time>
      </trkpt>
      <trkpt lat="44.78419" lon="4.53998">
        <ele>407.26</ele>
        <time>2011-04-07T12:12:11Z</time>
      </trkpt>
      <trkpt lat="44.78428" lon="4.53998">
        <ele>409.18</ele>
        <time>2011-04-07T12:12:19Z</time>
      </trkpt>
      <trkpt lat="44.78427" lon="4.54001">
        <ele>410.14</ele>
        <time>2011-04-07T12:12:25Z</time>
      </trkpt>
      <trkpt lat="44.78428" lon="4.54005">
        <ele>411.1</ele>
        <time>2011-04-07T12:12:32Z</time>
      </trkpt>
      <trkpt lat="44.78429" lon="4.54005">
        <ele>412.06</ele>
        <time>2011-04-07T12:12:40Z</time>
      </trkpt>
      <trkpt lat="44.78435" lon="4.54">
        <ele>413.98</ele>
        <time>2011-04-07T12:12:48Z</time>
      </trkpt>
      <trkpt lat="44.78433" lon="4.54009">
        <ele>414.47</ele>
        <time>2011-04-07T12:12:56Z</time>
      </trkpt>
      <trkpt lat="44.78431" lon="4.54016">
        <ele>415.91</ele>
        <time>2011-04-07T12:13:05Z</time>
      </trkpt>
      <trkpt lat="44.78423" lon="4.54014">
        <ele>416.87</ele>
        <time>2011-04-07T12:13:11Z</time>
      </trkpt>
      <trkpt lat="44.78416" lon="4.54024">
        <ele>418.31</ele>
        <time>2011-04-07T12:13:25Z</time>
      </trkpt>
      <trkpt lat="44.78417" lon="4.54026">
        <ele>419.27</ele>
        <time>2011-04-07T12:13:30Z</time>
      </trkpt>
      <trkpt lat="44.78414" lon="4.54036">
        <ele>420.23</ele>
        <time>2011-04-07T12:13:37Z</time>
      </trkpt>
      <trkpt lat="44.78411" lon="4.54041">
        <ele>421.68</ele>
        <time>2011-04-07T12:13:44Z</time>
      </trkpt>
      <trkpt lat="44.78407" lon="4.54036">
        <ele>422.16</ele>
        <time>2011-04-07T12:13:52Z</time>
      </trkpt>
      <trkpt lat="44.784" lon="4.5405">
        <ele>422.64</ele>
        <time>2011-04-07T12:13:59Z</time>
      </trkpt>
      <trkpt lat="44.78408" lon="4.54054">
        <ele>424.08</ele>
        <time>2011-04-07T12:14:06Z</time>
      </trkpt>
      <trkpt lat="44.78413" lon="4.54052">
        <ele>424.56</ele>
        <time>2011-04-07T12:14:12Z</time>
      </trkpt>
      <trkpt lat="44.78419" lon="4.54049">
        <ele>425.52</ele>
        <time>2011-04-07T12:14:20Z</time>
      </trkpt>
      <trkpt lat="44.78423" lon="4.54047">
        <ele>426</ele>
        <time>2011-04-07T12:14:26Z</time>
      </trkpt>
      <trkpt lat="44.7843" lon="4.54045">
        <ele>427.44</ele>
        <time>2011-04-07T12:14:36Z</time>
      </trkpt>
      <trkpt lat="44.78431" lon="4.5405">
        <ele>429.37</ele>
        <time>2011-04-07T12:14:46Z</time>
      </trkpt>
      <trkpt lat="44.78428" lon="4.54049">
        <ele>430.33</ele>
        <time>2011-04-07T12:14:53Z</time>
      </trkpt>
      <trkpt lat="44.78422" lon="4.54058">
        <ele>430.81</ele>
        <time>2011-04-07T12:14:59Z</time>
      </trkpt>
      <trkpt lat="44.78417" lon="4.54061">
        <ele>431.77</ele>
        <time>2011-04-07T12:15:04Z</time>
      </trkpt>
      <trkpt lat="44.78417" lon="4.54064">
        <ele>432.73</ele>
        <time>2011-04-07T12:15:09Z</time>
      </trkpt>
      <trkpt lat="44.78409" lon="4.54067">
        <ele>433.21</ele>
        <time>2011-04-07T12:15:17Z</time>
      </trkpt>
      <trkpt lat="44.78409" lon="4.54074">
        <ele>433.69</ele>
        <time>2011-04-07T12:15:22Z</time>
      </trkpt>
      <trkpt lat="44.78408" lon="4.54086">
        <ele>435.13</ele>
        <time>2011-04-07T12:15:30Z</time>
      </trkpt>
      <trkpt lat="44.78414" lon="4.54083">
        <ele>436.1</ele>
        <time>2011-04-07T12:15:36Z</time>
      </trkpt>
      <trkpt lat="44.78416" lon="4.54083">
        <ele>437.06</ele>
        <time>2011-04-07T12:15:45Z</time>
      </trkpt>
      <trkpt lat="44.78416" lon="4.54086">
        <ele>438.5</ele>
        <time>2011-04-07T12:15:50Z</time>
      </trkpt>
      <trkpt lat="44.78414" lon="4.5409">
        <ele>438.98</ele>
        <time>2011-04-07T12:15:56Z</time>
      </trkpt>
      <trkpt lat="44.78413" lon="4.54091">
        <ele>439.94</ele>
        <time>2011-04-07T12:16:02Z</time>
      </trkpt>
      <trkpt lat="44.7841" lon="4.54101">
        <ele>440.9</ele>
        <time>2011-04-07T12:16:11Z</time>
      </trkpt>
      <trkpt lat="44.78417" lon="4.54109">
        <ele>442.82</ele>
        <time>2011-04-07T12:16:22Z</time>
      </trkpt>
      <trkpt lat="44.78423" lon="4.54099">
        <ele>445.23</ele>
        <time>2011-04-07T12:16:35Z</time>
      </trkpt>
      <trkpt lat="44.78428" lon="4.54099">
        <ele>446.67</ele>
        <time>2011-04-07T12:16:44Z</time>
      </trkpt>
      <trkpt lat="44.78424" lon="4.54103">
        <ele>448.11</ele>
        <time>2011-04-07T12:16:53Z</time>
      </trkpt>
      <trkpt lat="44.78422" lon="4.54105">
        <ele>448.59</ele>
        <time>2011-04-07T12:17:00Z</time>
      </trkpt>
      <trkpt lat="44.78424" lon="4.54111">
        <ele>450.03</ele>
        <time>2011-04-07T12:17:05Z</time>
      </trkpt>
      <trkpt lat="44.78429" lon="4.54108">
        <ele>451.96</ele>
        <time>2011-04-07T12:17:21Z</time>
      </trkpt>
      <trkpt lat="44.78428" lon="4.54109">
        <ele>453.4</ele>
        <time>2011-04-07T12:17:27Z</time>
      </trkpt>
      <trkpt lat="44.78433" lon="4.54111">
        <ele>453.88</ele>
        <time>2011-04-07T12:17:33Z</time>
      </trkpt>
      <trkpt lat="44.7844" lon="4.54104">
        <ele>456.28</ele>
        <time>2011-04-07T12:17:46Z</time>
      </trkpt>
      <trkpt lat="44.78446" lon="4.54102">
        <ele>457.24</ele>
        <time>2011-04-07T12:17:57Z</time>
      </trkpt>
      <trkpt lat="44.78452" lon="4.54097">
        <ele>458.69</ele>
        <time>2011-04-07T12:18:04Z</time>
      </trkpt>
      <trkpt lat="44.78455" lon="4.54092">
        <ele>458.69</ele>
        <time>2011-04-07T12:18:10Z</time>
      </trkpt>
      <trkpt lat="44.78461" lon="4.54097">
        <ele>459.65</ele>
        <time>2011-04-07T12:18:17Z</time>
      </trkpt>
      <trkpt lat="44.78466" lon="4.54096">
        <ele>460.61</ele>
        <time>2011-04-07T12:18:25Z</time>
      </trkpt>
      <trkpt lat="44.78471" lon="4.54094">
        <ele>461.57</ele>
        <time>2011-04-07T12:18:31Z</time>
      </trkpt>
      <trkpt lat="44.78472" lon="4.54092">
        <ele>462.53</ele>
        <time>2011-04-07T12:18:37Z</time>
      </trkpt>
      <trkpt lat="44.78481" lon="4.54096">
        <ele>463.97</ele>
        <time>2011-04-07T12:18:48Z</time>
      </trkpt>
      <trkpt lat="44.78484" lon="4.54099">
        <ele>465.42</ele>
        <time>2011-04-07T12:18:56Z</time>
      </trkpt>
      <trkpt lat="44.78489" lon="4.54101">
        <ele>465.9</ele>
        <time>2011-04-07T12:19:02Z</time>
      </trkpt>
      <trkpt lat="44.78492" lon="4.54104">
        <ele>466.86</ele>
        <time>2011-04-07T12:19:11Z</time>
      </trkpt>
      <trkpt lat="44.78501" lon="4.54106">
        <ele>467.82</ele>
        <time>2011-04-07T12:19:18Z</time>
      </trkpt>
      <trkpt lat="44.78506" lon="4.54113">
        <ele>471.18</ele>
        <time>2011-04-07T12:19:37Z</time>
      </trkpt>
      <trkpt lat="44.78502" lon="4.54113">
        <ele>471.66</ele>
        <time>2011-04-07T12:19:44Z</time>
      </trkpt>
      <trkpt lat="44.78497" lon="4.54117">
        <ele>473.11</ele>
        <time>2011-04-07T12:19:51Z</time>
      </trkpt>
      <trkpt lat="44.78494" lon="4.54118">
        <ele>473.59</ele>
        <time>2011-04-07T12:19:57Z</time>
      </trkpt>
      <trkpt lat="44.78492" lon="4.54122">
        <ele>475.51</ele>
        <time>2011-04-07T12:20:04Z</time>
      </trkpt>
      <trkpt lat="44.78486" lon="4.54122">
        <ele>476.47</ele>
        <time>2011-04-07T12:20:10Z</time>
      </trkpt>
      <trkpt lat="44.78482" lon="4.54124">
        <ele>476.95</ele>
        <time>2011-04-07T12:20:17Z</time>
      </trkpt>
      <trkpt lat="44.78477" lon="4.54122">
        <ele>477.91</ele>
        <time>2011-04-07T12:20:24Z</time>
      </trkpt>
      <trkpt lat="44.78476" lon="4.54121">
        <ele>478.39</ele>
        <time>2011-04-07T12:20:29Z</time>
      </trkpt>
      <trkpt lat="44.78472" lon="4.54128">
        <ele>479.35</ele>
        <time>2011-04-07T12:20:35Z</time>
      </trkpt>
      <trkpt lat="44.7847" lon="4.54129">
        <ele>479.84</ele>
        <time>2011-04-07T12:20:43Z</time>
      </trkpt>
      <trkpt lat="44.78465" lon="4.54132">
        <ele>480.32</ele>
        <time>2011-04-07T12:20:51Z</time>
      </trkpt>
      <trkpt lat="44.78464" lon="4.54133">
        <ele>481.28</ele>
        <time>2011-04-07T12:20:56Z</time>
      </trkpt>
      <trkpt lat="44.78463" lon="4.5414">
        <ele>481.76</ele>
        <time>2011-04-07T12:21:02Z</time>
      </trkpt>
      <trkpt lat="44.78462" lon="4.54148">
        <ele>482.24</ele>
        <time>2011-04-07T12:21:08Z</time>
      </trkpt>
      <trkpt lat="44.78469" lon="4.54142">
        <ele>483.2</ele>
        <time>2011-04-07T12:21:15Z</time>
      </trkpt>
      <trkpt lat="44.78471" lon="4.54145">
        <ele>484.16</ele>
        <time>2011-04-07T12:21:21Z</time>
      </trkpt>
      <trkpt lat="44.78479" lon="4.54139">
        <ele>485.6</ele>
        <time>2011-04-07T12:21:30Z</time>
      </trkpt>
      <trkpt lat="44.78484" lon="4.54141">
        <ele>486.08</ele>
        <time>2011-04-07T12:21:36Z</time>
      </trkpt>
      <trkpt lat="44.78488" lon="4.54139">
        <ele>487.05</ele>
        <time>2011-04-07T12:21:42Z</time>
      </trkpt>
      <trkpt lat="44.78493" lon="4.5414">
        <ele>487.53</ele>
        <time>2011-04-07T12:21:59Z</time>
      </trkpt>
      <trkpt lat="44.78495" lon="4.5414">
        <ele>488.01</ele>
        <time>2011-04-07T12:22:11Z</time>
      </trkpt>
      <trkpt lat="44.78498" lon="4.5414">
        <ele>488.49</ele>
        <time>2011-04-07T12:22:17Z</time>
      </trkpt>
      <trkpt lat="44.78508" lon="4.54145">
        <ele>489.45</ele>
        <time>2011-04-07T12:22:26Z</time>
      </trkpt>
      <trkpt lat="44.78512" lon="4.54153">
        <ele>490.89</ele>
        <time>2011-04-07T12:22:33Z</time>
      </trkpt>
      <trkpt lat="44.78513" lon="4.54161">
        <ele>492.81</ele>
        <time>2011-04-07T12:22:41Z</time>
      </trkpt>
      <trkpt lat="44.78514" lon="4.54165">
        <ele>493.29</ele>
        <time>2011-04-07T12:22:44Z</time>
      </trkpt>
      <trkpt lat="44.7852" lon="4.54166">
        <ele>493.77</ele>
        <time>2011-04-07T12:22:52Z</time>
      </trkpt>
      <trkpt lat="44.78526" lon="4.54173">
        <ele>494.74</ele>
        <time>2011-04-07T12:22:59Z</time>
      </trkpt>
      <trkpt lat="44.78532" lon="4.54175">
        <ele>495.7</ele>
        <time>2011-04-07T12:23:05Z</time>
      </trkpt>
      <trkpt lat="44.78533" lon="4.54174">
        <ele>495.7</ele>
        <time>2011-04-07T12:23:06Z</time>
      </trkpt>
      <trkpt lat="44.78536" lon="4.54173">
        <ele>495.7</ele>
        <time>2011-04-07T12:23:12Z</time>
      </trkpt>
      <trkpt lat="44.7854" lon="4.54172">
        <ele>496.66</ele>
        <time>2011-04-07T12:23:14Z</time>
      </trkpt>
      <trkpt lat="44.78543" lon="4.54172">
        <ele>497.14</ele>
        <time>2011-04-07T12:23:17Z</time>
      </trkpt>
      <trkpt lat="44.78549" lon="4.54163">
        <ele>497.14</ele>
        <time>2011-04-07T12:23:25Z</time>
      </trkpt>
      <trkpt lat="44.78555" lon="4.54154">
        <ele>498.1</ele>
        <time>2011-04-07T12:23:33Z</time>
      </trkpt>
      <trkpt lat="44.78556" lon="4.54146">
        <ele>499.06</ele>
        <time>2011-04-07T12:23:41Z</time>
      </trkpt>
      <trkpt lat="44.78556" lon="4.54135">
        <ele>500.02</ele>
        <time>2011-04-07T12:23:47Z</time>
      </trkpt>
      <trkpt lat="44.78559" lon="4.54133">
        <ele>500.02</ele>
        <time>2011-04-07T12:23:53Z</time>
      </trkpt>
      <trkpt lat="44.78561" lon="4.54124">
        <ele>501.46</ele>
        <time>2011-04-07T12:24:00Z</time>
      </trkpt>
      <trkpt lat="44.78559" lon="4.54131">
        <ele>502.43</ele>
        <time>2011-04-07T12:24:06Z</time>
      </trkpt>
      <trkpt lat="44.78565" lon="4.54132">
        <ele>503.87</ele>
        <time>2011-04-07T12:24:13Z</time>
      </trkpt>
      <trkpt lat="44.7857" lon="4.54123">
        <ele>505.31</ele>
        <time>2011-04-07T12:24:19Z</time>
      </trkpt>
      <trkpt lat="44.78574" lon="4.54125">
        <ele>506.75</ele>
        <time>2011-04-07T12:24:26Z</time>
      </trkpt>
      <trkpt lat="44.78578" lon="4.54119">
        <ele>508.19</ele>
        <time>2011-04-07T12:24:35Z</time>
      </trkpt>
      <trkpt lat="44.78576" lon="4.54114">
        <ele>508.19</ele>
        <time>2011-04-07T12:24:45Z</time>
      </trkpt>
      <trkpt lat="44.7858" lon="4.54119">
        <ele>508.19</ele>
        <time>2011-04-07T12:25:49Z</time>
      </trkpt>
      <trkpt lat="44.78586" lon="4.5412">
        <ele>508.67</ele>
        <time>2011-04-07T12:25:57Z</time>
      </trkpt>
      <trkpt lat="44.78589" lon="4.54117">
        <ele>508.67</ele>
        <time>2011-04-07T12:26:07Z</time>
      </trkpt>
      <trkpt lat="44.78585" lon="4.5412">
        <ele>508.67</ele>
        <time>2011-04-07T12:26:49Z</time>
      </trkpt>
      <trkpt lat="44.7858" lon="4.54118">
        <ele>509.16</ele>
        <time>2011-04-07T12:26:57Z</time>
      </trkpt>
      <trkpt lat="44.78581" lon="4.54121">
        <ele>508.67</ele>
        <time>2011-04-07T12:27:13Z</time>
      </trkpt>
      <trkpt lat="44.78579" lon="4.54122">
        <ele>508.19</ele>
        <time>2011-04-07T12:27:21Z</time>
      </trkpt>
      <trkpt lat="44.78572" lon="4.54119">
        <ele>507.71</ele>
        <time>2011-04-07T12:27:32Z</time>
      </trkpt>
      <trkpt lat="44.78572" lon="4.54122">
        <ele>507.71</ele>
        <time>2011-04-07T12:28:19Z</time>
      </trkpt>
      <trkpt lat="44.78577" lon="4.5413">
        <ele>509.16</ele>
        <time>2011-04-07T12:28:26Z</time>
      </trkpt>
      <trkpt lat="44.7858" lon="4.54134">
        <ele>510.6</ele>
        <time>2011-04-07T12:28:35Z</time>
      </trkpt>
      <trkpt lat="44.78581" lon="4.54136">
        <ele>511.08</ele>
        <time>2011-04-07T12:28:37Z</time>
      </trkpt>
      <trkpt lat="44.78583" lon="4.54138">
        <ele>512.04</ele>
        <time>2011-04-07T12:28:46Z</time>
      </trkpt>
      <trkpt lat="44.78582" lon="4.54142">
        <ele>512.04</ele>
        <time>2011-04-07T12:28:57Z</time>
      </trkpt>
      <trkpt lat="44.78583" lon="4.54154">
        <ele>513</ele>
        <time>2011-04-07T12:29:06Z</time>
      </trkpt>
      <trkpt lat="44.78584" lon="4.54156">
        <ele>512.52</ele>
        <time>2011-04-07T12:29:08Z</time>
      </trkpt>
      <trkpt lat="44.78587" lon="4.54164">
        <ele>514.44</ele>
        <time>2011-04-07T12:29:16Z</time>
      </trkpt>
      <trkpt lat="44.7859" lon="4.5417">
        <ele>514.92</ele>
        <time>2011-04-07T12:29:22Z</time>
      </trkpt>
      <trkpt lat="44.7859" lon="4.54179">
        <ele>515.4</ele>
        <time>2011-04-07T12:29:27Z</time>
      </trkpt>
      <trkpt lat="44.78592" lon="4.54185">
        <ele>516.37</ele>
        <time>2011-04-07T12:29:34Z</time>
      </trkpt>
      <trkpt lat="44.78593" lon="4.54194">
        <ele>517.33</ele>
        <time>2011-04-07T12:29:41Z</time>
      </trkpt>
      <trkpt lat="44.78602" lon="4.54199">
        <ele>518.77</ele>
        <time>2011-04-07T12:29:49Z</time>
      </trkpt>
      <trkpt lat="44.78605" lon="4.54188">
        <ele>520.69</ele>
        <time>2011-04-07T12:29:58Z</time>
      </trkpt>
      <trkpt lat="44.78606" lon="4.54189">
        <ele>520.69</ele>
        <time>2011-04-07T12:29:59Z</time>
      </trkpt>
      <trkpt lat="44.78609" lon="4.54197">
        <ele>521.65</ele>
        <time>2011-04-07T12:30:05Z</time>
      </trkpt>
      <trkpt lat="44.78613" lon="4.54199">
        <ele>521.65</ele>
        <time>2011-04-07T12:30:10Z</time>
      </trkpt>
      <trkpt lat="44.78613" lon="4.54203">
        <ele>521.65</ele>
        <time>2011-04-07T12:30:18Z</time>
      </trkpt>
      <trkpt lat="44.7862" lon="4.54209">
        <ele>520.69</ele>
        <time>2011-04-07T12:30:25Z</time>
      </trkpt>
      <trkpt lat="44.78619" lon="4.54211">
        <ele>520.69</ele>
        <time>2011-04-07T12:30:26Z</time>
      </trkpt>
      <trkpt lat="44.78623" lon="4.54217">
        <ele>520.21</ele>
        <time>2011-04-07T12:30:35Z</time>
      </trkpt>
      <trkpt lat="44.78626" lon="4.54222">
        <ele>519.73</ele>
        <time>2011-04-07T12:30:52Z</time>
      </trkpt>
      <trkpt lat="44.7863" lon="4.54223">
        <ele>519.25</ele>
        <time>2011-04-07T12:30:59Z</time>
      </trkpt>
      <trkpt lat="44.78628" lon="4.54222">
        <ele>519.73</ele>
        <time>2011-04-07T12:31:24Z</time>
      </trkpt>
      <trkpt lat="44.78628" lon="4.54223">
        <ele>519.73</ele>
        <time>2011-04-07T12:31:43Z</time>
      </trkpt>
      <trkpt lat="44.78627" lon="4.54223">
        <ele>519.73</ele>
        <time>2011-04-07T12:33:08Z</time>
      </trkpt>
      <trkpt lat="44.78624" lon="4.54214">
        <ele>520.69</ele>
        <time>2011-04-07T12:33:16Z</time>
      </trkpt>
      <trkpt lat="44.78623" lon="4.54216">
        <ele>520.69</ele>
        <time>2011-04-07T12:33:26Z</time>
      </trkpt>
      <trkpt lat="44.78621" lon="4.54215">
        <ele>520.69</ele>
        <time>2011-04-07T12:36:17Z</time>
      </trkpt>
      <trkpt lat="44.78624" lon="4.5422">
        <ele>519.73</ele>
        <time>2011-04-07T12:38:42Z</time>
      </trkpt>
      <trkpt lat="44.78623" lon="4.54224">
        <ele>519.73</ele>
        <time>2011-04-07T12:38:45Z</time>
      </trkpt>
      <trkpt lat="44.7863" lon="4.54236">
        <ele>519.73</ele>
        <time>2011-04-07T12:38:55Z</time>
      </trkpt>
      <trkpt lat="44.7863" lon="4.54243">
        <ele>519.73</ele>
        <time>2011-04-07T12:39:02Z</time>
      </trkpt>
      <trkpt lat="44.78633" lon="4.54257">
        <ele>519.73</ele>
        <time>2011-04-07T12:39:11Z</time>
      </trkpt>
      <trkpt lat="44.78635" lon="4.54263">
        <ele>520.21</ele>
        <time>2011-04-07T12:39:16Z</time>
      </trkpt>
      <trkpt lat="44.7863" lon="4.54275">
        <ele>520.69</ele>
        <time>2011-04-07T12:39:24Z</time>
      </trkpt>
      <trkpt lat="44.78632" lon="4.54282">
        <ele>521.17</ele>
        <time>2011-04-07T12:39:31Z</time>
      </trkpt>
      <trkpt lat="44.78632" lon="4.54284">
        <ele>521.65</ele>
        <time>2011-04-07T12:39:33Z</time>
      </trkpt>
      <trkpt lat="44.78631" lon="4.54294">
        <ele>522.61</ele>
        <time>2011-04-07T12:39:42Z</time>
      </trkpt>
      <trkpt lat="44.7863" lon="4.54295">
        <ele>522.13</ele>
        <time>2011-04-07T12:39:44Z</time>
      </trkpt>
      <trkpt lat="44.78631" lon="4.54305">
        <ele>523.58</ele>
        <time>2011-04-07T12:39:52Z</time>
      </trkpt>
      <trkpt lat="44.78629" lon="4.54313">
        <ele>524.54</ele>
        <time>2011-04-07T12:39:58Z</time>
      </trkpt>
      <trkpt lat="44.78631" lon="4.54316">
        <ele>525.98</ele>
        <time>2011-04-07T12:40:06Z</time>
      </trkpt>
      <trkpt lat="44.78625" lon="4.54321">
        <ele>526.46</ele>
        <time>2011-04-07T12:40:13Z</time>
      </trkpt>
      <trkpt lat="44.78624" lon="4.54325">
        <ele>526.94</ele>
        <time>2011-04-07T12:40:22Z</time>
      </trkpt>
      <trkpt lat="44.78622" lon="4.54324">
        <ele>527.42</ele>
        <time>2011-04-07T12:40:28Z</time>
      </trkpt>
      <trkpt lat="44.78619" lon="4.54328">
        <ele>527.42</ele>
        <time>2011-04-07T12:40:31Z</time>
      </trkpt>
      <trkpt lat="44.78618" lon="4.54337">
        <ele>528.38</ele>
        <time>2011-04-07T12:40:39Z</time>
      </trkpt>
      <trkpt lat="44.78619" lon="4.54338">
        <ele>528.86</ele>
        <time>2011-04-07T12:40:40Z</time>
      </trkpt>
      <trkpt lat="44.78622" lon="4.54344">
        <ele>528.86</ele>
        <time>2011-04-07T12:40:46Z</time>
      </trkpt>
      <trkpt lat="44.78626" lon="4.54351">
        <ele>530.79</ele>
        <time>2011-04-07T12:40:55Z</time>
      </trkpt>
      <trkpt lat="44.78628" lon="4.54358">
        <ele>531.75</ele>
        <time>2011-04-07T12:41:03Z</time>
      </trkpt>
      <trkpt lat="44.78628" lon="4.54362">
        <ele>532.23</ele>
        <time>2011-04-07T12:41:08Z</time>
      </trkpt>
      <trkpt lat="44.78627" lon="4.5437">
        <ele>533.19</ele>
        <time>2011-04-07T12:41:16Z</time>
      </trkpt>
      <trkpt lat="44.78628" lon="4.5437">
        <ele>533.67</ele>
        <time>2011-04-07T12:41:18Z</time>
      </trkpt>
      <trkpt lat="44.78623" lon="4.54373">
        <ele>534.63</ele>
        <time>2011-04-07T12:41:26Z</time>
      </trkpt>
      <trkpt lat="44.78618" lon="4.5437">
        <ele>535.59</ele>
        <time>2011-04-07T12:41:33Z</time>
      </trkpt>
      <trkpt lat="44.78617" lon="4.54377">
        <ele>536.07</ele>
        <time>2011-04-07T12:41:38Z</time>
      </trkpt>
      <trkpt lat="44.78612" lon="4.54374">
        <ele>537.51</ele>
        <time>2011-04-07T12:41:46Z</time>
      </trkpt>
      <trkpt lat="44.78609" lon="4.54375">
        <ele>538.48</ele>
        <time>2011-04-07T12:41:53Z</time>
      </trkpt>
      <trkpt lat="44.78607" lon="4.54382">
        <ele>539.44</ele>
        <time>2011-04-07T12:41:59Z</time>
      </trkpt>
      <trkpt lat="44.786" lon="4.54389">
        <ele>540.4</ele>
        <time>2011-04-07T12:42:08Z</time>
      </trkpt>
      <trkpt lat="44.78599" lon="4.54394">
        <ele>541.84</ele>
        <time>2011-04-07T12:42:15Z</time>
      </trkpt>
      <trkpt lat="44.78598" lon="4.54395">
        <ele>541.36</ele>
        <time>2011-04-07T12:42:17Z</time>
      </trkpt>
      <trkpt lat="44.78598" lon="4.54402">
        <ele>542.32</ele>
        <time>2011-04-07T12:42:25Z</time>
      </trkpt>
      <trkpt lat="44.78597" lon="4.5441">
        <ele>543.28</ele>
        <time>2011-04-07T12:42:33Z</time>
      </trkpt>
      <trkpt lat="44.78596" lon="4.54416">
        <ele>544.24</ele>
        <time>2011-04-07T12:42:39Z</time>
      </trkpt>
      <trkpt lat="44.78594" lon="4.54421">
        <ele>544.72</ele>
        <time>2011-04-07T12:42:45Z</time>
      </trkpt>
      <trkpt lat="44.78592" lon="4.54432">
        <ele>545.2</ele>
        <time>2011-04-07T12:42:52Z</time>
      </trkpt>
      <trkpt lat="44.7859" lon="4.54437">
        <ele>545.69</ele>
        <time>2011-04-07T12:43:00Z</time>
      </trkpt>
      <trkpt lat="44.78587" lon="4.54447">
        <ele>546.17</ele>
        <time>2011-04-07T12:43:07Z</time>
      </trkpt>
      <trkpt lat="44.78581" lon="4.54452">
        <ele>547.13</ele>
        <time>2011-04-07T12:43:15Z</time>
      </trkpt>
      <trkpt lat="44.78575" lon="4.54456">
        <ele>547.13</ele>
        <time>2011-04-07T12:43:23Z</time>
      </trkpt>
      <trkpt lat="44.78567" lon="4.54463">
        <ele>547.13</ele>
        <time>2011-04-07T12:43:31Z</time>
      </trkpt>
      <trkpt lat="44.78566" lon="4.54467">
        <ele>547.61</ele>
        <time>2011-04-07T12:43:36Z</time>
      </trkpt>
      <trkpt lat="44.7856" lon="4.54469">
        <ele>548.09</ele>
        <time>2011-04-07T12:43:42Z</time>
      </trkpt>
      <trkpt lat="44.78557" lon="4.54477">
        <ele>548.57</ele>
        <time>2011-04-07T12:43:49Z</time>
      </trkpt>
      <trkpt lat="44.78552" lon="4.54485">
        <ele>549.53</ele>
        <time>2011-04-07T12:43:57Z</time>
      </trkpt>
      <trkpt lat="44.78545" lon="4.54493">
        <ele>550.01</ele>
        <time>2011-04-07T12:44:05Z</time>
      </trkpt>
      <trkpt lat="44.78539" lon="4.54499">
        <ele>550.49</ele>
        <time>2011-04-07T12:44:12Z</time>
      </trkpt>
      <trkpt lat="44.7853" lon="4.54503">
        <ele>550.97</ele>
        <time>2011-04-07T12:44:20Z</time>
      </trkpt>
      <trkpt lat="44.78525" lon="4.5451">
        <ele>550.97</ele>
        <time>2011-04-07T12:44:27Z</time>
      </trkpt>
      <trkpt lat="44.78517" lon="4.54512">
        <ele>550.49</ele>
        <time>2011-04-07T12:44:35Z</time>
      </trkpt>
      <trkpt lat="44.78512" lon="4.54514">
        <ele>550.49</ele>
        <time>2011-04-07T12:44:43Z</time>
      </trkpt>
      <trkpt lat="44.78507" lon="4.54522">
        <ele>550.49</ele>
        <time>2011-04-07T12:44:50Z</time>
      </trkpt>
      <trkpt lat="44.78499" lon="4.54522">
        <ele>550.49</ele>
        <time>2011-04-07T12:44:57Z</time>
      </trkpt>
      <trkpt lat="44.7849" lon="4.54526">
        <ele>550.49</ele>
        <time>2011-04-07T12:45:04Z</time>
      </trkpt>
      <trkpt lat="44.78482" lon="4.54531">
        <ele>550.49</ele>
        <time>2011-04-07T12:45:13Z</time>
      </trkpt>
      <trkpt lat="44.7848" lon="4.54528">
        <ele>550.97</ele>
        <time>2011-04-07T12:45:15Z</time>
      </trkpt>
      <trkpt lat="44.78475" lon="4.54536">
        <ele>550.97</ele>
        <time>2011-04-07T12:45:22Z</time>
      </trkpt>
      <trkpt lat="44.78466" lon="4.54537">
        <ele>551.93</ele>
        <time>2011-04-07T12:45:30Z</time>
      </trkpt>
      <trkpt lat="44.78457" lon="4.54542">
        <ele>551.93</ele>
        <time>2011-04-07T12:45:37Z</time>
      </trkpt>
      <trkpt lat="44.7845" lon="4.54547">
        <ele>553.38</ele>
        <time>2011-04-07T12:45:43Z</time>
      </trkpt>
      <trkpt lat="44.78447" lon="4.54546">
        <ele>553.38</ele>
        <time>2011-04-07T12:45:49Z</time>
      </trkpt>
      <trkpt lat="44.78439" lon="4.5455">
        <ele>554.34</ele>
        <time>2011-04-07T12:45:56Z</time>
      </trkpt>
      <trkpt lat="44.78431" lon="4.54552">
        <ele>554.82</ele>
        <time>2011-04-07T12:46:03Z</time>
      </trkpt>
      <trkpt lat="44.78426" lon="4.54558">
        <ele>554.82</ele>
        <time>2011-04-07T12:46:07Z</time>
      </trkpt>
      <trkpt lat="44.78423" lon="4.54556">
        <ele>555.78</ele>
        <time>2011-04-07T12:46:11Z</time>
      </trkpt>
      <trkpt lat="44.7842" lon="4.54572">
        <ele>556.74</ele>
        <time>2011-04-07T12:46:20Z</time>
      </trkpt>
      <trkpt lat="44.78417" lon="4.54578">
        <ele>557.7</ele>
        <time>2011-04-07T12:46:27Z</time>
      </trkpt>
      <trkpt lat="44.78415" lon="4.5458">
        <ele>558.18</ele>
        <time>2011-04-07T12:46:31Z</time>
      </trkpt>
      <trkpt lat="44.78412" lon="4.5459">
        <ele>559.14</ele>
        <time>2011-04-07T12:46:38Z</time>
      </trkpt>
      <trkpt lat="44.78411" lon="4.54594">
        <ele>559.62</ele>
        <time>2011-04-07T12:46:40Z</time>
      </trkpt>
      <trkpt lat="44.78411" lon="4.54599">
        <ele>559.62</ele>
        <time>2011-04-07T12:46:44Z</time>
      </trkpt>
      <trkpt lat="44.78409" lon="4.54603">
        <ele>560.11</ele>
        <time>2011-04-07T12:46:47Z</time>
      </trkpt>
      <trkpt lat="44.78406" lon="4.54608">
        <ele>561.07</ele>
        <time>2011-04-07T12:46:53Z</time>
      </trkpt>
      <trkpt lat="44.78403" lon="4.54616">
        <ele>561.55</ele>
        <time>2011-04-07T12:46:57Z</time>
      </trkpt>
      <trkpt lat="44.78402" lon="4.54624">
        <ele>562.03</ele>
        <time>2011-04-07T12:47:06Z</time>
      </trkpt>
      <trkpt lat="44.784" lon="4.54629">
        <ele>562.99</ele>
        <time>2011-04-07T12:47:09Z</time>
      </trkpt>
      <trkpt lat="44.78398" lon="4.54637">
        <ele>562.99</ele>
        <time>2011-04-07T12:47:16Z</time>
      </trkpt>
      <trkpt lat="44.78397" lon="4.54643">
        <ele>563.47</ele>
        <time>2011-04-07T12:47:18Z</time>
      </trkpt>
      <trkpt lat="44.78404" lon="4.54648">
        <ele>564.43</ele>
        <time>2011-04-07T12:47:26Z</time>
      </trkpt>
      <trkpt lat="44.784" lon="4.54652">
        <ele>565.39</ele>
        <time>2011-04-07T12:47:32Z</time>
      </trkpt>
      <trkpt lat="44.78403" lon="4.54661">
        <ele>566.35</ele>
        <time>2011-04-07T12:47:39Z</time>
      </trkpt>
      <trkpt lat="44.78401" lon="4.54676">
        <ele>566.83</ele>
        <time>2011-04-07T12:47:48Z</time>
      </trkpt>
      <trkpt lat="44.78402" lon="4.54677">
        <ele>567.32</ele>
        <time>2011-04-07T12:47:49Z</time>
      </trkpt>
      <trkpt lat="44.784" lon="4.54685">
        <ele>567.8</ele>
        <time>2011-04-07T12:47:53Z</time>
      </trkpt>
      <trkpt lat="44.78406" lon="4.54695">
        <ele>567.8</ele>
        <time>2011-04-07T12:48:02Z</time>
      </trkpt>
      <trkpt lat="44.78406" lon="4.54709">
        <ele>568.28</ele>
        <time>2011-04-07T12:48:09Z</time>
      </trkpt>
      <trkpt lat="44.78403" lon="4.5472">
        <ele>569.24</ele>
        <time>2011-04-07T12:48:15Z</time>
      </trkpt>
      <trkpt lat="44.78407" lon="4.54727">
        <ele>569.72</ele>
        <time>2011-04-07T12:48:22Z</time>
      </trkpt>
      <trkpt lat="44.78406" lon="4.54737">
        <ele>569.24</ele>
        <time>2011-04-07T12:48:25Z</time>
      </trkpt>
      <trkpt lat="44.78406" lon="4.54738">
        <ele>569.24</ele>
        <time>2011-04-07T12:48:27Z</time>
      </trkpt>
      <trkpt lat="44.78407" lon="4.54748">
        <ele>569.72</ele>
        <time>2011-04-07T12:48:35Z</time>
      </trkpt>
      <trkpt lat="44.78404" lon="4.54758">
        <ele>570.2</ele>
        <time>2011-04-07T12:48:43Z</time>
      </trkpt>
      <trkpt lat="44.78399" lon="4.54773">
        <ele>571.16</ele>
        <time>2011-04-07T12:48:53Z</time>
      </trkpt>
      <trkpt lat="44.78398" lon="4.54778">
        <ele>571.16</ele>
        <time>2011-04-07T12:48:58Z</time>
      </trkpt>
      <trkpt lat="44.78392" lon="4.54783">
        <ele>571.64</ele>
        <time>2011-04-07T12:49:04Z</time>
      </trkpt>
      <trkpt lat="44.78385" lon="4.54786">
        <ele>572.12</ele>
        <time>2011-04-07T12:49:13Z</time>
      </trkpt>
      <trkpt lat="44.7838" lon="4.5479">
        <ele>572.6</ele>
        <time>2011-04-07T12:49:19Z</time>
      </trkpt>
      <trkpt lat="44.7838" lon="4.54797">
        <ele>573.08</ele>
        <time>2011-04-07T12:49:27Z</time>
      </trkpt>
      <trkpt lat="44.78374" lon="4.54799">
        <ele>573.08</ele>
        <time>2011-04-07T12:49:35Z</time>
      </trkpt>
      <trkpt lat="44.78367" lon="4.54798">
        <ele>574.53</ele>
        <time>2011-04-07T12:49:43Z</time>
      </trkpt>
      <trkpt lat="44.78361" lon="4.54803">
        <ele>575.01</ele>
        <time>2011-04-07T12:49:50Z</time>
      </trkpt>
      <trkpt lat="44.78358" lon="4.54807">
        <ele>575.49</ele>
        <time>2011-04-07T12:49:54Z</time>
      </trkpt>
      <trkpt lat="44.78355" lon="4.54806">
        <ele>575.97</ele>
        <time>2011-04-07T12:49:58Z</time>
      </trkpt>
      <trkpt lat="44.78349" lon="4.54812">
        <ele>577.89</ele>
        <time>2011-04-07T12:50:06Z</time>
      </trkpt>
      <trkpt lat="44.78341" lon="4.54818">
        <ele>577.89</ele>
        <time>2011-04-07T12:50:13Z</time>
      </trkpt>
      <trkpt lat="44.78338" lon="4.54824">
        <ele>577.89</ele>
        <time>2011-04-07T12:50:19Z</time>
      </trkpt>
      <trkpt lat="44.78333" lon="4.54832">
        <ele>579.33</ele>
        <time>2011-04-07T12:50:28Z</time>
      </trkpt>
      <trkpt lat="44.78328" lon="4.54838">
        <ele>580.29</ele>
        <time>2011-04-07T12:50:34Z</time>
      </trkpt>
      <trkpt lat="44.78321" lon="4.54841">
        <ele>581.25</ele>
        <time>2011-04-07T12:50:42Z</time>
      </trkpt>
      <trkpt lat="44.78316" lon="4.54845">
        <ele>582.22</ele>
        <time>2011-04-07T12:50:47Z</time>
      </trkpt>
      <trkpt lat="44.78311" lon="4.54854">
        <ele>583.66</ele>
        <time>2011-04-07T12:50:57Z</time>
      </trkpt>
      <trkpt lat="44.78309" lon="4.54857">
        <ele>583.66</ele>
        <time>2011-04-07T12:51:00Z</time>
      </trkpt>
      <trkpt lat="44.78304" lon="4.54866">
        <ele>585.58</ele>
        <time>2011-04-07T12:51:08Z</time>
      </trkpt>
      <trkpt lat="44.78303" lon="4.54874">
        <ele>585.58</ele>
        <time>2011-04-07T12:51:15Z</time>
      </trkpt>
      <trkpt lat="44.78303" lon="4.54876">
        <ele>585.58</ele>
        <time>2011-04-07T12:51:16Z</time>
      </trkpt>
      <trkpt lat="44.78293" lon="4.54881">
        <ele>587.02</ele>
        <time>2011-04-07T12:51:24Z</time>
      </trkpt>
      <trkpt lat="44.78291" lon="4.54882">
        <ele>587.98</ele>
        <time>2011-04-07T12:51:30Z</time>
      </trkpt>
      <trkpt lat="44.78285" lon="4.54878">
        <ele>588.95</ele>
        <time>2011-04-07T12:51:35Z</time>
      </trkpt>
      <trkpt lat="44.7828" lon="4.54884">
        <ele>589.43</ele>
        <time>2011-04-07T12:51:42Z</time>
      </trkpt>
      <trkpt lat="44.7827" lon="4.54881">
        <ele>590.87</ele>
        <time>2011-04-07T12:51:50Z</time>
      </trkpt>
      <trkpt lat="44.78264" lon="4.5488">
        <ele>591.35</ele>
        <time>2011-04-07T12:51:56Z</time>
      </trkpt>
      <trkpt lat="44.7826" lon="4.54884">
        <ele>592.31</ele>
        <time>2011-04-07T12:52:04Z</time>
      </trkpt>
      <trkpt lat="44.78255" lon="4.54893">
        <ele>592.79</ele>
        <time>2011-04-07T12:52:10Z</time>
      </trkpt>
      <trkpt lat="44.78247" lon="4.54885">
        <ele>594.71</ele>
        <time>2011-04-07T12:52:18Z</time>
      </trkpt>
      <trkpt lat="44.78244" lon="4.54885">
        <ele>594.71</ele>
        <time>2011-04-07T12:52:23Z</time>
      </trkpt>
      <trkpt lat="44.78236" lon="4.54894">
        <ele>596.15</ele>
        <time>2011-04-07T12:52:31Z</time>
      </trkpt>
      <trkpt lat="44.78233" lon="4.54894">
        <ele>596.64</ele>
        <time>2011-04-07T12:52:38Z</time>
      </trkpt>
      <trkpt lat="44.78225" lon="4.54893">
        <ele>597.6</ele>
        <time>2011-04-07T12:52:46Z</time>
      </trkpt>
      <trkpt lat="44.78218" lon="4.54896">
        <ele>599.04</ele>
        <time>2011-04-07T12:52:53Z</time>
      </trkpt>
      <trkpt lat="44.78213" lon="4.54891">
        <ele>600</ele>
        <time>2011-04-07T12:53:02Z</time>
      </trkpt>
      <trkpt lat="44.78203" lon="4.54895">
        <ele>601.44</ele>
        <time>2011-04-07T12:53:09Z</time>
      </trkpt>
      <trkpt lat="44.78202" lon="4.54893">
        <ele>600.96</ele>
        <time>2011-04-07T12:53:10Z</time>
      </trkpt>
      <trkpt lat="44.782" lon="4.54895">
        <ele>601.92</ele>
        <time>2011-04-07T12:53:14Z</time>
      </trkpt>
      <trkpt lat="44.78192" lon="4.5489">
        <ele>602.88</ele>
        <time>2011-04-07T12:53:21Z</time>
      </trkpt>
      <trkpt lat="44.78188" lon="4.5489">
        <ele>603.85</ele>
        <time>2011-04-07T12:53:28Z</time>
      </trkpt>
      <trkpt lat="44.78185" lon="4.54885">
        <ele>604.81</ele>
        <time>2011-04-07T12:53:34Z</time>
      </trkpt>
      <trkpt lat="44.78179" lon="4.54884">
        <ele>605.29</ele>
        <time>2011-04-07T12:53:41Z</time>
      </trkpt>
      <trkpt lat="44.78175" lon="4.54881">
        <ele>606.73</ele>
        <time>2011-04-07T12:53:48Z</time>
      </trkpt>
      <trkpt lat="44.78169" lon="4.54875">
        <ele>607.21</ele>
        <time>2011-04-07T12:53:55Z</time>
      </trkpt>
      <trkpt lat="44.78167" lon="4.54875">
        <ele>608.65</ele>
        <time>2011-04-07T12:54:01Z</time>
      </trkpt>
      <trkpt lat="44.78162" lon="4.5487">
        <ele>609.61</ele>
        <time>2011-04-07T12:54:09Z</time>
      </trkpt>
      <trkpt lat="44.78155" lon="4.54864">
        <ele>611.06</ele>
        <time>2011-04-07T12:54:16Z</time>
      </trkpt>
      <trkpt lat="44.78152" lon="4.54864">
        <ele>611.54</ele>
        <time>2011-04-07T12:54:26Z</time>
      </trkpt>
      <trkpt lat="44.78152" lon="4.54866">
        <ele>612.02</ele>
        <time>2011-04-07T12:54:40Z</time>
      </trkpt>
      <trkpt lat="44.78149" lon="4.54862">
        <ele>612.5</ele>
        <time>2011-04-07T12:55:07Z</time>
      </trkpt>
      <trkpt lat="44.78145" lon="4.5487">
        <ele>612.5</ele>
        <time>2011-04-07T12:55:14Z</time>
      </trkpt>
      <trkpt lat="44.78144" lon="4.54872">
        <ele>612.5</ele>
        <time>2011-04-07T12:55:16Z</time>
      </trkpt>
      <trkpt lat="44.7814" lon="4.54875">
        <ele>612.98</ele>
        <time>2011-04-07T12:55:23Z</time>
      </trkpt>
      <trkpt lat="44.78133" lon="4.54876">
        <ele>613.46</ele>
        <time>2011-04-07T12:55:31Z</time>
      </trkpt>
      <trkpt lat="44.78125" lon="4.54878">
        <ele>614.9</ele>
        <time>2011-04-07T12:55:38Z</time>
      </trkpt>
      <trkpt lat="44.78122" lon="4.5488">
        <ele>615.86</ele>
        <time>2011-04-07T12:55:46Z</time>
      </trkpt>
      <trkpt lat="44.78117" lon="4.54882">
        <ele>616.82</ele>
        <time>2011-04-07T12:55:52Z</time>
      </trkpt>
      <trkpt lat="44.78111" lon="4.54886">
        <ele>617.78</ele>
        <time>2011-04-07T12:55:59Z</time>
      </trkpt>
      <trkpt lat="44.78103" lon="4.5489">
        <ele>618.26</ele>
        <time>2011-04-07T12:56:06Z</time>
      </trkpt>
      <trkpt lat="44.78101" lon="4.54896">
        <ele>619.23</ele>
        <time>2011-04-07T12:56:12Z</time>
      </trkpt>
      <trkpt lat="44.78096" lon="4.54906">
        <ele>619.71</ele>
        <time>2011-04-07T12:56:22Z</time>
      </trkpt>
      <trkpt lat="44.78096" lon="4.54908">
        <ele>619.71</ele>
        <time>2011-04-07T12:56:23Z</time>
      </trkpt>
      <trkpt lat="44.78093" lon="4.54912">
        <ele>620.19</ele>
        <time>2011-04-07T12:56:26Z</time>
      </trkpt>
      <trkpt lat="44.78089" lon="4.54917">
        <ele>620.67</ele>
        <time>2011-04-07T12:56:34Z</time>
      </trkpt>
      <trkpt lat="44.78085" lon="4.54922">
        <ele>621.15</ele>
        <time>2011-04-07T12:56:37Z</time>
      </trkpt>
      <trkpt lat="44.78082" lon="4.54928">
        <ele>622.11</ele>
        <time>2011-04-07T12:56:45Z</time>
      </trkpt>
      <trkpt lat="44.78077" lon="4.54937">
        <ele>623.07</ele>
        <time>2011-04-07T12:56:53Z</time>
      </trkpt>
      <trkpt lat="44.78071" lon="4.54942">
        <ele>623.55</ele>
        <time>2011-04-07T12:57:01Z</time>
      </trkpt>
      <trkpt lat="44.78067" lon="4.54949">
        <ele>624.51</ele>
        <time>2011-04-07T12:57:09Z</time>
      </trkpt>
      <trkpt lat="44.78063" lon="4.54951">
        <ele>624.51</ele>
        <time>2011-04-07T12:57:16Z</time>
      </trkpt>
      <trkpt lat="44.78056" lon="4.5496">
        <ele>624.99</ele>
        <time>2011-04-07T12:57:24Z</time>
      </trkpt>
      <trkpt lat="44.78052" lon="4.54971">
        <ele>626.44</ele>
        <time>2011-04-07T12:57:30Z</time>
      </trkpt>
      <trkpt lat="44.78049" lon="4.54971">
        <ele>626.44</ele>
        <time>2011-04-07T12:57:36Z</time>
      </trkpt>
      <trkpt lat="44.78046" lon="4.54979">
        <ele>627.4</ele>
        <time>2011-04-07T12:57:43Z</time>
      </trkpt>
      <trkpt lat="44.78045" lon="4.54979">
        <ele>627.4</ele>
        <time>2011-04-07T12:57:44Z</time>
      </trkpt>
      <trkpt lat="44.78044" lon="4.5498">
        <ele>627.4</ele>
        <time>2011-04-07T12:57:46Z</time>
      </trkpt>
      <trkpt lat="44.78038" lon="4.54989">
        <ele>628.36</ele>
        <time>2011-04-07T12:57:53Z</time>
      </trkpt>
      <trkpt lat="44.78035" lon="4.54993">
        <ele>629.32</ele>
        <time>2011-04-07T12:57:58Z</time>
      </trkpt>
      <trkpt lat="44.78028" lon="4.5499">
        <ele>630.28</ele>
        <time>2011-04-07T12:58:06Z</time>
      </trkpt>
      <trkpt lat="44.78021" lon="4.54987">
        <ele>630.76</ele>
        <time>2011-04-07T12:58:10Z</time>
      </trkpt>
      <trkpt lat="44.78014" lon="4.54988">
        <ele>631.72</ele>
        <time>2011-04-07T12:58:18Z</time>
      </trkpt>
      <trkpt lat="44.7801" lon="4.54988">
        <ele>632.2</ele>
        <time>2011-04-07T12:58:25Z</time>
      </trkpt>
      <trkpt lat="44.78002" lon="4.54986">
        <ele>633.65</ele>
        <time>2011-04-07T12:58:31Z</time>
      </trkpt>
      <trkpt lat="44.77994" lon="4.54981">
        <ele>635.09</ele>
        <time>2011-04-07T12:58:40Z</time>
      </trkpt>
      <trkpt lat="44.77992" lon="4.54979">
        <ele>635.09</ele>
        <time>2011-04-07T12:58:42Z</time>
      </trkpt>
      <trkpt lat="44.77984" lon="4.54976">
        <ele>636.05</ele>
        <time>2011-04-07T12:58:51Z</time>
      </trkpt>
      <trkpt lat="44.77981" lon="4.5498">
        <ele>636.53</ele>
        <time>2011-04-07T12:58:58Z</time>
      </trkpt>
      <trkpt lat="44.77973" lon="4.5498">
        <ele>637.49</ele>
        <time>2011-04-07T12:59:05Z</time>
      </trkpt>
      <trkpt lat="44.77968" lon="4.54981">
        <ele>637.49</ele>
        <time>2011-04-07T12:59:11Z</time>
      </trkpt>
      <trkpt lat="44.77964" lon="4.5498">
        <ele>637.97</ele>
        <time>2011-04-07T12:59:16Z</time>
      </trkpt>
      <trkpt lat="44.77955" lon="4.54973">
        <ele>639.41</ele>
        <time>2011-04-07T12:59:25Z</time>
      </trkpt>
      <trkpt lat="44.77949" lon="4.54978">
        <ele>640.38</ele>
        <time>2011-04-07T12:59:32Z</time>
      </trkpt>
      <trkpt lat="44.77946" lon="4.54975">
        <ele>640.86</ele>
        <time>2011-04-07T12:59:39Z</time>
      </trkpt>
      <trkpt lat="44.7794" lon="4.54973">
        <ele>641.82</ele>
        <time>2011-04-07T12:59:45Z</time>
      </trkpt>
      <trkpt lat="44.77936" lon="4.54971">
        <ele>642.3</ele>
        <time>2011-04-07T12:59:50Z</time>
      </trkpt>
      <trkpt lat="44.77932" lon="4.54968">
        <ele>642.78</ele>
        <time>2011-04-07T12:59:54Z</time>
      </trkpt>
      <trkpt lat="44.77927" lon="4.54967">
        <ele>643.74</ele>
        <time>2011-04-07T13:00:03Z</time>
      </trkpt>
      <trkpt lat="44.77921" lon="4.54966">
        <ele>644.22</ele>
        <time>2011-04-07T13:00:10Z</time>
      </trkpt>
      <trkpt lat="44.77915" lon="4.54962">
        <ele>645.18</ele>
        <time>2011-04-07T13:00:15Z</time>
      </trkpt>
      <trkpt lat="44.77909" lon="4.54956">
        <ele>645.66</ele>
        <time>2011-04-07T13:00:22Z</time>
      </trkpt>
      <trkpt lat="44.77902" lon="4.54947">
        <ele>646.14</ele>
        <time>2011-04-07T13:00:29Z</time>
      </trkpt>
      <trkpt lat="44.77904" lon="4.54943">
        <ele>647.59</ele>
        <time>2011-04-07T13:00:36Z</time>
      </trkpt>
      <trkpt lat="44.77898" lon="4.5494">
        <ele>648.07</ele>
        <time>2011-04-07T13:00:43Z</time>
      </trkpt>
      <trkpt lat="44.77895" lon="4.5493">
        <ele>649.03</ele>
        <time>2011-04-07T13:00:49Z</time>
      </trkpt>
      <trkpt lat="44.77892" lon="4.54927">
        <ele>649.51</ele>
        <time>2011-04-07T13:00:57Z</time>
      </trkpt>
      <trkpt lat="44.7789" lon="4.54922">
        <ele>650.95</ele>
        <time>2011-04-07T13:01:03Z</time>
      </trkpt>
      <trkpt lat="44.77888" lon="4.54916">
        <ele>651.43</ele>
        <time>2011-04-07T13:01:10Z</time>
      </trkpt>
      <trkpt lat="44.77886" lon="4.54912">
        <ele>651.43</ele>
        <time>2011-04-07T13:01:14Z</time>
      </trkpt>
      <trkpt lat="44.77882" lon="4.54905">
        <ele>651.91</ele>
        <time>2011-04-07T13:01:21Z</time>
      </trkpt>
      <trkpt lat="44.77882" lon="4.54904">
        <ele>652.39</ele>
        <time>2011-04-07T13:01:22Z</time>
      </trkpt>
      <trkpt lat="44.77876" lon="4.54896">
        <ele>652.39</ele>
        <time>2011-04-07T13:01:30Z</time>
      </trkpt>
      <trkpt lat="44.77873" lon="4.54887">
        <ele>653.35</ele>
        <time>2011-04-07T13:01:36Z</time>
      </trkpt>
      <trkpt lat="44.77871" lon="4.54878">
        <ele>654.8</ele>
        <time>2011-04-07T13:01:44Z</time>
      </trkpt>
      <trkpt lat="44.7787" lon="4.54877">
        <ele>654.8</ele>
        <time>2011-04-07T13:01:45Z</time>
      </trkpt>
      <trkpt lat="44.77864" lon="4.54869">
        <ele>656.24</ele>
        <time>2011-04-07T13:01:54Z</time>
      </trkpt>
      <trkpt lat="44.77856" lon="4.54859">
        <ele>656.72</ele>
        <time>2011-04-07T13:02:01Z</time>
      </trkpt>
      <trkpt lat="44.77847" lon="4.54861">
        <ele>657.68</ele>
        <time>2011-04-07T13:02:09Z</time>
      </trkpt>
      <trkpt lat="44.77843" lon="4.54857">
        <ele>658.64</ele>
        <time>2011-04-07T13:02:15Z</time>
      </trkpt>
      <trkpt lat="44.77842" lon="4.54865">
        <ele>659.6</ele>
        <time>2011-04-07T13:02:22Z</time>
      </trkpt>
      <trkpt lat="44.77841" lon="4.54864">
        <ele>659.6</ele>
        <time>2011-04-07T13:02:23Z</time>
      </trkpt>
      <trkpt lat="44.77832" lon="4.54859">
        <ele>660.56</ele>
        <time>2011-04-07T13:02:30Z</time>
      </trkpt>
      <trkpt lat="44.77829" lon="4.54856">
        <ele>660.56</ele>
        <time>2011-04-07T13:02:34Z</time>
      </trkpt>
      <trkpt lat="44.77824" lon="4.54857">
        <ele>662.01</ele>
        <time>2011-04-07T13:02:43Z</time>
      </trkpt>
      <trkpt lat="44.77819" lon="4.54859">
        <ele>662.49</ele>
        <time>2011-04-07T13:02:50Z</time>
      </trkpt>
      <trkpt lat="44.7782" lon="4.54861">
        <ele>663.45</ele>
        <time>2011-04-07T13:02:54Z</time>
      </trkpt>
      <trkpt lat="44.77822" lon="4.54867">
        <ele>663.93</ele>
        <time>2011-04-07T13:02:58Z</time>
      </trkpt>
      <trkpt lat="44.77827" lon="4.54871">
        <ele>664.41</ele>
        <time>2011-04-07T13:03:06Z</time>
      </trkpt>
      <trkpt lat="44.77835" lon="4.54877">
        <ele>664.41</ele>
        <time>2011-04-07T13:03:13Z</time>
      </trkpt>
      <trkpt lat="44.77843" lon="4.54883">
        <ele>664.89</ele>
        <time>2011-04-07T13:03:19Z</time>
      </trkpt>
      <trkpt lat="44.77847" lon="4.54889">
        <ele>665.37</ele>
        <time>2011-04-07T13:03:26Z</time>
      </trkpt>
      <trkpt lat="44.7785" lon="4.54886">
        <ele>665.37</ele>
        <time>2011-04-07T13:03:31Z</time>
      </trkpt>
      <trkpt lat="44.77855" lon="4.54897">
        <ele>666.81</ele>
        <time>2011-04-07T13:03:40Z</time>
      </trkpt>
      <trkpt lat="44.77857" lon="4.54901">
        <ele>667.77</ele>
        <time>2011-04-07T13:03:46Z</time>
      </trkpt>
      <trkpt lat="44.7786" lon="4.5491">
        <ele>667.77</ele>
        <time>2011-04-07T13:03:53Z</time>
      </trkpt>
      <trkpt lat="44.77861" lon="4.54918">
        <ele>668.73</ele>
        <time>2011-04-07T13:03:59Z</time>
      </trkpt>
      <trkpt lat="44.77859" lon="4.54926">
        <ele>669.22</ele>
        <time>2011-04-07T13:04:05Z</time>
      </trkpt>
      <trkpt lat="44.77859" lon="4.54932">
        <ele>669.7</ele>
        <time>2011-04-07T13:04:10Z</time>
      </trkpt>
      <trkpt lat="44.77859" lon="4.54939">
        <ele>670.66</ele>
        <time>2011-04-07T13:04:15Z</time>
      </trkpt>
      <trkpt lat="44.7786" lon="4.54947">
        <ele>671.14</ele>
        <time>2011-04-07T13:04:22Z</time>
      </trkpt>
      <trkpt lat="44.7786" lon="4.5496">
        <ele>672.1</ele>
        <time>2011-04-07T13:04:30Z</time>
      </trkpt>
      <trkpt lat="44.77861" lon="4.54967">
        <ele>673.06</ele>
        <time>2011-04-07T13:04:36Z</time>
      </trkpt>
      <trkpt lat="44.77863" lon="4.54977">
        <ele>673.54</ele>
        <time>2011-04-07T13:04:42Z</time>
      </trkpt>
      <trkpt lat="44.7787" lon="4.54993">
        <ele>674.5</ele>
        <time>2011-04-07T13:04:51Z</time>
      </trkpt>
      <trkpt lat="44.7787" lon="4.55003">
        <ele>675.46</ele>
        <time>2011-04-07T13:04:57Z</time>
      </trkpt>
      <trkpt lat="44.77875" lon="4.55006">
        <ele>675.46</ele>
        <time>2011-04-07T13:05:01Z</time>
      </trkpt>
      <trkpt lat="44.77877" lon="4.5502">
        <ele>675.94</ele>
        <time>2011-04-07T13:05:10Z</time>
      </trkpt>
      <trkpt lat="44.77881" lon="4.55024">
        <ele>676.42</ele>
        <time>2011-04-07T13:05:14Z</time>
      </trkpt>
      <trkpt lat="44.77881" lon="4.55034">
        <ele>675.94</ele>
        <time>2011-04-07T13:05:19Z</time>
      </trkpt>
      <trkpt lat="44.7789" lon="4.55041">
        <ele>676.42</ele>
        <time>2011-04-07T13:05:26Z</time>
      </trkpt>
      <trkpt lat="44.77893" lon="4.55046">
        <ele>676.91</ele>
        <time>2011-04-07T13:05:29Z</time>
      </trkpt>
      <trkpt lat="44.77895" lon="4.55045">
        <ele>676.91</ele>
        <time>2011-04-07T13:05:32Z</time>
      </trkpt>
      <trkpt lat="44.77908" lon="4.55051">
        <ele>677.39</ele>
        <time>2011-04-07T13:05:40Z</time>
      </trkpt>
      <trkpt lat="44.77915" lon="4.55057">
        <ele>677.87</ele>
        <time>2011-04-07T13:05:48Z</time>
      </trkpt>
      <trkpt lat="44.7792" lon="4.55058">
        <ele>678.83</ele>
        <time>2011-04-07T13:05:55Z</time>
      </trkpt>
      <trkpt lat="44.7793" lon="4.55059">
        <ele>679.79</ele>
        <time>2011-04-07T13:06:03Z</time>
      </trkpt>
      <trkpt lat="44.77936" lon="4.55063">
        <ele>680.75</ele>
        <time>2011-04-07T13:06:11Z</time>
      </trkpt>
      <trkpt lat="44.77942" lon="4.55063">
        <ele>681.23</ele>
        <time>2011-04-07T13:06:16Z</time>
      </trkpt>
      <trkpt lat="44.77942" lon="4.55065">
        <ele>681.23</ele>
        <time>2011-04-07T13:06:17Z</time>
      </trkpt>
      <trkpt lat="44.7795" lon="4.5507">
        <ele>682.19</ele>
        <time>2011-04-07T13:06:27Z</time>
      </trkpt>
      <trkpt lat="44.77958" lon="4.55071">
        <ele>682.19</ele>
        <time>2011-04-07T13:06:34Z</time>
      </trkpt>
      <trkpt lat="44.7797" lon="4.55078">
        <ele>683.15</ele>
        <time>2011-04-07T13:06:44Z</time>
      </trkpt>
      <trkpt lat="44.77978" lon="4.55083">
        <ele>683.63</ele>
        <time>2011-04-07T13:06:51Z</time>
      </trkpt>
      <trkpt lat="44.7798" lon="4.55083">
        <ele>683.63</ele>
        <time>2011-04-07T13:06:55Z</time>
      </trkpt>
      <trkpt lat="44.77989" lon="4.55089">
        <ele>685.08</ele>
        <time>2011-04-07T13:07:03Z</time>
      </trkpt>
      <trkpt lat="44.78" lon="4.55098">
        <ele>685.56</ele>
        <time>2011-04-07T13:07:13Z</time>
      </trkpt>
      <trkpt lat="44.78001" lon="4.55106">
        <ele>686.52</ele>
        <time>2011-04-07T13:07:19Z</time>
      </trkpt>
      <trkpt lat="44.77999" lon="4.55122">
        <ele>687</ele>
        <time>2011-04-07T13:07:28Z</time>
      </trkpt>
      <trkpt lat="44.78" lon="4.55128">
        <ele>687.48</ele>
        <time>2011-04-07T13:07:35Z</time>
      </trkpt>
      <trkpt lat="44.77999" lon="4.55145">
        <ele>688.92</ele>
        <time>2011-04-07T13:07:45Z</time>
      </trkpt>
      <trkpt lat="44.77996" lon="4.55159">
        <ele>689.88</ele>
        <time>2011-04-07T13:07:54Z</time>
      </trkpt>
      <trkpt lat="44.77992" lon="4.55165">
        <ele>690.36</ele>
        <time>2011-04-07T13:08:00Z</time>
      </trkpt>
      <trkpt lat="44.77992" lon="4.55179">
        <ele>690.84</ele>
        <time>2011-04-07T13:08:08Z</time>
      </trkpt>
      <trkpt lat="44.77993" lon="4.5519">
        <ele>691.81</ele>
        <time>2011-04-07T13:08:16Z</time>
      </trkpt>
      <trkpt lat="44.77993" lon="4.55202">
        <ele>692.29</ele>
        <time>2011-04-07T13:08:24Z</time>
      </trkpt>
      <trkpt lat="44.77992" lon="4.55208">
        <ele>693.25</ele>
        <time>2011-04-07T13:08:29Z</time>
      </trkpt>
      <trkpt lat="44.7799" lon="4.55219">
        <ele>693.73</ele>
        <time>2011-04-07T13:08:35Z</time>
      </trkpt>
      <trkpt lat="44.77991" lon="4.5522">
        <ele>694.21</ele>
        <time>2011-04-07T13:08:37Z</time>
      </trkpt>
      <trkpt lat="44.7799" lon="4.55223">
        <ele>694.69</ele>
        <time>2011-04-07T13:08:40Z</time>
      </trkpt>
      <trkpt lat="44.7799" lon="4.55229">
        <ele>694.69</ele>
        <time>2011-04-07T13:08:43Z</time>
      </trkpt>
      <trkpt lat="44.77991" lon="4.55239">
        <ele>696.13</ele>
        <time>2011-04-07T13:08:51Z</time>
      </trkpt>
      <trkpt lat="44.77986" lon="4.55249">
        <ele>696.61</ele>
        <time>2011-04-07T13:08:57Z</time>
      </trkpt>
      <trkpt lat="44.77988" lon="4.55258">
        <ele>697.57</ele>
        <time>2011-04-07T13:09:05Z</time>
      </trkpt>
      <trkpt lat="44.77988" lon="4.55269">
        <ele>698.53</ele>
        <time>2011-04-07T13:09:14Z</time>
      </trkpt>
      <trkpt lat="44.77985" lon="4.55276">
        <ele>699.5</ele>
        <time>2011-04-07T13:09:21Z</time>
      </trkpt>
      <trkpt lat="44.77988" lon="4.5528">
        <ele>699.02</ele>
        <time>2011-04-07T13:09:28Z</time>
      </trkpt>
      <trkpt lat="44.77987" lon="4.55282">
        <ele>699.98</ele>
        <time>2011-04-07T13:09:31Z</time>
      </trkpt>
      <trkpt lat="44.77988" lon="4.55295">
        <ele>700.94</ele>
        <time>2011-04-07T13:09:39Z</time>
      </trkpt>
      <trkpt lat="44.77984" lon="4.55306">
        <ele>701.9</ele>
        <time>2011-04-07T13:09:46Z</time>
      </trkpt>
      <trkpt lat="44.7798" lon="4.55318">
        <ele>703.34</ele>
        <time>2011-04-07T13:09:54Z</time>
      </trkpt>
      <trkpt lat="44.7798" lon="4.5533">
        <ele>706.23</ele>
        <time>2011-04-07T13:10:02Z</time>
      </trkpt>
      <trkpt lat="44.77982" lon="4.55332">
        <ele>704.3</ele>
        <time>2011-04-07T13:10:05Z</time>
      </trkpt>
      <trkpt lat="44.77981" lon="4.55332">
        <ele>707.67</ele>
        <time>2011-04-07T13:10:06Z</time>
      </trkpt>
      <trkpt lat="44.7798" lon="4.55334">
        <ele>704.78</ele>
        <time>2011-04-07T13:10:07Z</time>
      </trkpt>
      <trkpt lat="44.77978" lon="4.5534">
        <ele>704.78</ele>
        <time>2011-04-07T13:10:13Z</time>
      </trkpt>
      <trkpt lat="44.77979" lon="4.55352">
        <ele>706.23</ele>
        <time>2011-04-07T13:10:22Z</time>
      </trkpt>
      <trkpt lat="44.77975" lon="4.5536">
        <ele>706.23</ele>
        <time>2011-04-07T13:10:28Z</time>
      </trkpt>
      <trkpt lat="44.77976" lon="4.55365">
        <ele>707.19</ele>
        <time>2011-04-07T13:10:30Z</time>
      </trkpt>
      <trkpt lat="44.77972" lon="4.55375">
        <ele>707.67</ele>
        <time>2011-04-07T13:10:39Z</time>
      </trkpt>
      <trkpt lat="44.77972" lon="4.55377">
        <ele>708.15</ele>
        <time>2011-04-07T13:10:40Z</time>
      </trkpt>
      <trkpt lat="44.77971" lon="4.5538">
        <ele>708.63</ele>
        <time>2011-04-07T13:10:42Z</time>
      </trkpt>
      <trkpt lat="44.77967" lon="4.55387">
        <ele>709.59</ele>
        <time>2011-04-07T13:10:48Z</time>
      </trkpt>
      <trkpt lat="44.77969" lon="4.55391">
        <ele>709.59</ele>
        <time>2011-04-07T13:10:51Z</time>
      </trkpt>
      <trkpt lat="44.77965" lon="4.554">
        <ele>711.03</ele>
        <time>2011-04-07T13:11:00Z</time>
      </trkpt>
      <trkpt lat="44.77966" lon="4.55407">
        <ele>711.99</ele>
        <time>2011-04-07T13:11:05Z</time>
      </trkpt>
      <trkpt lat="44.77961" lon="4.55412">
        <ele>712.47</ele>
        <time>2011-04-07T13:11:08Z</time>
      </trkpt>
      <trkpt lat="44.77959" lon="4.55421">
        <ele>712.47</ele>
        <time>2011-04-07T13:11:15Z</time>
      </trkpt>
      <trkpt lat="44.77957" lon="4.55425">
        <ele>712.95</ele>
        <time>2011-04-07T13:11:18Z</time>
      </trkpt>
      <trkpt lat="44.77955" lon="4.5543">
        <ele>713.44</ele>
        <time>2011-04-07T13:11:21Z</time>
      </trkpt>
      <trkpt lat="44.77954" lon="4.55433">
        <ele>714.4</ele>
        <time>2011-04-07T13:11:27Z</time>
      </trkpt>
      <trkpt lat="44.7795" lon="4.55446">
        <ele>715.36</ele>
        <time>2011-04-07T13:11:34Z</time>
      </trkpt>
      <trkpt lat="44.77953" lon="4.55449">
        <ele>715.84</ele>
        <time>2011-04-07T13:11:37Z</time>
      </trkpt>
      <trkpt lat="44.7795" lon="4.55451">
        <ele>715.84</ele>
        <time>2011-04-07T13:11:40Z</time>
      </trkpt>
      <trkpt lat="44.77949" lon="4.55462">
        <ele>717.28</ele>
        <time>2011-04-07T13:11:47Z</time>
      </trkpt>
      <trkpt lat="44.77951" lon="4.55466">
        <ele>717.28</ele>
        <time>2011-04-07T13:11:50Z</time>
      </trkpt>
      <trkpt lat="44.77949" lon="4.55474">
        <ele>717.76</ele>
        <time>2011-04-07T13:11:56Z</time>
      </trkpt>
      <trkpt lat="44.7795" lon="4.55484">
        <ele>719.2</ele>
        <time>2011-04-07T13:12:04Z</time>
      </trkpt>
      <trkpt lat="44.77949" lon="4.55492">
        <ele>719.68</ele>
        <time>2011-04-07T13:12:10Z</time>
      </trkpt>
      <trkpt lat="44.77946" lon="4.55503">
        <ele>721.13</ele>
        <time>2011-04-07T13:12:17Z</time>
      </trkpt>
      <trkpt lat="44.77946" lon="4.55508">
        <ele>721.61</ele>
        <time>2011-04-07T13:12:23Z</time>
      </trkpt>
      <trkpt lat="44.77949" lon="4.55517">
        <ele>723.05</ele>
        <time>2011-04-07T13:12:30Z</time>
      </trkpt>
      <trkpt lat="44.77952" lon="4.5552">
        <ele>723.05</ele>
        <time>2011-04-07T13:12:33Z</time>
      </trkpt>
      <trkpt lat="44.77951" lon="4.55527">
        <ele>724.01</ele>
        <time>2011-04-07T13:12:38Z</time>
      </trkpt>
      <trkpt lat="44.77951" lon="4.55529">
        <ele>724.01</ele>
        <time>2011-04-07T13:12:40Z</time>
      </trkpt>
      <trkpt lat="44.77952" lon="4.5554">
        <ele>724.49</ele>
        <time>2011-04-07T13:12:48Z</time>
      </trkpt>
      <trkpt lat="44.77951" lon="4.55551">
        <ele>725.45</ele>
        <time>2011-04-07T13:12:55Z</time>
      </trkpt>
      <trkpt lat="44.77951" lon="4.55561">
        <ele>725.93</ele>
        <time>2011-04-07T13:13:03Z</time>
      </trkpt>
      <trkpt lat="44.77952" lon="4.55563">
        <ele>725.93</ele>
        <time>2011-04-07T13:13:04Z</time>
      </trkpt>
      <trkpt lat="44.77953" lon="4.55567">
        <ele>726.41</ele>
        <time>2011-04-07T13:13:07Z</time>
      </trkpt>
      <trkpt lat="44.77952" lon="4.55572">
        <ele>726.41</ele>
        <time>2011-04-07T13:13:14Z</time>
      </trkpt>
      <trkpt lat="44.77952" lon="4.55576">
        <ele>726.41</ele>
        <time>2011-04-07T13:13:16Z</time>
      </trkpt>
      <trkpt lat="44.77949" lon="4.55583">
        <ele>727.37</ele>
        <time>2011-04-07T13:13:23Z</time>
      </trkpt>
      <trkpt lat="44.77949" lon="4.55587">
        <ele>727.37</ele>
        <time>2011-04-07T13:13:26Z</time>
      </trkpt>
      <trkpt lat="44.77943" lon="4.55599">
        <ele>728.82</ele>
        <time>2011-04-07T13:13:36Z</time>
      </trkpt>
      <trkpt lat="44.77935" lon="4.55608">
        <ele>729.3</ele>
        <time>2011-04-07T13:13:45Z</time>
      </trkpt>
      <trkpt lat="44.77929" lon="4.55614">
        <ele>729.3</ele>
        <time>2011-04-07T13:13:53Z</time>
      </trkpt>
      <trkpt lat="44.77927" lon="4.55616">
        <ele>729.3</ele>
        <time>2011-04-07T13:13:56Z</time>
      </trkpt>
      <trkpt lat="44.77919" lon="4.55625">
        <ele>728.82</ele>
        <time>2011-04-07T13:14:07Z</time>
      </trkpt>
      <trkpt lat="44.77913" lon="4.55634">
        <ele>728.82</ele>
        <time>2011-04-07T13:14:17Z</time>
      </trkpt>
      <trkpt lat="44.77908" lon="4.55637">
        <ele>728.82</ele>
        <time>2011-04-07T13:14:26Z</time>
      </trkpt>
      <trkpt lat="44.77907" lon="4.55638">
        <ele>728.82</ele>
        <time>2011-04-07T13:14:36Z</time>
      </trkpt>
      <trkpt lat="44.77906" lon="4.55636">
        <ele>728.82</ele>
        <time>2011-04-07T13:15:06Z</time>
      </trkpt>
      <trkpt lat="44.77906" lon="4.5564">
        <ele>729.3</ele>
        <time>2011-04-07T13:16:02Z</time>
      </trkpt>
      <trkpt lat="44.77906" lon="4.5564">
        <ele>729.3</ele>
        <time>2011-04-07T13:16:43Z</time>
      </trkpt>
      <trkpt lat="44.77908" lon="4.55643">
        <ele>729.3</ele>
        <time>2011-04-07T13:17:38Z</time>
      </trkpt>
      <trkpt lat="44.77904" lon="4.55646">
        <ele>729.78</ele>
        <time>2011-04-07T13:20:03Z</time>
      </trkpt>
      <trkpt lat="44.77905" lon="4.5565">
        <ele>729.3</ele>
        <time>2011-04-07T13:20:18Z</time>
      </trkpt>
      <trkpt lat="44.779" lon="4.55661">
        <ele>728.34</ele>
        <time>2011-04-07T13:20:29Z</time>
      </trkpt>
      <trkpt lat="44.77896" lon="4.55667">
        <ele>727.37</ele>
        <time>2011-04-07T13:20:36Z</time>
      </trkpt>
      <trkpt lat="44.77895" lon="4.55682">
        <ele>725.45</ele>
        <time>2011-04-07T13:20:46Z</time>
      </trkpt>
      <trkpt lat="44.77897" lon="4.55693">
        <ele>724.49</ele>
        <time>2011-04-07T13:20:55Z</time>
      </trkpt>
      <trkpt lat="44.77898" lon="4.55706">
        <ele>723.53</ele>
        <time>2011-04-07T13:21:04Z</time>
      </trkpt>
      <trkpt lat="44.779" lon="4.5571">
        <ele>723.53</ele>
        <time>2011-04-07T13:21:12Z</time>
      </trkpt>
      <trkpt lat="44.77899" lon="4.55714">
        <ele>722.57</ele>
        <time>2011-04-07T13:21:18Z</time>
      </trkpt>
      <trkpt lat="44.77898" lon="4.55726">
        <ele>721.61</ele>
        <time>2011-04-07T13:21:26Z</time>
      </trkpt>
      <trkpt lat="44.77901" lon="4.55736">
        <ele>720.16</ele>
        <time>2011-04-07T13:21:36Z</time>
      </trkpt>
      <trkpt lat="44.77905" lon="4.55746">
        <ele>719.2</ele>
        <time>2011-04-07T13:21:43Z</time>
      </trkpt>
      <trkpt lat="44.77903" lon="4.55754">
        <ele>718.72</ele>
        <time>2011-04-07T13:21:49Z</time>
      </trkpt>
      <trkpt lat="44.77907" lon="4.55764">
        <ele>717.28</ele>
        <time>2011-04-07T13:21:57Z</time>
      </trkpt>
      <trkpt lat="44.77907" lon="4.55774">
        <ele>715.84</ele>
        <time>2011-04-07T13:22:04Z</time>
      </trkpt>
      <trkpt lat="44.77908" lon="4.55788">
        <ele>715.36</ele>
        <time>2011-04-07T13:22:13Z</time>
      </trkpt>
      <trkpt lat="44.77906" lon="4.55802">
        <ele>713.92</ele>
        <time>2011-04-07T13:22:22Z</time>
      </trkpt>
      <trkpt lat="44.77904" lon="4.55815">
        <ele>712.47</ele>
        <time>2011-04-07T13:22:31Z</time>
      </trkpt>
      <trkpt lat="44.77904" lon="4.55815">
        <ele>713.44</ele>
        <time>2011-04-07T13:22:32Z</time>
      </trkpt>
      <trkpt lat="44.77898" lon="4.55829">
        <ele>712.47</ele>
        <time>2011-04-07T13:22:42Z</time>
      </trkpt>
      <trkpt lat="44.77894" lon="4.55843">
        <ele>711.99</ele>
        <time>2011-04-07T13:22:52Z</time>
      </trkpt>
      <trkpt lat="44.77889" lon="4.55854">
        <ele>711.51</ele>
        <time>2011-04-07T13:23:00Z</time>
      </trkpt>
      <trkpt lat="44.77889" lon="4.5586">
        <ele>711.51</ele>
        <time>2011-04-07T13:23:03Z</time>
      </trkpt>
      <trkpt lat="44.77884" lon="4.55873">
        <ele>710.55</ele>
        <time>2011-04-07T13:23:13Z</time>
      </trkpt>
      <trkpt lat="44.77884" lon="4.55885">
        <ele>709.59</ele>
        <time>2011-04-07T13:23:21Z</time>
      </trkpt>
      <trkpt lat="44.77883" lon="4.55899">
        <ele>709.11</ele>
        <time>2011-04-07T13:23:30Z</time>
      </trkpt>
      <trkpt lat="44.77883" lon="4.55914">
        <ele>708.15</ele>
        <time>2011-04-07T13:23:40Z</time>
      </trkpt>
      <trkpt lat="44.77882" lon="4.55934">
        <ele>707.19</ele>
        <time>2011-04-07T13:23:52Z</time>
      </trkpt>
      <trkpt lat="44.77881" lon="4.55935">
        <ele>707.19</ele>
        <time>2011-04-07T13:23:53Z</time>
      </trkpt>
      <trkpt lat="44.7788" lon="4.55953">
        <ele>706.71</ele>
        <time>2011-04-07T13:24:03Z</time>
      </trkpt>
      <trkpt lat="44.77878" lon="4.55966">
        <ele>705.26</ele>
        <time>2011-04-07T13:24:12Z</time>
      </trkpt>
      <trkpt lat="44.77877" lon="4.55983">
        <ele>704.78</ele>
        <time>2011-04-07T13:24:22Z</time>
      </trkpt>
      <trkpt lat="44.77874" lon="4.56">
        <ele>704.3</ele>
        <time>2011-04-07T13:24:33Z</time>
      </trkpt>
      <trkpt lat="44.77875" lon="4.56013">
        <ele>704.3</ele>
        <time>2011-04-07T13:24:42Z</time>
      </trkpt>
      <trkpt lat="44.77872" lon="4.5603">
        <ele>704.3</ele>
        <time>2011-04-07T13:24:51Z</time>
      </trkpt>
      <trkpt lat="44.77867" lon="4.56044">
        <ele>703.82</ele>
        <time>2011-04-07T13:25:00Z</time>
      </trkpt>
      <trkpt lat="44.77865" lon="4.56064">
        <ele>702.86</ele>
        <time>2011-04-07T13:25:12Z</time>
      </trkpt>
      <trkpt lat="44.77859" lon="4.56077">
        <ele>701.9</ele>
        <time>2011-04-07T13:25:23Z</time>
      </trkpt>
      <trkpt lat="44.77858" lon="4.56088">
        <ele>701.9</ele>
        <time>2011-04-07T13:25:31Z</time>
      </trkpt>
      <trkpt lat="44.77852" lon="4.56104">
        <ele>700.46</ele>
        <time>2011-04-07T13:25:41Z</time>
      </trkpt>
      <trkpt lat="44.77844" lon="4.56117">
        <ele>699.5</ele>
        <time>2011-04-07T13:25:52Z</time>
      </trkpt>
      <trkpt lat="44.7784" lon="4.5613">
        <ele>697.57</ele>
        <time>2011-04-07T13:26:03Z</time>
      </trkpt>
      <trkpt lat="44.77831" lon="4.56142">
        <ele>695.65</ele>
        <time>2011-04-07T13:26:13Z</time>
      </trkpt>
      <trkpt lat="44.77828" lon="4.56147">
        <ele>694.69</ele>
        <time>2011-04-07T13:26:20Z</time>
      </trkpt>
      <trkpt lat="44.77818" lon="4.56152">
        <ele>693.25</ele>
        <time>2011-04-07T13:26:29Z</time>
      </trkpt>
      <trkpt lat="44.77804" lon="4.56149">
        <ele>690.84</ele>
        <time>2011-04-07T13:26:42Z</time>
      </trkpt>
      <trkpt lat="44.778" lon="4.56147">
        <ele>689.88</ele>
        <time>2011-04-07T13:26:51Z</time>
      </trkpt>
      <trkpt lat="44.7779" lon="4.56149">
        <ele>687.96</ele>
        <time>2011-04-07T13:27:00Z</time>
      </trkpt>
      <trkpt lat="44.77789" lon="4.56148">
        <ele>688.44</ele>
        <time>2011-04-07T13:27:01Z</time>
      </trkpt>
      <trkpt lat="44.77787" lon="4.56149">
        <ele>687.96</ele>
        <time>2011-04-07T13:27:03Z</time>
      </trkpt>
      <trkpt lat="44.77782" lon="4.56155">
        <ele>687</ele>
        <time>2011-04-07T13:27:12Z</time>
      </trkpt>
      <trkpt lat="44.77774" lon="4.56161">
        <ele>685.56</ele>
        <time>2011-04-07T13:27:20Z</time>
      </trkpt>
      <trkpt lat="44.77764" lon="4.56168">
        <ele>683.63</ele>
        <time>2011-04-07T13:27:30Z</time>
      </trkpt>
      <trkpt lat="44.77754" lon="4.56173">
        <ele>682.67</ele>
        <time>2011-04-07T13:27:39Z</time>
      </trkpt>
      <trkpt lat="44.77751" lon="4.56178">
        <ele>682.19</ele>
        <time>2011-04-07T13:27:47Z</time>
      </trkpt>
      <trkpt lat="44.7774" lon="4.56179">
        <ele>680.27</ele>
        <time>2011-04-07T13:27:55Z</time>
      </trkpt>
      <trkpt lat="44.77732" lon="4.56186">
        <ele>679.79</ele>
        <time>2011-04-07T13:28:03Z</time>
      </trkpt>
      <trkpt lat="44.77724" lon="4.56198">
        <ele>678.83</ele>
        <time>2011-04-07T13:28:14Z</time>
      </trkpt>
      <trkpt lat="44.77721" lon="4.56207">
        <ele>677.39</ele>
        <time>2011-04-07T13:28:22Z</time>
      </trkpt>
      <trkpt lat="44.77717" lon="4.56217">
        <ele>675.94</ele>
        <time>2011-04-07T13:28:29Z</time>
      </trkpt>
      <trkpt lat="44.77708" lon="4.56218">
        <ele>675.46</ele>
        <time>2011-04-07T13:28:37Z</time>
      </trkpt>
      <trkpt lat="44.77705" lon="4.56216">
        <ele>674.98</ele>
        <time>2011-04-07T13:28:41Z</time>
      </trkpt>
      <trkpt lat="44.77692" lon="4.56212">
        <ele>674.02</ele>
        <time>2011-04-07T13:28:51Z</time>
      </trkpt>
      <trkpt lat="44.77685" lon="4.56215">
        <ele>672.58</ele>
        <time>2011-04-07T13:29:01Z</time>
      </trkpt>
      <trkpt lat="44.77676" lon="4.56219">
        <ele>671.14</ele>
        <time>2011-04-07T13:29:11Z</time>
      </trkpt>
      <trkpt lat="44.77667" lon="4.56226">
        <ele>669.22</ele>
        <time>2011-04-07T13:29:22Z</time>
      </trkpt>
      <trkpt lat="44.77658" lon="4.56228">
        <ele>668.73</ele>
        <time>2011-04-07T13:29:31Z</time>
      </trkpt>
      <trkpt lat="44.77648" lon="4.56233">
        <ele>666.81</ele>
        <time>2011-04-07T13:29:41Z</time>
      </trkpt>
      <trkpt lat="44.77639" lon="4.56236">
        <ele>665.85</ele>
        <time>2011-04-07T13:29:50Z</time>
      </trkpt>
      <trkpt lat="44.77634" lon="4.56241">
        <ele>664.41</ele>
        <time>2011-04-07T13:29:58Z</time>
      </trkpt>
      <trkpt lat="44.77628" lon="4.56244">
        <ele>663.45</ele>
        <time>2011-04-07T13:30:05Z</time>
      </trkpt>
      <trkpt lat="44.77619" lon="4.56246">
        <ele>662.49</ele>
        <time>2011-04-07T13:30:13Z</time>
      </trkpt>
      <trkpt lat="44.77612" lon="4.56251">
        <ele>661.52</ele>
        <time>2011-04-07T13:30:22Z</time>
      </trkpt>
      <trkpt lat="44.77611" lon="4.5625">
        <ele>661.52</ele>
        <time>2011-04-07T13:30:28Z</time>
      </trkpt>
      <trkpt lat="44.77612" lon="4.56256">
        <ele>661.04</ele>
        <time>2011-04-07T13:30:36Z</time>
      </trkpt>
      <trkpt lat="44.77606" lon="4.56263">
        <ele>660.08</ele>
        <time>2011-04-07T13:30:51Z</time>
      </trkpt>
      <trkpt lat="44.776" lon="4.56265">
        <ele>659.12</ele>
        <time>2011-04-07T13:30:54Z</time>
      </trkpt>
      <trkpt lat="44.776" lon="4.56268">
        <ele>659.12</ele>
        <time>2011-04-07T13:30:57Z</time>
      </trkpt>
      <trkpt lat="44.77597" lon="4.5628">
        <ele>658.16</ele>
        <time>2011-04-07T13:31:06Z</time>
      </trkpt>
      <trkpt lat="44.77591" lon="4.5629">
        <ele>656.24</ele>
        <time>2011-04-07T13:31:15Z</time>
      </trkpt>
      <trkpt lat="44.77585" lon="4.56298">
        <ele>655.28</ele>
        <time>2011-04-07T13:31:23Z</time>
      </trkpt>
      <trkpt lat="44.77582" lon="4.56306">
        <ele>654.31</ele>
        <time>2011-04-07T13:31:31Z</time>
      </trkpt>
      <trkpt lat="44.77572" lon="4.5632">
        <ele>652.87</ele>
        <time>2011-04-07T13:31:40Z</time>
      </trkpt>
      <trkpt lat="44.77571" lon="4.56329">
        <ele>652.39</ele>
        <time>2011-04-07T13:31:44Z</time>
      </trkpt>
      <trkpt lat="44.7757" lon="4.56332">
        <ele>651.91</ele>
        <time>2011-04-07T13:31:49Z</time>
      </trkpt>
      <trkpt lat="44.77564" lon="4.56343">
        <ele>650.95</ele>
        <time>2011-04-07T13:31:59Z</time>
      </trkpt>
      <trkpt lat="44.77555" lon="4.56354">
        <ele>649.51</ele>
        <time>2011-04-07T13:32:09Z</time>
      </trkpt>
      <trkpt lat="44.77546" lon="4.5636">
        <ele>649.03</ele>
        <time>2011-04-07T13:32:19Z</time>
      </trkpt>
      <trkpt lat="44.77542" lon="4.56376">
        <ele>648.07</ele>
        <time>2011-04-07T13:32:28Z</time>
      </trkpt>
      <trkpt lat="44.7753" lon="4.5638">
        <ele>648.07</ele>
        <time>2011-04-07T13:32:37Z</time>
      </trkpt>
      <trkpt lat="44.77524" lon="4.5639">
        <ele>648.07</ele>
        <time>2011-04-07T13:32:46Z</time>
      </trkpt>
      <trkpt lat="44.77512" lon="4.56392">
        <ele>647.59</ele>
        <time>2011-04-07T13:32:55Z</time>
      </trkpt>
      <trkpt lat="44.77504" lon="4.56401">
        <ele>647.59</ele>
        <time>2011-04-07T13:33:04Z</time>
      </trkpt>
      <trkpt lat="44.77494" lon="4.56403">
        <ele>647.1</ele>
        <time>2011-04-07T13:33:11Z</time>
      </trkpt>
      <trkpt lat="44.7749" lon="4.56408">
        <ele>647.1</ele>
        <time>2011-04-07T13:33:15Z</time>
      </trkpt>
      <trkpt lat="44.77482" lon="4.56407">
        <ele>646.14</ele>
        <time>2011-04-07T13:33:23Z</time>
      </trkpt>
      <trkpt lat="44.77479" lon="4.56413">
        <ele>645.66</ele>
        <time>2011-04-07T13:33:32Z</time>
      </trkpt>
      <trkpt lat="44.77479" lon="4.56413">
        <ele>645.18</ele>
        <time>2011-04-07T13:34:17Z</time>
      </trkpt>
      <trkpt lat="44.77468" lon="4.56425">
        <ele>644.22</ele>
        <time>2011-04-07T13:34:26Z</time>
      </trkpt>
      <trkpt lat="44.77459" lon="4.5643">
        <ele>643.26</ele>
        <time>2011-04-07T13:34:35Z</time>
      </trkpt>
      <trkpt lat="44.77449" lon="4.56431">
        <ele>641.82</ele>
        <time>2011-04-07T13:34:44Z</time>
      </trkpt>
      <trkpt lat="44.77443" lon="4.56424">
        <ele>640.38</ele>
        <time>2011-04-07T13:34:53Z</time>
      </trkpt>
      <trkpt lat="44.77441" lon="4.56428">
        <ele>640.38</ele>
        <time>2011-04-07T13:34:57Z</time>
      </trkpt>
      <trkpt lat="44.77438" lon="4.56434">
        <ele>640.38</ele>
        <time>2011-04-07T13:35:01Z</time>
      </trkpt>
      <trkpt lat="44.77427" lon="4.5645">
        <ele>639.89</ele>
        <time>2011-04-07T13:35:12Z</time>
      </trkpt>
      <trkpt lat="44.77413" lon="4.5646">
        <ele>638.93</ele>
        <time>2011-04-07T13:35:23Z</time>
      </trkpt>
      <trkpt lat="44.77401" lon="4.56473">
        <ele>638.93</ele>
        <time>2011-04-07T13:35:34Z</time>
      </trkpt>
      <trkpt lat="44.77394" lon="4.56483">
        <ele>638.45</ele>
        <time>2011-04-07T13:35:43Z</time>
      </trkpt>
      <trkpt lat="44.77384" lon="4.56491">
        <ele>637.49</ele>
        <time>2011-04-07T13:35:51Z</time>
      </trkpt>
      <trkpt lat="44.77374" lon="4.56497">
        <ele>637.49</ele>
        <time>2011-04-07T13:35:59Z</time>
      </trkpt>
      <trkpt lat="44.77365" lon="4.56505">
        <ele>636.53</ele>
        <time>2011-04-07T13:36:07Z</time>
      </trkpt>
      <trkpt lat="44.77355" lon="4.56515">
        <ele>636.53</ele>
        <time>2011-04-07T13:36:16Z</time>
      </trkpt>
      <trkpt lat="44.77347" lon="4.56532">
        <ele>636.05</ele>
        <time>2011-04-07T13:36:25Z</time>
      </trkpt>
      <trkpt lat="44.77335" lon="4.5654">
        <ele>635.57</ele>
        <time>2011-04-07T13:36:34Z</time>
      </trkpt>
      <trkpt lat="44.77328" lon="4.56558">
        <ele>634.61</ele>
        <time>2011-04-07T13:36:46Z</time>
      </trkpt>
      <trkpt lat="44.77321" lon="4.5657">
        <ele>634.13</ele>
        <time>2011-04-07T13:36:56Z</time>
      </trkpt>
      <trkpt lat="44.77309" lon="4.56581">
        <ele>633.17</ele>
        <time>2011-04-07T13:37:05Z</time>
      </trkpt>
      <trkpt lat="44.77309" lon="4.56582">
        <ele>633.65</ele>
        <time>2011-04-07T13:37:06Z</time>
      </trkpt>
      <trkpt lat="44.77299" lon="4.56596">
        <ele>632.2</ele>
        <time>2011-04-07T13:37:15Z</time>
      </trkpt>
      <trkpt lat="44.77294" lon="4.566">
        <ele>632.68</ele>
        <time>2011-04-07T13:37:20Z</time>
      </trkpt>
      <trkpt lat="44.77288" lon="4.56612">
        <ele>631.24</ele>
        <time>2011-04-07T13:37:27Z</time>
      </trkpt>
      <trkpt lat="44.77284" lon="4.5662">
        <ele>630.76</ele>
        <time>2011-04-07T13:37:33Z</time>
      </trkpt>
      <trkpt lat="44.77274" lon="4.56633">
        <ele>629.32</ele>
        <time>2011-04-07T13:37:43Z</time>
      </trkpt>
      <trkpt lat="44.77267" lon="4.56645">
        <ele>627.88</ele>
        <time>2011-04-07T13:37:52Z</time>
      </trkpt>
      <trkpt lat="44.77257" lon="4.56659">
        <ele>626.92</ele>
        <time>2011-04-07T13:38:01Z</time>
      </trkpt>
      <trkpt lat="44.77256" lon="4.56662">
        <ele>626.92</ele>
        <time>2011-04-07T13:38:05Z</time>
      </trkpt>
      <trkpt lat="44.77245" lon="4.56672">
        <ele>625.96</ele>
        <time>2011-04-07T13:38:14Z</time>
      </trkpt>
      <trkpt lat="44.77238" lon="4.56684">
        <ele>624.99</ele>
        <time>2011-04-07T13:38:23Z</time>
      </trkpt>
      <trkpt lat="44.77228" lon="4.56693">
        <ele>624.99</ele>
        <time>2011-04-07T13:38:31Z</time>
      </trkpt>
      <trkpt lat="44.77218" lon="4.567">
        <ele>624.03</ele>
        <time>2011-04-07T13:38:40Z</time>
      </trkpt>
      <trkpt lat="44.77208" lon="4.56705">
        <ele>622.59</ele>
        <time>2011-04-07T13:38:48Z</time>
      </trkpt>
      <trkpt lat="44.77207" lon="4.56706">
        <ele>622.11</ele>
        <time>2011-04-07T13:38:49Z</time>
      </trkpt>
      <trkpt lat="44.77199" lon="4.56712">
        <ele>621.15</ele>
        <time>2011-04-07T13:38:56Z</time>
      </trkpt>
      <trkpt lat="44.77187" lon="4.56718">
        <ele>619.23</ele>
        <time>2011-04-07T13:39:07Z</time>
      </trkpt>
      <trkpt lat="44.77181" lon="4.56722">
        <ele>618.75</ele>
        <time>2011-04-07T13:39:12Z</time>
      </trkpt>
      <trkpt lat="44.77175" lon="4.56729">
        <ele>617.78</ele>
        <time>2011-04-07T13:39:18Z</time>
      </trkpt>
      <trkpt lat="44.77173" lon="4.5673">
        <ele>616.82</ele>
        <time>2011-04-07T13:39:21Z</time>
      </trkpt>
      <trkpt lat="44.77158" lon="4.56735">
        <ele>615.38</ele>
        <time>2011-04-07T13:39:32Z</time>
      </trkpt>
      <trkpt lat="44.77149" lon="4.56739">
        <ele>614.42</ele>
        <time>2011-04-07T13:39:41Z</time>
      </trkpt>
      <trkpt lat="44.77135" lon="4.56742">
        <ele>613.46</ele>
        <time>2011-04-07T13:39:50Z</time>
      </trkpt>
      <trkpt lat="44.77123" lon="4.56743">
        <ele>612.02</ele>
        <time>2011-04-07T13:40:00Z</time>
      </trkpt>
      <trkpt lat="44.77113" lon="4.56741">
        <ele>611.54</ele>
        <time>2011-04-07T13:40:09Z</time>
      </trkpt>
      <trkpt lat="44.77103" lon="4.56741">
        <ele>610.09</ele>
        <time>2011-04-07T13:40:18Z</time>
      </trkpt>
      <trkpt lat="44.77093" lon="4.56738">
        <ele>609.61</ele>
        <time>2011-04-07T13:40:26Z</time>
      </trkpt>
      <trkpt lat="44.77081" lon="4.56739">
        <ele>608.17</ele>
        <time>2011-04-07T13:40:37Z</time>
      </trkpt>
      <trkpt lat="44.77068" lon="4.56738">
        <ele>607.21</ele>
        <time>2011-04-07T13:40:47Z</time>
      </trkpt>
      <trkpt lat="44.77055" lon="4.56736">
        <ele>606.25</ele>
        <time>2011-04-07T13:40:56Z</time>
      </trkpt>
      <trkpt lat="44.77044" lon="4.56737">
        <ele>604.81</ele>
        <time>2011-04-07T13:41:06Z</time>
      </trkpt>
      <trkpt lat="44.77031" lon="4.56739">
        <ele>602.88</ele>
        <time>2011-04-07T13:41:18Z</time>
      </trkpt>
      <trkpt lat="44.7702" lon="4.56736">
        <ele>601.44</ele>
        <time>2011-04-07T13:41:28Z</time>
      </trkpt>
      <trkpt lat="44.77008" lon="4.56738">
        <ele>600.48</ele>
        <time>2011-04-07T13:41:38Z</time>
      </trkpt>
      <trkpt lat="44.76998" lon="4.56743">
        <ele>599.04</ele>
        <time>2011-04-07T13:41:47Z</time>
      </trkpt>
      <trkpt lat="44.76993" lon="4.56755">
        <ele>598.08</ele>
        <time>2011-04-07T13:41:55Z</time>
      </trkpt>
      <trkpt lat="44.76991" lon="4.56768">
        <ele>597.6</ele>
        <time>2011-04-07T13:42:03Z</time>
      </trkpt>
      <trkpt lat="44.76992" lon="4.5678">
        <ele>598.08</ele>
        <time>2011-04-07T13:42:10Z</time>
      </trkpt>
      <trkpt lat="44.76993" lon="4.56802">
        <ele>598.56</ele>
        <time>2011-04-07T13:42:21Z</time>
      </trkpt>
      <trkpt lat="44.76995" lon="4.56816">
        <ele>598.08</ele>
        <time>2011-04-07T13:42:29Z</time>
      </trkpt>
      <trkpt lat="44.76998" lon="4.56834">
        <ele>598.08</ele>
        <time>2011-04-07T13:42:38Z</time>
      </trkpt>
      <trkpt lat="44.76998" lon="4.5685">
        <ele>598.56</ele>
        <time>2011-04-07T13:42:47Z</time>
      </trkpt>
      <trkpt lat="44.76998" lon="4.56866">
        <ele>598.08</ele>
        <time>2011-04-07T13:42:56Z</time>
      </trkpt>
      <trkpt lat="44.76999" lon="4.56884">
        <ele>598.08</ele>
        <time>2011-04-07T13:43:06Z</time>
      </trkpt>
      <trkpt lat="44.77004" lon="4.56901">
        <ele>598.56</ele>
        <time>2011-04-07T13:43:16Z</time>
      </trkpt>
      <trkpt lat="44.77002" lon="4.56919">
        <ele>597.6</ele>
        <time>2011-04-07T13:43:24Z</time>
      </trkpt>
      <trkpt lat="44.77001" lon="4.56933">
        <ele>598.08</ele>
        <time>2011-04-07T13:43:33Z</time>
      </trkpt>
      <trkpt lat="44.77004" lon="4.56947">
        <ele>597.6</ele>
        <time>2011-04-07T13:43:42Z</time>
      </trkpt>
      <trkpt lat="44.77006" lon="4.56963">
        <ele>597.6</ele>
        <time>2011-04-07T13:43:50Z</time>
      </trkpt>
      <trkpt lat="44.77006" lon="4.56981">
        <ele>598.08</ele>
        <time>2011-04-07T13:43:59Z</time>
      </trkpt>
      <trkpt lat="44.77008" lon="4.56997">
        <ele>598.56</ele>
        <time>2011-04-07T13:44:09Z</time>
      </trkpt>
      <trkpt lat="44.77008" lon="4.57017">
        <ele>598.56</ele>
        <time>2011-04-07T13:44:19Z</time>
      </trkpt>
      <trkpt lat="44.77008" lon="4.57035">
        <ele>598.56</ele>
        <time>2011-04-07T13:44:29Z</time>
      </trkpt>
      <trkpt lat="44.77006" lon="4.57047">
        <ele>599.04</ele>
        <time>2011-04-07T13:44:37Z</time>
      </trkpt>
      <trkpt lat="44.77007" lon="4.57061">
        <ele>599.04</ele>
        <time>2011-04-07T13:44:45Z</time>
      </trkpt>
      <trkpt lat="44.77006" lon="4.5708">
        <ele>599.52</ele>
        <time>2011-04-07T13:44:54Z</time>
      </trkpt>
      <trkpt lat="44.77004" lon="4.57095">
        <ele>599.52</ele>
        <time>2011-04-07T13:45:04Z</time>
      </trkpt>
      <trkpt lat="44.77002" lon="4.57112">
        <ele>600</ele>
        <time>2011-04-07T13:45:14Z</time>
      </trkpt>
      <trkpt lat="44.76999" lon="4.57133">
        <ele>600.48</ele>
        <time>2011-04-07T13:45:25Z</time>
      </trkpt>
      <trkpt lat="44.77001" lon="4.57149">
        <ele>600.48</ele>
        <time>2011-04-07T13:45:34Z</time>
      </trkpt>
      <trkpt lat="44.77007" lon="4.57164">
        <ele>600</ele>
        <time>2011-04-07T13:45:44Z</time>
      </trkpt>
      <trkpt lat="44.77012" lon="4.57176">
        <ele>600</ele>
        <time>2011-04-07T13:45:52Z</time>
      </trkpt>
      <trkpt lat="44.7702" lon="4.57181">
        <ele>599.52</ele>
        <time>2011-04-07T13:45:59Z</time>
      </trkpt>
      <trkpt lat="44.77033" lon="4.57188">
        <ele>599.04</ele>
        <time>2011-04-07T13:46:10Z</time>
      </trkpt>
      <trkpt lat="44.77044" lon="4.57192">
        <ele>598.56</ele>
        <time>2011-04-07T13:46:19Z</time>
      </trkpt>
      <trkpt lat="44.77052" lon="4.57197">
        <ele>597.6</ele>
        <time>2011-04-07T13:46:27Z</time>
      </trkpt>
      <trkpt lat="44.77062" lon="4.57203">
        <ele>597.6</ele>
        <time>2011-04-07T13:46:36Z</time>
      </trkpt>
      <trkpt lat="44.7707" lon="4.57209">
        <ele>597.6</ele>
        <time>2011-04-07T13:46:44Z</time>
      </trkpt>
      <trkpt lat="44.77082" lon="4.57211">
        <ele>597.6</ele>
        <time>2011-04-07T13:46:52Z</time>
      </trkpt>
      <trkpt lat="44.77087" lon="4.57218">
        <ele>597.6</ele>
        <time>2011-04-07T13:46:59Z</time>
      </trkpt>
      <trkpt lat="44.77087" lon="4.57229">
        <ele>597.12</ele>
        <time>2011-04-07T13:47:09Z</time>
      </trkpt>
      <trkpt lat="44.77088" lon="4.5723">
        <ele>596.64</ele>
        <time>2011-04-07T13:47:18Z</time>
      </trkpt>
      <trkpt lat="44.77087" lon="4.57231">
        <ele>596.64</ele>
        <time>2011-04-07T13:47:36Z</time>
      </trkpt>
      <trkpt lat="44.77087" lon="4.57228">
        <ele>597.12</ele>
        <time>2011-04-07T13:47:42Z</time>
      </trkpt>
      <trkpt lat="44.77084" lon="4.5723">
        <ele>596.15</ele>
        <time>2011-04-07T13:47:51Z</time>
      </trkpt>
      <trkpt lat="44.77086" lon="4.57229">
        <ele>596.64</ele>
        <time>2011-04-07T13:48:03Z</time>
      </trkpt>
      <trkpt lat="44.77088" lon="4.57229">
        <ele>596.15</ele>
        <time>2011-04-07T13:49:15Z</time>
      </trkpt>
      <trkpt lat="44.77088" lon="4.57229">
        <ele>596.64</ele>
        <time>2011-04-07T13:49:26Z</time>
      </trkpt>
      <trkpt lat="44.77088" lon="4.57229">
        <ele>592.79</ele>
        <time>2011-04-07T13:49:57Z</time>
      </trkpt>
      <trkpt lat="44.77088" lon="4.57229">
        <ele>596.15</ele>
        <time>2011-04-07T13:49:58Z</time>
      </trkpt>
      <trkpt lat="44.77088" lon="4.57229">
        <ele>596.15</ele>
        <time>2011-04-07T13:50:46Z</time>
      </trkpt>
      <trkpt lat="44.77088" lon="4.57229">
        <ele>592.79</ele>
        <time>2011-04-07T13:51:15Z</time>
      </trkpt>
      <trkpt lat="44.77088" lon="4.57229">
        <ele>595.67</ele>
        <time>2011-04-07T13:51:16Z</time>
      </trkpt>
    </trkseg>
  </trk>
</gpx>